<?xml version='1.0' encoding='UTF-8'?><gpx version="1.1" creator="JPX - https://github.com/jenetics/jpx" xmlns="http://www.topografix.com/GPX/1/1"><trk><trkseg><trkpt lat="44.473428237245265" lon="11.400420605924069"><ele>63.400000000000006</ele><time>2026-05-03T13:46:54.999Z</time></trkpt><trkpt lat="44.47339201273114" lon="11.400573720555533"><ele>62.800000000000004</ele><time>2026-05-03T13:46:56.999Z</time></trkpt><trkpt lat="44.47339125453553" lon="11.40075090659723"><ele>62.199999999999996</ele><time>2026-05-03T13:46:58.999Z</time></trkpt><trkpt lat="44.47344143115125" lon="11.40083831055873"><ele>61.599999999999994</ele><time>2026-05-03T13:47:07.999Z</time></trkpt><trkpt lat="44.473407040080055" lon="11.400998679879327"><ele>61.0</ele><time>2026-05-03T13:47:11.999Z</time></trkpt><trkpt lat="44.47335873498803" lon="11.40114615160362"><ele>61.0</ele><time>2026-05-03T13:47:12.999Z</time></trkpt><trkpt lat="44.473328180592276" lon="11.401255323163051"><ele>60.99999999999999</ele><time>2026-05-03T13:47:13.999Z</time></trkpt><trkpt lat="44.47328975080543" lon="11.401363599407883"><ele>60.99999999999999</ele><time>2026-05-03T13:47:14.999Z</time></trkpt><trkpt lat="44.47323443559251" lon="11.401509050012924"><ele>61.0</ele><time>2026-05-03T13:47:15.999Z</time></trkpt><trkpt lat="44.47318363315438" lon="11.40164684051082"><ele>61.0</ele><time>2026-05-03T13:47:16.999Z</time></trkpt><trkpt lat="44.473135842954974" lon="11.401777913729797"><ele>61.199999999999996</ele><time>2026-05-03T13:47:17.999Z</time></trkpt><trkpt lat="44.47309821159672" lon="11.401867858932867"><ele>61.39999999999999</ele><time>2026-05-03T13:47:18.999Z</time></trkpt><trkpt lat="44.473024394154606" lon="11.401992979640328"><ele>61.6</ele><time>2026-05-03T13:47:20.998Z</time></trkpt><trkpt lat="44.47295239865115" lon="11.40202960365148"><ele>61.8</ele><time>2026-05-03T13:47:22.998Z</time></trkpt><trkpt lat="44.47283421002359" lon="11.401913212991309"><ele>62.0</ele><time>2026-05-03T13:47:23.998Z</time></trkpt><trkpt lat="44.47272995942534" lon="11.40184931971372"><ele>63.25</ele><time>2026-05-03T13:47:24.998Z</time></trkpt><trkpt lat="44.47260670964215" lon="11.40178561611765"><ele>64.5</ele><time>2026-05-03T13:47:25.998Z</time></trkpt><trkpt lat="44.47248693520483" lon="11.401715528011334"><ele>65.75</ele><time>2026-05-03T13:47:26.998Z</time></trkpt><trkpt lat="44.47236266059178" lon="11.401639790717015"><ele>67.0</ele><time>2026-05-03T13:47:27.998Z</time></trkpt><trkpt lat="44.472241887263145" lon="11.401564846749656"><ele>67.0</ele><time>2026-05-03T13:47:28.998Z</time></trkpt><trkpt lat="44.472118694100196" lon="11.401470118025804"><ele>67.0</ele><time>2026-05-03T13:47:29.998Z</time></trkpt><trkpt lat="44.471974916766534" lon="11.401405194487996"><ele>67.0</ele><time>2026-05-03T13:47:30.998Z</time></trkpt><trkpt lat="44.47185121965884" lon="11.401322935335337"><ele>67.0</ele><time>2026-05-03T13:47:31.998Z</time></trkpt><trkpt lat="44.47172544390049" lon="11.401243094020481"><ele>67.0</ele><time>2026-05-03T13:47:32.998Z</time></trkpt><trkpt lat="44.4716081565881" lon="11.40116588131881"><ele>67.0</ele><time>2026-05-03T13:47:33.998Z</time></trkpt><trkpt lat="44.47148991437978" lon="11.401094828202037"><ele>67.0</ele><time>2026-05-03T13:47:34.998Z</time></trkpt><trkpt lat="44.4713809185293" lon="11.401031060397592"><ele>67.0</ele><time>2026-05-03T13:47:35.998Z</time></trkpt><trkpt lat="44.47126929084884" lon="11.40095875386706"><ele>66.75</ele><time>2026-05-03T13:47:37Z</time></trkpt><trkpt lat="44.47116482125599" lon="11.400893095180953"><ele>66.5</ele><time>2026-05-03T13:47:38Z</time></trkpt><trkpt lat="44.47105796588852" lon="11.400827571596615"><ele>66.25</ele><time>2026-05-03T13:47:39Z</time></trkpt><trkpt lat="44.47095603104414" lon="11.400762347456066"><ele>66.0</ele><time>2026-05-03T13:47:40Z</time></trkpt><trkpt lat="44.47085442506206" lon="11.40070108524931"><ele>66.0</ele><time>2026-05-03T13:47:41Z</time></trkpt><trkpt lat="44.470761591139855" lon="11.400643740216532"><ele>66.0</ele><time>2026-05-03T13:47:42Z</time></trkpt><trkpt lat="44.47067784789647" lon="11.400584097757116"><ele>66.0</ele><time>2026-05-03T13:47:43Z</time></trkpt><trkpt lat="44.47059476525201" lon="11.400532476725834"><ele>66.0</ele><time>2026-05-03T13:47:44Z</time></trkpt><trkpt lat="44.47051349053817" lon="11.400482334837905"><ele>66.0</ele><time>2026-05-03T13:47:45Z</time></trkpt><trkpt lat="44.47043298830049" lon="11.400428050387486"><ele>65.66666666666667</ele><time>2026-05-03T13:47:46Z</time></trkpt><trkpt lat="44.47035275199243" lon="11.400373811270784"><ele>65.33333333333333</ele><time>2026-05-03T13:47:47Z</time></trkpt><trkpt lat="44.470268947883994" lon="11.400324242427619"><ele>65.0</ele><time>2026-05-03T13:47:48Z</time></trkpt><trkpt lat="44.470190519076375" lon="11.400279439024057"><ele>64.66666666666666</ele><time>2026-05-03T13:47:49Z</time></trkpt><trkpt lat="44.47011361958472" lon="11.400236794117633"><ele>64.33333333333333</ele><time>2026-05-03T13:47:50Z</time></trkpt><trkpt lat="44.47003893743385" lon="11.400191011969268"><ele>64.0</ele><time>2026-05-03T13:47:51Z</time></trkpt><trkpt lat="44.469961529685236" lon="11.400145029831657"><ele>64.0</ele><time>2026-05-03T13:47:52Z</time></trkpt><trkpt lat="44.46987507459261" lon="11.400087188899914"><ele>64.0</ele><time>2026-05-03T13:47:53Z</time></trkpt><trkpt lat="44.469783699809696" lon="11.400040016867177"><ele>64.0</ele><time>2026-05-03T13:47:54Z</time></trkpt><trkpt lat="44.469693979362745" lon="11.39997955871404"><ele>64.0</ele><time>2026-05-03T13:47:55Z</time></trkpt><trkpt lat="44.46960212513024" lon="11.39991587219115"><ele>64.0</ele><time>2026-05-03T13:47:56Z</time></trkpt><trkpt lat="44.469506465288866" lon="11.39985424628365"><ele>64.60000000000001</ele><time>2026-05-03T13:47:57Z</time></trkpt><trkpt lat="44.469430805857186" lon="11.399795284062051"><ele>65.2</ele><time>2026-05-03T13:47:58Z</time></trkpt><trkpt lat="44.46935084326655" lon="11.399735632156622"><ele>65.80000000000001</ele><time>2026-05-03T13:47:59Z</time></trkpt><trkpt lat="44.46927005319398" lon="11.399662199904324"><ele>66.4</ele><time>2026-05-03T13:48:00Z</time></trkpt><trkpt lat="44.46920094340446" lon="11.399583779493554"><ele>67.0</ele><time>2026-05-03T13:48:01Z</time></trkpt><trkpt lat="44.46912463993134" lon="11.399512110786365"><ele>67.2</ele><time>2026-05-03T13:48:02Z</time></trkpt><trkpt lat="44.469057254182985" lon="11.39943237638835"><ele>67.4</ele><time>2026-05-03T13:48:03Z</time></trkpt><trkpt lat="44.468981378233906" lon="11.399342944368941"><ele>67.6</ele><time>2026-05-03T13:48:04Z</time></trkpt><trkpt lat="44.468891131257905" lon="11.399246963815287"><ele>67.8</ele><time>2026-05-03T13:48:05Z</time></trkpt><trkpt lat="44.46881158276642" lon="11.39914805309835"><ele>68.0</ele><time>2026-05-03T13:48:06Z</time></trkpt><trkpt lat="44.46873167436812" lon="11.399049048402276"><ele>69.0</ele><time>2026-05-03T13:48:07Z</time></trkpt><trkpt lat="44.46864704251154" lon="11.398953163057396"><ele>70.0</ele><time>2026-05-03T13:48:08Z</time></trkpt><trkpt lat="44.468574663822984" lon="11.398864877538792"><ele>71.0</ele><time>2026-05-03T13:48:09Z</time></trkpt><trkpt lat="44.46850525230459" lon="11.398787571928382"><ele>72.0</ele><time>2026-05-03T13:48:10Z</time></trkpt><trkpt lat="44.46844065965455" lon="11.398704761053349"><ele>73.0</ele><time>2026-05-03T13:48:11Z</time></trkpt><trkpt lat="44.46837606702053" lon="11.398631935579491"><ele>73.4</ele><time>2026-05-03T13:48:12Z</time></trkpt><trkpt lat="44.46831697068519" lon="11.398532748835304"><ele>73.8</ele><time>2026-05-03T13:48:13Z</time></trkpt><trkpt lat="44.46823112215672" lon="11.39845212502701"><ele>74.2</ele><time>2026-05-03T13:48:14Z</time></trkpt><trkpt lat="44.46815957895629" lon="11.398349388874548"><ele>74.6</ele><time>2026-05-03T13:48:15Z</time></trkpt><trkpt lat="44.468086947828546" lon="11.398240719507633"><ele>75.0</ele><time>2026-05-03T13:48:16Z</time></trkpt><trkpt lat="44.468022465011586" lon="11.398118328793235"><ele>75.0</ele><time>2026-05-03T13:48:16.999Z</time></trkpt><trkpt lat="44.467959179554576" lon="11.398004651510076"><ele>75.0</ele><time>2026-05-03T13:48:17.999Z</time></trkpt><trkpt lat="44.46790724184156" lon="11.397897138677257"><ele>75.0</ele><time>2026-05-03T13:48:18.999Z</time></trkpt><trkpt lat="44.46786510743516" lon="11.397822682165575"><ele>75.0</ele><time>2026-05-03T13:48:19.999Z</time></trkpt><trkpt lat="44.46781972949749" lon="11.397718003772855"><ele>75.0</ele><time>2026-05-03T13:48:21.999Z</time></trkpt><trkpt lat="44.46774385869446" lon="11.397580783108364"><ele>75.28571428571428</ele><time>2026-05-03T13:48:23.999Z</time></trkpt><trkpt lat="44.46770245529714" lon="11.397506398212595"><ele>75.57142857142857</ele><time>2026-05-03T13:48:24.999Z</time></trkpt><trkpt lat="44.467657108346195" lon="11.39741687050274"><ele>75.85714285714286</ele><time>2026-05-03T13:48:25.999Z</time></trkpt><trkpt lat="44.46761654540406" lon="11.397329084435635"><ele>76.14285714285714</ele><time>2026-05-03T13:48:26.999Z</time></trkpt><trkpt lat="44.46757773377427" lon="11.39724617516346"><ele>76.42857142857143</ele><time>2026-05-03T13:48:27.999Z</time></trkpt><trkpt lat="44.467539121673106" lon="11.397173474522218"><ele>76.71428571428571</ele><time>2026-05-03T13:48:28.999Z</time></trkpt><trkpt lat="44.46749899787422" lon="11.39708641729976"><ele>77.0</ele><time>2026-05-03T13:48:29.999Z</time></trkpt><trkpt lat="44.46745645339287" lon="11.397006562042566"><ele>77.0</ele><time>2026-05-03T13:48:30.999Z</time></trkpt><trkpt lat="44.46741155361969" lon="11.3969366588367"><ele>77.0</ele><time>2026-05-03T13:48:31.999Z</time></trkpt><trkpt lat="44.467337938289766" lon="11.396828314946836"><ele>77.0</ele><time>2026-05-03T13:48:33.999Z</time></trkpt><trkpt lat="44.4672689483965" lon="11.396751993934181"><ele>77.0</ele><time>2026-05-03T13:48:35.999Z</time></trkpt><trkpt lat="44.467220365155036" lon="11.396687590402436"><ele>77.0</ele><time>2026-05-03T13:48:38.999Z</time></trkpt><trkpt lat="44.46714321870341" lon="11.39659304000464"><ele>77.0</ele><time>2026-05-03T13:49:18.999Z</time></trkpt><trkpt lat="44.467083869992194" lon="11.39651607706685"><ele>76.2</ele><time>2026-05-03T13:49:20.999Z</time></trkpt><trkpt lat="44.467067550751565" lon="11.396427895471803"><ele>75.4</ele><time>2026-05-03T13:49:22.999Z</time></trkpt><trkpt lat="44.467132608404036" lon="11.396320515916731"><ele>74.6</ele><time>2026-05-03T13:49:24.999Z</time></trkpt><trkpt lat="44.46720337521927" lon="11.396251914116085"><ele>73.8</ele><time>2026-05-03T13:49:25.999Z</time></trkpt><trkpt lat="44.46729483316355" lon="11.396182253726689"><ele>73.0</ele><time>2026-05-03T13:49:26.998Z</time></trkpt><trkpt lat="44.46738608971548" lon="11.396112742327347"><ele>73.0</ele><time>2026-05-03T13:49:27.998Z</time></trkpt><trkpt lat="44.46749606927232" lon="11.396017335885267"><ele>73.0</ele><time>2026-05-03T13:49:28.998Z</time></trkpt><trkpt lat="44.4676144495085" lon="11.395912078420256"><ele>73.0</ele><time>2026-05-03T13:49:29.998Z</time></trkpt><trkpt lat="44.467737288090866" lon="11.395815376188857"><ele>73.0</ele><time>2026-05-03T13:49:30.998Z</time></trkpt><trkpt lat="44.46786906511637" lon="11.395708072057062"><ele>71.66666666666666</ele><time>2026-05-03T13:49:31.998Z</time></trkpt><trkpt lat="44.46799762661846" lon="11.395607003969216"><ele>70.33333333333333</ele><time>2026-05-03T13:49:32.998Z</time></trkpt><trkpt lat="44.46812696145309" lon="11.39549548410221"><ele>69.0</ele><time>2026-05-03T13:49:33.998Z</time></trkpt><trkpt lat="44.468267334589214" lon="11.395408711460961"><ele>68.4</ele><time>2026-05-03T13:49:34.998Z</time></trkpt><trkpt lat="44.46838150285237" lon="11.395316710694892"><ele>67.80000000000001</ele><time>2026-05-03T13:49:35.998Z</time></trkpt><trkpt lat="44.4684815754138" lon="11.395211081595242"><ele>67.19999999999999</ele><time>2026-05-03T13:49:36.998Z</time></trkpt><trkpt lat="44.468572914978424" lon="11.395162826677868"><ele>66.6</ele><time>2026-05-03T13:49:37.998Z</time></trkpt><trkpt lat="44.46864963308193" lon="11.395101386645532"><ele>66.0</ele><time>2026-05-03T13:49:38.998Z</time></trkpt><trkpt lat="44.468743102170535" lon="11.395037946584646"><ele>66.33333333333333</ele><time>2026-05-03T13:49:40.998Z</time></trkpt><trkpt lat="44.46881767691924" lon="11.394995231421552"><ele>66.66666666666667</ele><time>2026-05-03T13:49:43Z</time></trkpt><trkpt lat="44.46889968722501" lon="11.39495159655089"><ele>67.0</ele><time>2026-05-03T13:49:45Z</time></trkpt><trkpt lat="44.46896441974762" lon="11.394927032173"><ele>67.33333333333334</ele><time>2026-05-03T13:49:49Z</time></trkpt><trkpt lat="44.46907822113874" lon="11.394878916713035"><ele>67.66666666666667</ele><time>2026-05-03T13:49:52Z</time></trkpt><trkpt lat="44.46916414746902" lon="11.394833142540433"><ele>68.0</ele><time>2026-05-03T13:49:53Z</time></trkpt><trkpt lat="44.469243325485685" lon="11.394788249768911"><ele>68.0</ele><time>2026-05-03T13:49:54Z</time></trkpt><trkpt lat="44.46931349777801" lon="11.394756224146343"><ele>68.0</ele><time>2026-05-03T13:49:55Z</time></trkpt><trkpt lat="44.46941381775587" lon="11.394736158128248"><ele>68.0</ele><time>2026-05-03T13:49:56Z</time></trkpt><trkpt lat="44.46951833367723" lon="11.394704097043492"><ele>68.0</ele><time>2026-05-03T13:49:57Z</time></trkpt><trkpt lat="44.469636613655766" lon="11.394656367997895"><ele>68.0</ele><time>2026-05-03T13:49:58Z</time></trkpt><trkpt lat="44.469750889707186" lon="11.394586623376016"><ele>68.25</ele><time>2026-05-03T13:49:59Z</time></trkpt><trkpt lat="44.469865238092446" lon="11.394469644063104"><ele>68.5</ele><time>2026-05-03T13:50:00Z</time></trkpt><trkpt lat="44.46993809940844" lon="11.394246045889851"><ele>68.75</ele><time>2026-05-03T13:50:02Z</time></trkpt><trkpt lat="44.46995336629159" lon="11.394084221297138"><ele>69.0</ele><time>2026-05-03T13:50:03Z</time></trkpt><trkpt lat="44.46994484205555" lon="11.393902981345336"><ele>69.5</ele><time>2026-05-03T13:50:04Z</time></trkpt><trkpt lat="44.469934304784104" lon="11.393708063743164"><ele>70.0</ele><time>2026-05-03T13:50:05Z</time></trkpt><trkpt lat="44.469903242964854" lon="11.393523985372763"><ele>70.5</ele><time>2026-05-03T13:50:06Z</time></trkpt><trkpt lat="44.469869296105685" lon="11.393346408936967"><ele>71.0</ele><time>2026-05-03T13:50:07Z</time></trkpt><trkpt lat="44.46979654554131" lon="11.393206950390688"><ele>71.0</ele><time>2026-05-03T13:50:08Z</time></trkpt><trkpt lat="44.469706591044584" lon="11.393102544328459"><ele>71.0</ele><time>2026-05-03T13:50:09Z</time></trkpt><trkpt lat="44.4696047819353" lon="11.393022652959194"><ele>71.0</ele><time>2026-05-03T13:50:10Z</time></trkpt><trkpt lat="44.469483860218325" lon="11.39299590410154"><ele>71.0</ele><time>2026-05-03T13:50:11Z</time></trkpt><trkpt lat="44.46935246837107" lon="11.393008163651045"><ele>71.25</ele><time>2026-05-03T13:50:12Z</time></trkpt><trkpt lat="44.46921605170779" lon="11.393041338016747"><ele>71.5</ele><time>2026-05-03T13:50:13Z</time></trkpt><trkpt lat="44.46908477033247" lon="11.393085391430798"><ele>71.75</ele><time>2026-05-03T13:50:14Z</time></trkpt><trkpt lat="44.468963287809444" lon="11.393141970296186"><ele>72.0</ele><time>2026-05-03T13:50:15Z</time></trkpt><trkpt lat="44.468859917791825" lon="11.393222055883644"><ele>72.0</ele><time>2026-05-03T13:50:16Z</time></trkpt><trkpt lat="44.46878752227224" lon="11.39336139734883"><ele>72.0</ele><time>2026-05-03T13:50:17Z</time></trkpt><trkpt lat="44.46873118544069" lon="11.393481340833294"><ele>72.0</ele><time>2026-05-03T13:50:17.999Z</time></trkpt><trkpt lat="44.46870221481609" lon="11.393653018337488"><ele>72.0</ele><time>2026-05-03T13:50:18.999Z</time></trkpt><trkpt lat="44.46869887524061" lon="11.393820682289654"><ele>71.0</ele><time>2026-05-03T13:50:19.999Z</time></trkpt><trkpt lat="44.46869708143297" lon="11.393991348443457"><ele>70.0</ele><time>2026-05-03T13:50:20.999Z</time></trkpt><trkpt lat="44.46871048205431" lon="11.394165058378306"><ele>69.0</ele><time>2026-05-03T13:50:21.999Z</time></trkpt><trkpt lat="44.46874401532963" lon="11.39437386521996"><ele>68.0</ele><time>2026-05-03T13:50:22.999Z</time></trkpt><trkpt lat="44.46876058147145" lon="11.394575205614867"><ele>67.5</ele><time>2026-05-03T13:50:23.999Z</time></trkpt><trkpt lat="44.46874807632481" lon="11.394754053562181"><ele>67.0</ele><time>2026-05-03T13:50:24.999Z</time></trkpt><trkpt lat="44.46870117747211" lon="11.394923585394643"><ele>66.5</ele><time>2026-05-03T13:50:25.999Z</time></trkpt><trkpt lat="44.46863317130138" lon="11.39507516527392"><ele>66.0</ele><time>2026-05-03T13:50:26.999Z</time></trkpt><trkpt lat="44.468506536266275" lon="11.395181372742211"><ele>66.0</ele><time>2026-05-03T13:50:27.999Z</time></trkpt><trkpt lat="44.46836568130455" lon="11.395270688433236"><ele>66.0</ele><time>2026-05-03T13:50:28.999Z</time></trkpt><trkpt lat="44.46823225924305" lon="11.395355152235515"><ele>66.0</ele><time>2026-05-03T13:50:29.999Z</time></trkpt><trkpt lat="44.46810809473901" lon="11.395461398126335"><ele>66.0</ele><time>2026-05-03T13:50:30.999Z</time></trkpt><trkpt lat="44.467981737903905" lon="11.395573344567252"><ele>67.75</ele><time>2026-05-03T13:50:31.999Z</time></trkpt><trkpt lat="44.4678608933409" lon="11.395671905546507"><ele>69.5</ele><time>2026-05-03T13:50:32.999Z</time></trkpt><trkpt lat="44.46774799370425" lon="11.395764277646585"><ele>71.25</ele><time>2026-05-03T13:50:33.999Z</time></trkpt><trkpt lat="44.46764270628006" lon="11.395852660779099"><ele>73.0</ele><time>2026-05-03T13:50:34.999Z</time></trkpt><trkpt lat="44.46754787395476" lon="11.395934284901074"><ele>73.0</ele><time>2026-05-03T13:50:35.999Z</time></trkpt><trkpt lat="44.467458212006825" lon="11.396006852928181"><ele>73.0</ele><time>2026-05-03T13:50:36.999Z</time></trkpt><trkpt lat="44.467378041017604" lon="11.39607201048635"><ele>73.0</ele><time>2026-05-03T13:50:37.999Z</time></trkpt><trkpt lat="44.46729409409381" lon="11.396135413468016"><ele>73.0</ele><time>2026-05-03T13:50:38.999Z</time></trkpt><trkpt lat="44.46721526241303" lon="11.396195810313474"><ele>73.0</ele><time>2026-05-03T13:50:39.999Z</time></trkpt><trkpt lat="44.46714021784839" lon="11.396256894975595"><ele>73.0</ele><time>2026-05-03T13:50:40.999Z</time></trkpt><trkpt lat="44.46706944189836" lon="11.39631410075595"><ele>73.0</ele><time>2026-05-03T13:50:41.999Z</time></trkpt><trkpt lat="44.46699798743506" lon="11.39636961552573"><ele>73.0</ele><time>2026-05-03T13:50:42.999Z</time></trkpt><trkpt lat="44.466928684151235" lon="11.396426038396985"><ele>73.0</ele><time>2026-05-03T13:50:43.999Z</time></trkpt><trkpt lat="44.46686503218849" lon="11.396480357469152"><ele>73.0</ele><time>2026-05-03T13:50:44.999Z</time></trkpt><trkpt lat="44.46679549389393" lon="11.396537029716809"><ele>73.0</ele><time>2026-05-03T13:50:45.999Z</time></trkpt><trkpt lat="44.4667266147101" lon="11.396584424545118"><ele>73.0</ele><time>2026-05-03T13:50:46.999Z</time></trkpt><trkpt lat="44.46665471876669" lon="11.396639614137749"><ele>73.0</ele><time>2026-05-03T13:50:47.999Z</time></trkpt><trkpt lat="44.46658370554618" lon="11.396692527594793"><ele>73.0</ele><time>2026-05-03T13:50:48.999Z</time></trkpt><trkpt lat="44.46652099712315" lon="11.396748836467035"><ele>73.0</ele><time>2026-05-03T13:50:49.999Z</time></trkpt><trkpt lat="44.466459816639194" lon="11.396798082857076"><ele>73.0</ele><time>2026-05-03T13:50:50.999Z</time></trkpt><trkpt lat="44.46637433107977" lon="11.396882664379113"><ele>73.0</ele><time>2026-05-03T13:50:52.999Z</time></trkpt><trkpt lat="44.46631521052447" lon="11.39694447168063"><ele>73.66666666666666</ele><time>2026-05-03T13:50:55.999Z</time></trkpt><trkpt lat="44.46625277923814" lon="11.397024100625844"><ele>74.33333333333333</ele><time>2026-05-03T13:51:15.999Z</time></trkpt><trkpt lat="44.466199666037234" lon="11.39708726605534"><ele>75.0</ele><time>2026-05-03T13:51:16.999Z</time></trkpt><trkpt lat="44.4661458463912" lon="11.397158751755224"><ele>75.66666666666667</ele><time>2026-05-03T13:51:17.999Z</time></trkpt><trkpt lat="44.46608625107718" lon="11.397237266246671"><ele>76.33333333333334</ele><time>2026-05-03T13:51:18.999Z</time></trkpt><trkpt lat="44.466029320568516" lon="11.397314223176986"><ele>77.0</ele><time>2026-05-03T13:51:19.999Z</time></trkpt><trkpt lat="44.46596691738401" lon="11.397406716247334"><ele>77.0</ele><time>2026-05-03T13:51:20.999Z</time></trkpt><trkpt lat="44.46590078315515" lon="11.397508080246537"><ele>77.0</ele><time>2026-05-03T13:51:21.999Z</time></trkpt><trkpt lat="44.46582460913997" lon="11.397620002079801"><ele>77.0</ele><time>2026-05-03T13:51:22.999Z</time></trkpt><trkpt lat="44.46574571945567" lon="11.397726055854648"><ele>77.0</ele><time>2026-05-03T13:51:23.999Z</time></trkpt><trkpt lat="44.46567124780147" lon="11.39783726925812"><ele>77.0</ele><time>2026-05-03T13:51:24.999Z</time></trkpt><trkpt lat="44.46558722948857" lon="11.397960210884284"><ele>77.25</ele><time>2026-05-03T13:51:25.999Z</time></trkpt><trkpt lat="44.465497917795794" lon="11.398087208376646"><ele>77.5</ele><time>2026-05-03T13:51:26.999Z</time></trkpt><trkpt lat="44.465415819640036" lon="11.398219015945628"><ele>77.75</ele><time>2026-05-03T13:51:27.999Z</time></trkpt><trkpt lat="44.465326580288135" lon="11.398350562411347"><ele>78.0</ele><time>2026-05-03T13:51:28.999Z</time></trkpt><trkpt lat="44.465238995923116" lon="11.398487265425896"><ele>77.75</ele><time>2026-05-03T13:51:29.999Z</time></trkpt><trkpt lat="44.46515670753042" lon="11.398618789248996"><ele>77.5</ele><time>2026-05-03T13:51:30.999Z</time></trkpt><trkpt lat="44.4650717426068" lon="11.398743125047536"><ele>77.25</ele><time>2026-05-03T13:51:31.999Z</time></trkpt><trkpt lat="44.4649954686854" lon="11.398857709704394"><ele>77.0</ele><time>2026-05-03T13:51:32.998Z</time></trkpt><trkpt lat="44.46492509621667" lon="11.39896533814234"><ele>77.0</ele><time>2026-05-03T13:51:33.998Z</time></trkpt><trkpt lat="44.464855565064155" lon="11.39907565503924"><ele>77.0</ele><time>2026-05-03T13:51:34.998Z</time></trkpt><trkpt lat="44.46478239224567" lon="11.399188729081661"><ele>77.0</ele><time>2026-05-03T13:51:35.998Z</time></trkpt><trkpt lat="44.464716381798986" lon="11.39931012911564"><ele>77.0</ele><time>2026-05-03T13:51:36.998Z</time></trkpt><trkpt lat="44.46465050285041" lon="11.399428702906562"><ele>77.0</ele><time>2026-05-03T13:51:37.998Z</time></trkpt><trkpt lat="44.46459158239106" lon="11.399540201622841"><ele>77.5</ele><time>2026-05-03T13:51:38.998Z</time></trkpt><trkpt lat="44.464538599711574" lon="11.399652471413104"><ele>78.0</ele><time>2026-05-03T13:51:39.998Z</time></trkpt><trkpt lat="44.4644874669004" lon="11.399756078800849"><ele>78.5</ele><time>2026-05-03T13:51:40.998Z</time></trkpt><trkpt lat="44.4644374889009" lon="11.399851378155644"><ele>79.0</ele><time>2026-05-03T13:51:41.998Z</time></trkpt><trkpt lat="44.464387364605095" lon="11.399952370278742"><ele>79.5</ele><time>2026-05-03T13:51:42.998Z</time></trkpt><trkpt lat="44.46434153757996" lon="11.400046280305412"><ele>80.0</ele><time>2026-05-03T13:51:43.998Z</time></trkpt><trkpt lat="44.464306424179206" lon="11.400125435695028"><ele>80.0</ele><time>2026-05-03T13:51:44.998Z</time></trkpt><trkpt lat="44.46422714991976" lon="11.400200039315106"><ele>80.0</ele><time>2026-05-03T13:51:46.998Z</time></trkpt><trkpt lat="44.46416391286094" lon="11.40016466948115"><ele>80.0</ele><time>2026-05-03T13:51:47.998Z</time></trkpt><trkpt lat="44.464093540361425" lon="11.400088228402955"><ele>80.0</ele><time>2026-05-03T13:51:48.999Z</time></trkpt><trkpt lat="44.46399713948251" lon="11.399953287353965"><ele>80.0</ele><time>2026-05-03T13:51:49.999Z</time></trkpt><trkpt lat="44.463876969937004" lon="11.399831196632258"><ele>81.0</ele><time>2026-05-03T13:51:50.999Z</time></trkpt><trkpt lat="44.46376376093057" lon="11.399709316616573"><ele>82.0</ele><time>2026-05-03T13:51:51.999Z</time></trkpt><trkpt lat="44.46363159059777" lon="11.399560019388261"><ele>83.0</ele><time>2026-05-03T13:51:52.999Z</time></trkpt><trkpt lat="44.46349674795249" lon="11.399411153124825"><ele>83.66666666666667</ele><time>2026-05-03T13:51:53.999Z</time></trkpt><trkpt lat="44.463360799924125" lon="11.399263944491198"><ele>84.33333333333333</ele><time>2026-05-03T13:51:54.999Z</time></trkpt><trkpt lat="44.46321595637103" lon="11.399107100509173"><ele>85.0</ele><time>2026-05-03T13:51:55.999Z</time></trkpt><trkpt lat="44.46306615505578" lon="11.398940700792684"><ele>85.33333333333333</ele><time>2026-05-03T13:51:56.999Z</time></trkpt><trkpt lat="44.46290813663976" lon="11.398763647724785"><ele>85.66666666666667</ele><time>2026-05-03T13:51:57.999Z</time></trkpt><trkpt lat="44.46275317691246" lon="11.398592397881561"><ele>86.0</ele><time>2026-05-03T13:51:58.999Z</time></trkpt><trkpt lat="44.46259712631652" lon="11.398416973740103"><ele>86.0</ele><time>2026-05-03T13:51:59.999Z</time></trkpt><trkpt lat="44.462444654794126" lon="11.39824281302838"><ele>86.0</ele><time>2026-05-03T13:52:00.999Z</time></trkpt><trkpt lat="44.46229065326828" lon="11.39806229628965"><ele>86.0</ele><time>2026-05-03T13:52:01.999Z</time></trkpt><trkpt lat="44.462153307077465" lon="11.397856791775917"><ele>87.33333333333334</ele><time>2026-05-03T13:52:02.999Z</time></trkpt><trkpt lat="44.46200243015999" lon="11.397668054446495"><ele>88.66666666666667</ele><time>2026-05-03T13:52:03.999Z</time></trkpt><trkpt lat="44.46187567172289" lon="11.397448527543137"><ele>90.0</ele><time>2026-05-03T13:52:04.999Z</time></trkpt><trkpt lat="44.461740187684825" lon="11.39723527109951"><ele>91.33333333333333</ele><time>2026-05-03T13:52:05.999Z</time></trkpt><trkpt lat="44.46160596965253" lon="11.39702286542342"><ele>92.66666666666666</ele><time>2026-05-03T13:52:06.999Z</time></trkpt><trkpt lat="44.46146180740052" lon="11.396820478636604"><ele>94.0</ele><time>2026-05-03T13:52:07.999Z</time></trkpt><trkpt lat="44.46132619708563" lon="11.396603320964926"><ele>96.0</ele><time>2026-05-03T13:52:08.999Z</time></trkpt><trkpt lat="44.46118894548965" lon="11.396392725010024"><ele>98.0</ele><time>2026-05-03T13:52:09.999Z</time></trkpt><trkpt lat="44.461061121159304" lon="11.396194241008535"><ele>100.0</ele><time>2026-05-03T13:52:10.999Z</time></trkpt><trkpt lat="44.460948120563486" lon="11.396013990336387"><ele>100.0</ele><time>2026-05-03T13:52:11.999Z</time></trkpt><trkpt lat="44.46082990447649" lon="11.39585214653146"><ele>100.0</ele><time>2026-05-03T13:52:12.999Z</time></trkpt><trkpt lat="44.46068993383071" lon="11.395704940027732"><ele>100.0</ele><time>2026-05-03T13:52:13.999Z</time></trkpt><trkpt lat="44.460529572235366" lon="11.395553952767104"><ele>99.66666666666667</ele><time>2026-05-03T13:52:14.999Z</time></trkpt><trkpt lat="44.460354673711045" lon="11.395413642720888"><ele>99.33333333333334</ele><time>2026-05-03T13:52:15.999Z</time></trkpt><trkpt lat="44.46018202543921" lon="11.395277312693663"><ele>99.0</ele><time>2026-05-03T13:52:16.999Z</time></trkpt><trkpt lat="44.46000832986382" lon="11.395142211797877"><ele>99.0</ele><time>2026-05-03T13:52:17.999Z</time></trkpt><trkpt lat="44.459823906833904" lon="11.395010781576362"><ele>99.0</ele><time>2026-05-03T13:52:18.999Z</time></trkpt><trkpt lat="44.45964829116548" lon="11.394885839717828"><ele>99.0</ele><time>2026-05-03T13:52:19.999Z</time></trkpt><trkpt lat="44.45948745565133" lon="11.394771302548591"><ele>99.66666666666666</ele><time>2026-05-03T13:52:20.999Z</time></trkpt><trkpt lat="44.45934002212326" lon="11.39466094324101"><ele>100.33333333333333</ele><time>2026-05-03T13:52:21.999Z</time></trkpt><trkpt lat="44.459211016993265" lon="11.394560404388226"><ele>101.0</ele><time>2026-05-03T13:52:22.999Z</time></trkpt><trkpt lat="44.45908752445612" lon="11.394466439832943"><ele>101.0</ele><time>2026-05-03T13:52:23.999Z</time></trkpt><trkpt lat="44.458978613898914" lon="11.394380383827196"><ele>101.0</ele><time>2026-05-03T13:52:24.999Z</time></trkpt><trkpt lat="44.458879710975154" lon="11.394311095844179"><ele>101.0</ele><time>2026-05-03T13:52:25.999Z</time></trkpt><trkpt lat="44.45878293107257" lon="11.394276519890978"><ele>101.0</ele><time>2026-05-03T13:52:26.999Z</time></trkpt><trkpt lat="44.45868550078771" lon="11.394287610066247"><ele>101.0</ele><time>2026-05-03T13:52:27.999Z</time></trkpt><trkpt lat="44.45859286455848" lon="11.394347087587374"><ele>102.0</ele><time>2026-05-03T13:52:28.999Z</time></trkpt><trkpt lat="44.45850666281811" lon="11.394447291308628"><ele>103.0</ele><time>2026-05-03T13:52:29.999Z</time></trkpt><trkpt lat="44.458392902548844" lon="11.394532328116119"><ele>104.0</ele><time>2026-05-03T13:52:30.999Z</time></trkpt><trkpt lat="44.45825534561402" lon="11.39465523219793"><ele>105.0</ele><time>2026-05-03T13:52:31.999Z</time></trkpt><trkpt lat="44.45810390630942" lon="11.394747145033504"><ele>107.66666666666666</ele><time>2026-05-03T13:52:32.999Z</time></trkpt><trkpt lat="44.45794029213032" lon="11.394808984972112"><ele>110.33333333333333</ele><time>2026-05-03T13:52:33.999Z</time></trkpt><trkpt lat="44.457786369428234" lon="11.394824911701273"><ele>113.0</ele><time>2026-05-03T13:52:34.999Z</time></trkpt><trkpt lat="44.45764586417502" lon="11.394805844751163"><ele>113.0</ele><time>2026-05-03T13:52:35.999Z</time></trkpt><trkpt lat="44.45749433799286" lon="11.394748216190294"><ele>113.0</ele><time>2026-05-03T13:52:36.999Z</time></trkpt><trkpt lat="44.457336816134806" lon="11.394642256690725"><ele>113.0</ele><time>2026-05-03T13:52:37.999Z</time></trkpt><trkpt lat="44.45718505517651" lon="11.394530316540054"><ele>113.33333333333333</ele><time>2026-05-03T13:52:38.999Z</time></trkpt><trkpt lat="44.45702171620489" lon="11.394427834539455"><ele>113.66666666666666</ele><time>2026-05-03T13:52:39.999Z</time></trkpt><trkpt lat="44.45687217200295" lon="11.394307263919794"><ele>114.0</ele><time>2026-05-03T13:52:40.999Z</time></trkpt><trkpt lat="44.45672072729093" lon="11.3941810318656"><ele>114.0</ele><time>2026-05-03T13:52:41.999Z</time></trkpt><trkpt lat="44.45656624873665" lon="11.394061228868212"><ele>114.0</ele><time>2026-05-03T13:52:42.999Z</time></trkpt><trkpt lat="44.45641162894999" lon="11.393943670289488"><ele>114.0</ele><time>2026-05-03T13:52:43.999Z</time></trkpt><trkpt lat="44.456249031637455" lon="11.393832508783767"><ele>117.33333333333334</ele><time>2026-05-03T13:52:44.999Z</time></trkpt><trkpt lat="44.45607542258287" lon="11.393729127250365"><ele>120.66666666666667</ele><time>2026-05-03T13:52:45.999Z</time></trkpt><trkpt lat="44.455896230331945" lon="11.393637067773707"><ele>124.0</ele><time>2026-05-03T13:52:46.999Z</time></trkpt><trkpt lat="44.45572030494734" lon="11.393546393237896"><ele>124.0</ele><time>2026-05-03T13:52:47.999Z</time></trkpt><trkpt lat="44.455537753844865" lon="11.393452645921906"><ele>124.0</ele><time>2026-05-03T13:52:48.999Z</time></trkpt><trkpt lat="44.45538082344992" lon="11.393369058084412"><ele>124.0</ele><time>2026-05-03T13:52:49.999Z</time></trkpt><trkpt lat="44.45525835337836" lon="11.393300420112585"><ele>125.0</ele><time>2026-05-03T13:52:50.999Z</time></trkpt><trkpt lat="44.4551483883173" lon="11.39322607126058"><ele>126.0</ele><time>2026-05-03T13:52:51.999Z</time></trkpt><trkpt lat="44.455045154376265" lon="11.393130747122227"><ele>127.0</ele><time>2026-05-03T13:52:52.999Z</time></trkpt><trkpt lat="44.454982399095876" lon="11.392974118608917"><ele>128.0</ele><time>2026-05-03T13:52:53.999Z</time></trkpt><trkpt lat="44.454914655839744" lon="11.392821085626686"><ele>130.33333333333331</ele><time>2026-05-03T13:52:54.999Z</time></trkpt><trkpt lat="44.45481979166714" lon="11.392659757852146"><ele>132.66666666666666</ele><time>2026-05-03T13:52:55.999Z</time></trkpt><trkpt lat="44.454743083891884" lon="11.392477183506905"><ele>135.0</ele><time>2026-05-03T13:52:56.999Z</time></trkpt><trkpt lat="44.4546547252633" lon="11.392301607577824"><ele>138.25</ele><time>2026-05-03T13:52:57.999Z</time></trkpt><trkpt lat="44.45457857856746" lon="11.39211764796553"><ele>141.5</ele><time>2026-05-03T13:52:58.999Z</time></trkpt><trkpt lat="44.454497577639636" lon="11.39195163125528"><ele>144.75</ele><time>2026-05-03T13:52:59.999Z</time></trkpt><trkpt lat="44.454433777597885" lon="11.391811154488611"><ele>148.0</ele><time>2026-05-03T13:53:00.999Z</time></trkpt><trkpt lat="44.45437439096338" lon="11.391695817973783"><ele>148.0</ele><time>2026-05-03T13:53:01.999Z</time></trkpt><trkpt lat="44.454398191640806" lon="11.391555295089637"><ele>148.0</ele><time>2026-05-03T13:53:02.999Z</time></trkpt><trkpt lat="44.454454206114306" lon="11.391440702395775"><ele>148.0</ele><time>2026-05-03T13:53:03.999Z</time></trkpt><trkpt lat="44.45449342070159" lon="11.391279100354442"><ele>148.0</ele><time>2026-05-03T13:53:04.999Z</time></trkpt><trkpt lat="44.45452188128409" lon="11.391146562164257"><ele>148.0</ele><time>2026-05-03T13:53:05.999Z</time></trkpt><trkpt lat="44.45449364245111" lon="11.39101231251525"><ele>148.5</ele><time>2026-05-03T13:53:06.999Z</time></trkpt><trkpt lat="44.45444456096465" lon="11.390873451606886"><ele>149.0</ele><time>2026-05-03T13:53:07.999Z</time></trkpt><trkpt lat="44.4543649441446" lon="11.390739865181178"><ele>149.5</ele><time>2026-05-03T13:53:08.999Z</time></trkpt><trkpt lat="44.45426582607395" lon="11.39061199750873"><ele>150.0</ele><time>2026-05-03T13:53:09.999Z</time></trkpt><trkpt lat="44.45417607250524" lon="11.390466564683623"><ele>150.0</ele><time>2026-05-03T13:53:10.999Z</time></trkpt><trkpt lat="44.45407284547491" lon="11.39032125140919"><ele>150.0</ele><time>2026-05-03T13:53:11.999Z</time></trkpt><trkpt lat="44.453945509115734" lon="11.390192607688942"><ele>150.0</ele><time>2026-05-03T13:53:12.999Z</time></trkpt><trkpt lat="44.45379734473116" lon="11.390079992792998"><ele>153.33333333333334</ele><time>2026-05-03T13:53:13.999Z</time></trkpt><trkpt lat="44.45362727719712" lon="11.38994697088647"><ele>156.66666666666669</ele><time>2026-05-03T13:53:14.999Z</time></trkpt><trkpt lat="44.45346711557749" lon="11.38980420695447"><ele>160.0</ele><time>2026-05-03T13:53:15.999Z</time></trkpt><trkpt lat="44.45330441739037" lon="11.389685067963208"><ele>160.33333333333334</ele><time>2026-05-03T13:53:16.999Z</time></trkpt><trkpt lat="44.45313635656417" lon="11.38953327577072"><ele>160.66666666666666</ele><time>2026-05-03T13:53:17.999Z</time></trkpt><trkpt lat="44.452968216119295" lon="11.38937810987676"><ele>161.0</ele><time>2026-05-03T13:53:18.999Z</time></trkpt><trkpt lat="44.45280539336825" lon="11.389233768912707"><ele>163.0</ele><time>2026-05-03T13:53:19.999Z</time></trkpt><trkpt lat="44.452657488051436" lon="11.389101840051627"><ele>165.0</ele><time>2026-05-03T13:53:20.999Z</time></trkpt><trkpt lat="44.452530217838984" lon="11.388986541457834"><ele>167.0</ele><time>2026-05-03T13:53:21.999Z</time></trkpt><trkpt lat="44.45242103093049" lon="11.388878679396166"><ele>166.8</ele><time>2026-05-03T13:53:22.999Z</time></trkpt><trkpt lat="44.45232479775784" lon="11.388793135105677"><ele>166.6</ele><time>2026-05-03T13:53:23.999Z</time></trkpt><trkpt lat="44.45223948417027" lon="11.38872055005291"><ele>166.4</ele><time>2026-05-03T13:53:24.999Z</time></trkpt><trkpt lat="44.452146403500485" lon="11.388666770868257"><ele>166.20000000000002</ele><time>2026-05-03T13:53:25.999Z</time></trkpt><trkpt lat="44.45203716702516" lon="11.388631572106029"><ele>166.0</ele><time>2026-05-03T13:53:26.999Z</time></trkpt><trkpt lat="44.451917645507976" lon="11.388619504772334"><ele>165.0</ele><time>2026-05-03T13:53:27.999Z</time></trkpt><trkpt lat="44.45178473380448" lon="11.388592989372984"><ele>164.0</ele><time>2026-05-03T13:53:28.999Z</time></trkpt><trkpt lat="44.451657960235366" lon="11.388560903310553"><ele>163.0</ele><time>2026-05-03T13:53:29.999Z</time></trkpt><trkpt lat="44.451525344954156" lon="11.388520601255378"><ele>162.0</ele><time>2026-05-03T13:53:30.999Z</time></trkpt><trkpt lat="44.45137443632694" lon="11.388481301538318"><ele>162.0</ele><time>2026-05-03T13:53:31.999Z</time></trkpt><trkpt lat="44.451221562241166" lon="11.388430978709023"><ele>162.0</ele><time>2026-05-03T13:53:32.999Z</time></trkpt><trkpt lat="44.45107397493687" lon="11.388388667710943"><ele>162.0</ele><time>2026-05-03T13:53:33.999Z</time></trkpt><trkpt lat="44.450938477359195" lon="11.388350974267942"><ele>162.0</ele><time>2026-05-03T13:53:34.999Z</time></trkpt><trkpt lat="44.45079712562854" lon="11.388327143881448"><ele>162.0</ele><time>2026-05-03T13:53:35.999Z</time></trkpt><trkpt lat="44.450670100279424" lon="11.388312408922157"><ele>162.0</ele><time>2026-05-03T13:53:36.999Z</time></trkpt><trkpt lat="44.45054427772224" lon="11.388321332903232"><ele>162.0</ele><time>2026-05-03T13:53:37.999Z</time></trkpt><trkpt lat="44.45042436208211" lon="11.388367696626942"><ele>162.0</ele><time>2026-05-03T13:53:38.999Z</time></trkpt><trkpt lat="44.45029850960165" lon="11.388454350049411"><ele>164.33333333333334</ele><time>2026-05-03T13:53:39.999Z</time></trkpt><trkpt lat="44.450166445288666" lon="11.388454723731263"><ele>166.66666666666669</ele><time>2026-05-03T13:53:40.999Z</time></trkpt><trkpt lat="44.45001883720344" lon="11.388442290975226"><ele>169.0</ele><time>2026-05-03T13:53:41.998Z</time></trkpt><trkpt lat="44.449842888107206" lon="11.388423620365522"><ele>169.0</ele><time>2026-05-03T13:53:42.998Z</time></trkpt><trkpt lat="44.44967976371069" lon="11.388361916687286"><ele>169.0</ele><time>2026-05-03T13:53:43.998Z</time></trkpt><trkpt lat="44.44951632282626" lon="11.388276945609233"><ele>169.0</ele><time>2026-05-03T13:53:44.998Z</time></trkpt><trkpt lat="44.449316010591104" lon="11.388214397024871"><ele>171.33333333333334</ele><time>2026-05-03T13:53:45.998Z</time></trkpt><trkpt lat="44.4490945664432" lon="11.388172495692901"><ele>173.66666666666666</ele><time>2026-05-03T13:53:46.998Z</time></trkpt><trkpt lat="44.448905157670254" lon="11.388173039645388"><ele>176.0</ele><time>2026-05-03T13:53:47.998Z</time></trkpt><trkpt lat="44.44873484957158" lon="11.388168290694086"><ele>178.66666666666666</ele><time>2026-05-03T13:53:48.998Z</time></trkpt><trkpt lat="44.448552763987855" lon="11.388132289850954"><ele>181.33333333333334</ele><time>2026-05-03T13:53:49.998Z</time></trkpt><trkpt lat="44.44838795294572" lon="11.38811839816315"><ele>184.0</ele><time>2026-05-03T13:53:50.998Z</time></trkpt><trkpt lat="44.448211800099266" lon="11.388090961276175"><ele>184.0</ele><time>2026-05-03T13:53:51.998Z</time></trkpt><trkpt lat="44.448061119437384" lon="11.3880562479273"><ele>184.0</ele><time>2026-05-03T13:53:52.998Z</time></trkpt><trkpt lat="44.44789942193202" lon="11.388020438659938"><ele>184.0</ele><time>2026-05-03T13:53:53.998Z</time></trkpt><trkpt lat="44.4477442423584" lon="11.387998512802142"><ele>182.66666666666669</ele><time>2026-05-03T13:53:54.999Z</time></trkpt><trkpt lat="44.44758296174535" lon="11.387999304168195"><ele>181.33333333333334</ele><time>2026-05-03T13:53:55.999Z</time></trkpt><trkpt lat="44.44742744915439" lon="11.388014478161587"><ele>180.0</ele><time>2026-05-03T13:53:56.999Z</time></trkpt><trkpt lat="44.447252605542445" lon="11.388046954695058"><ele>182.75</ele><time>2026-05-03T13:53:57.999Z</time></trkpt><trkpt lat="44.447107674474886" lon="11.388059074397955"><ele>185.5</ele><time>2026-05-03T13:53:58.999Z</time></trkpt><trkpt lat="44.446964830649996" lon="11.388029210166136"><ele>188.25</ele><time>2026-05-03T13:53:59.999Z</time></trkpt><trkpt lat="44.446811746460334" lon="11.3879909974101"><ele>191.0</ele><time>2026-05-03T13:54:00.999Z</time></trkpt><trkpt lat="44.446664345476776" lon="11.3879397231577"><ele>191.0</ele><time>2026-05-03T13:54:01.999Z</time></trkpt><trkpt lat="44.446532160602175" lon="11.38786282302409"><ele>191.0</ele><time>2026-05-03T13:54:02.999Z</time></trkpt><trkpt lat="44.446414412374" lon="11.387728224401927"><ele>191.0</ele><time>2026-05-03T13:54:03.999Z</time></trkpt><trkpt lat="44.446270094394016" lon="11.387588649284465"><ele>195.33333333333331</ele><time>2026-05-03T13:54:04.999Z</time></trkpt><trkpt lat="44.44609247583882" lon="11.387456849480568"><ele>199.66666666666666</ele><time>2026-05-03T13:54:05.999Z</time></trkpt><trkpt lat="44.445946178780055" lon="11.387386438493557"><ele>204.0</ele><time>2026-05-03T13:54:06.999Z</time></trkpt><trkpt lat="44.445813765185875" lon="11.387259184363282"><ele>205.0</ele><time>2026-05-03T13:54:07.999Z</time></trkpt><trkpt lat="44.44567787949356" lon="11.387117084529747"><ele>206.0</ele><time>2026-05-03T13:54:08.999Z</time></trkpt><trkpt lat="44.44556476833729" lon="11.3869807106829"><ele>207.0</ele><time>2026-05-03T13:54:09.999Z</time></trkpt><trkpt lat="44.445452389688015" lon="11.38688030197898"><ele>207.0</ele><time>2026-05-03T13:54:10.999Z</time></trkpt><trkpt lat="44.445356161387934" lon="11.386787603285653"><ele>207.0</ele><time>2026-05-03T13:54:11.999Z</time></trkpt><trkpt lat="44.44525449331573" lon="11.386744627837883"><ele>207.0</ele><time>2026-05-03T13:54:12.999Z</time></trkpt><trkpt lat="44.445133468427365" lon="11.38674999253159"><ele>207.0</ele><time>2026-05-03T13:54:13.999Z</time></trkpt><trkpt lat="44.444993565536535" lon="11.386779794045454"><ele>207.0</ele><time>2026-05-03T13:54:14.999Z</time></trkpt><trkpt lat="44.44487419158822" lon="11.386787897464524"><ele>207.0</ele><time>2026-05-03T13:54:15.999Z</time></trkpt><trkpt lat="44.444780624629814" lon="11.386759494159842"><ele>207.0</ele><time>2026-05-03T13:54:16.999Z</time></trkpt><trkpt lat="44.44468722121933" lon="11.386646788377037"><ele>207.0</ele><time>2026-05-03T13:54:17.999Z</time></trkpt><trkpt lat="44.44454325525914" lon="11.386518423345025"><ele>207.33333333333331</ele><time>2026-05-03T13:54:18.999Z</time></trkpt><trkpt lat="44.44439257357613" lon="11.386396191788005"><ele>207.66666666666666</ele><time>2026-05-03T13:54:19.999Z</time></trkpt><trkpt lat="44.444261034304176" lon="11.386284478363674"><ele>208.0</ele><time>2026-05-03T13:54:20.999Z</time></trkpt><trkpt lat="44.44415484122424" lon="11.386180955728284"><ele>207.99999999999997</ele><time>2026-05-03T13:54:21.999Z</time></trkpt><trkpt lat="44.44406943882394" lon="11.386110870733363"><ele>208.0</ele><time>2026-05-03T13:54:22.999Z</time></trkpt><trkpt lat="44.44400030107231" lon="11.386044916190599"><ele>208.0</ele><time>2026-05-03T13:54:23.999Z</time></trkpt><trkpt lat="44.44394094995265" lon="11.385988257038981"><ele>208.0</ele><time>2026-05-03T13:54:24.999Z</time></trkpt><trkpt lat="44.44386169811825" lon="11.385913306909591"><ele>207.99999999999997</ele><time>2026-05-03T13:54:25.999Z</time></trkpt><trkpt lat="44.44377890391834" lon="11.385856147766177"><ele>208.0</ele><time>2026-05-03T13:54:26.999Z</time></trkpt><trkpt lat="44.44369893729128" lon="11.385786603682236"><ele>210.60000000000002</ele><time>2026-05-03T13:54:27.999Z</time></trkpt><trkpt lat="44.44359575593797" lon="11.385751257607726"><ele>213.20000000000002</ele><time>2026-05-03T13:54:28.999Z</time></trkpt><trkpt lat="44.44348174248411" lon="11.385745190371118"><ele>215.8</ele><time>2026-05-03T13:54:29.999Z</time></trkpt><trkpt lat="44.44336978893047" lon="11.385755367570962"><ele>218.4</ele><time>2026-05-03T13:54:30.999Z</time></trkpt><trkpt lat="44.4432530731013" lon="11.385745215497241"><ele>221.0</ele><time>2026-05-03T13:54:31.999Z</time></trkpt><trkpt lat="44.44312203224413" lon="11.385713913109479"><ele>221.0</ele><time>2026-05-03T13:54:32.999Z</time></trkpt><trkpt lat="44.44299140012921" lon="11.38566387357973"><ele>221.0</ele><time>2026-05-03T13:54:33.999Z</time></trkpt><trkpt lat="44.44282959545474" lon="11.385607747230873"><ele>221.0</ele><time>2026-05-03T13:54:34.999Z</time></trkpt><trkpt lat="44.442652439997914" lon="11.38557903700368"><ele>224.33333333333334</ele><time>2026-05-03T13:54:35.999Z</time></trkpt><trkpt lat="44.44246476879872" lon="11.385605538519725"><ele>227.66666666666669</ele><time>2026-05-03T13:54:36.999Z</time></trkpt><trkpt lat="44.442247665218105" lon="11.38561306319074"><ele>231.0</ele><time>2026-05-03T13:54:37.999Z</time></trkpt><trkpt lat="44.44202910013496" lon="11.38555341560588"><ele>233.0</ele><time>2026-05-03T13:54:38.999Z</time></trkpt><trkpt lat="44.44185328478143" lon="11.385545894624784"><ele>235.0</ele><time>2026-05-03T13:54:39.999Z</time></trkpt><trkpt lat="44.44172621030437" lon="11.385549629170269"><ele>237.0</ele><time>2026-05-03T13:54:40.999Z</time></trkpt><trkpt lat="44.441616036216466" lon="11.38560509594246"><ele>239.0</ele><time>2026-05-03T13:54:41.999Z</time></trkpt><trkpt lat="44.4415001591177" lon="11.385692949365604"><ele>239.0</ele><time>2026-05-03T13:54:42.999Z</time></trkpt><trkpt lat="44.441388126921694" lon="11.385803208501878"><ele>239.0</ele><time>2026-05-03T13:54:43.999Z</time></trkpt><trkpt lat="44.44126924494173" lon="11.38591059584467"><ele>239.0</ele><time>2026-05-03T13:54:44.999Z</time></trkpt><trkpt lat="44.44113827169588" lon="11.38600884575946"><ele>239.0</ele><time>2026-05-03T13:54:45.999Z</time></trkpt><trkpt lat="44.44103205408842" lon="11.38609550397851"><ele>240.0</ele><time>2026-05-03T13:54:46.999Z</time></trkpt><trkpt lat="44.44094659024415" lon="11.386173705127828"><ele>241.0</ele><time>2026-05-03T13:54:47.999Z</time></trkpt><trkpt lat="44.44088423383415" lon="11.38627258241856"><ele>242.0</ele><time>2026-05-03T13:54:48.999Z</time></trkpt><trkpt lat="44.440819746989376" lon="11.386440418456584"><ele>243.0</ele><time>2026-05-03T13:54:49.999Z</time></trkpt><trkpt lat="44.44074540458136" lon="11.386650587762235"><ele>243.0</ele><time>2026-05-03T13:54:50.999Z</time></trkpt><trkpt lat="44.440642111737226" lon="11.38684315073518"><ele>243.0</ele><time>2026-05-03T13:54:51.999Z</time></trkpt><trkpt lat="44.44053311921585" lon="11.387003518004374"><ele>243.0</ele><time>2026-05-03T13:54:52.999Z</time></trkpt><trkpt lat="44.44044150923483" lon="11.387110786257736"><ele>243.0</ele><time>2026-05-03T13:54:53.999Z</time></trkpt><trkpt lat="44.44034467380268" lon="11.38719074845875"><ele>246.66666666666669</ele><time>2026-05-03T13:54:54.999Z</time></trkpt><trkpt lat="44.440216743521695" lon="11.387237926328424"><ele>250.33333333333334</ele><time>2026-05-03T13:54:55.999Z</time></trkpt><trkpt lat="44.44007476913785" lon="11.387333530001703"><ele>254.0</ele><time>2026-05-03T13:54:56.999Z</time></trkpt><trkpt lat="44.43990371101143" lon="11.387412014122578"><ele>254.0</ele><time>2026-05-03T13:54:57.999Z</time></trkpt><trkpt lat="44.43974509292955" lon="11.387492348902285"><ele>254.0</ele><time>2026-05-03T13:54:58.999Z</time></trkpt><trkpt lat="44.43959394644052" lon="11.387567441537053"><ele>254.0</ele><time>2026-05-03T13:54:59.999Z</time></trkpt><trkpt lat="44.439447626235484" lon="11.387632979590672"><ele>254.6</ele><time>2026-05-03T13:55:00.999Z</time></trkpt><trkpt lat="44.43932584474745" lon="11.387672935177456"><ele>255.2</ele><time>2026-05-03T13:55:01.999Z</time></trkpt><trkpt lat="44.439208815825644" lon="11.38769893664604"><ele>255.79999999999998</ele><time>2026-05-03T13:55:02.999Z</time></trkpt><trkpt lat="44.439112557218905" lon="11.387658809699897"><ele>256.4</ele><time>2026-05-03T13:55:03.999Z</time></trkpt><trkpt lat="44.43902210266057" lon="11.387614480767105"><ele>257.0</ele><time>2026-05-03T13:55:04.999Z</time></trkpt><trkpt lat="44.43895727760464" lon="11.387539200721264"><ele>257.0</ele><time>2026-05-03T13:55:05.999Z</time></trkpt><trkpt lat="44.43890268369848" lon="11.387431801610093"><ele>257.0</ele><time>2026-05-03T13:55:06.999Z</time></trkpt><trkpt lat="44.43887412196758" lon="11.387271957511583"><ele>257.0</ele><time>2026-05-03T13:55:07.999Z</time></trkpt><trkpt lat="44.438845418695934" lon="11.387089795819726"><ele>257.0</ele><time>2026-05-03T13:55:08.999Z</time></trkpt><trkpt lat="44.43879814668085" lon="11.38693596319306"><ele>255.25</ele><time>2026-05-03T13:55:09.999Z</time></trkpt><trkpt lat="44.438773704971865" lon="11.386814016188323"><ele>253.5</ele><time>2026-05-03T13:55:10.999Z</time></trkpt><trkpt lat="44.438665028624186" lon="11.386694700039643"><ele>251.75</ele><time>2026-05-03T13:55:11.999Z</time></trkpt><trkpt lat="44.43855468781094" lon="11.386585270968771"><ele>250.0</ele><time>2026-05-03T13:55:12.999Z</time></trkpt><trkpt lat="44.43843777070005" lon="11.386465188670142"><ele>249.5</ele><time>2026-05-03T13:55:13.999Z</time></trkpt><trkpt lat="44.438330427673336" lon="11.386343053475317"><ele>249.0</ele><time>2026-05-03T13:55:14.999Z</time></trkpt><trkpt lat="44.43823089028082" lon="11.386253634998148"><ele>248.5</ele><time>2026-05-03T13:55:15.999Z</time></trkpt><trkpt lat="44.43813203075762" lon="11.386211992747098"><ele>248.0</ele><time>2026-05-03T13:55:16.999Z</time></trkpt><trkpt lat="44.43802224823263" lon="11.386209753519296"><ele>249.0</ele><time>2026-05-03T13:55:17.999Z</time></trkpt><trkpt lat="44.437880974074204" lon="11.386245593405869"><ele>250.0</ele><time>2026-05-03T13:55:18.999Z</time></trkpt><trkpt lat="44.4377362488657" lon="11.386340716049682"><ele>251.0</ele><time>2026-05-03T13:55:19.999Z</time></trkpt><trkpt lat="44.43759057925679" lon="11.386444423259626"><ele>251.0</ele><time>2026-05-03T13:55:20.999Z</time></trkpt><trkpt lat="44.4374616900494" lon="11.386463740342924"><ele>251.0</ele><time>2026-05-03T13:55:21.999Z</time></trkpt><trkpt lat="44.43734430012399" lon="11.386470107431641"><ele>251.0</ele><time>2026-05-03T13:55:22.999Z</time></trkpt><trkpt lat="44.43719517042138" lon="11.386423373715283"><ele>251.0</ele><time>2026-05-03T13:55:23.999Z</time></trkpt><trkpt lat="44.43702207548517" lon="11.386355165041056"><ele>249.0</ele><time>2026-05-03T13:55:24.999Z</time></trkpt><trkpt lat="44.43684475481647" lon="11.386279155439748"><ele>247.0</ele><time>2026-05-03T13:55:25.999Z</time></trkpt><trkpt lat="44.436697026993166" lon="11.386186409392172"><ele>245.0</ele><time>2026-05-03T13:55:26.999Z</time></trkpt><trkpt lat="44.43654190624097" lon="11.386060695210807"><ele>245.0</ele><time>2026-05-03T13:55:27.999Z</time></trkpt><trkpt lat="44.43637544215838" lon="11.385914746346112"><ele>245.0</ele><time>2026-05-03T13:55:28.999Z</time></trkpt><trkpt lat="44.436205792723705" lon="11.385762087143195"><ele>245.0</ele><time>2026-05-03T13:55:29.999Z</time></trkpt><trkpt lat="44.43603757597253" lon="11.385605275070624"><ele>245.33333333333334</ele><time>2026-05-03T13:55:30.999Z</time></trkpt><trkpt lat="44.435880694103844" lon="11.385470711317177"><ele>245.66666666666669</ele><time>2026-05-03T13:55:31.999Z</time></trkpt><trkpt lat="44.43575347104608" lon="11.38529865378327"><ele>246.0</ele><time>2026-05-03T13:55:32.999Z</time></trkpt><trkpt lat="44.435608182664026" lon="11.385119293456283"><ele>248.0</ele><time>2026-05-03T13:55:33.999Z</time></trkpt><trkpt lat="44.435449801606815" lon="11.384917755588734"><ele>250.0</ele><time>2026-05-03T13:55:34.999Z</time></trkpt><trkpt lat="44.435292771377036" lon="11.384745840310364"><ele>252.0</ele><time>2026-05-03T13:55:35.999Z</time></trkpt><trkpt lat="44.435167689245134" lon="11.384572479813793"><ele>252.0</ele><time>2026-05-03T13:55:36.999Z</time></trkpt><trkpt lat="44.4350337902189" lon="11.384422505028015"><ele>252.0</ele><time>2026-05-03T13:55:37.999Z</time></trkpt><trkpt lat="44.43489861150394" lon="11.384309676533228"><ele>252.0</ele><time>2026-05-03T13:55:38.999Z</time></trkpt><trkpt lat="44.43476446153214" lon="11.384234780054415"><ele>255.0</ele><time>2026-05-03T13:55:39.999Z</time></trkpt><trkpt lat="44.43462421534847" lon="11.384197145483459"><ele>258.0</ele><time>2026-05-03T13:55:40.999Z</time></trkpt><trkpt lat="44.43446694167015" lon="11.384177851939658"><ele>261.0</ele><time>2026-05-03T13:55:41.999Z</time></trkpt><trkpt lat="44.43429831552665" lon="11.38417731180098"><ele>261.0</ele><time>2026-05-03T13:55:42.999Z</time></trkpt><trkpt lat="44.434125909922656" lon="11.38416945042061"><ele>261.0</ele><time>2026-05-03T13:55:43.999Z</time></trkpt><trkpt lat="44.43396351296167" lon="11.384142127054687"><ele>261.0</ele><time>2026-05-03T13:55:44.999Z</time></trkpt><trkpt lat="44.433811478010824" lon="11.384066675572013"><ele>262.3333333333333</ele><time>2026-05-03T13:55:45.999Z</time></trkpt><trkpt lat="44.43366496885187" lon="11.383993635045535"><ele>263.66666666666663</ele><time>2026-05-03T13:55:46.999Z</time></trkpt><trkpt lat="44.433518692299785" lon="11.383932048247344"><ele>265.0</ele><time>2026-05-03T13:55:47.999Z</time></trkpt><trkpt lat="44.43337697852159" lon="11.383836929391274"><ele>266.25</ele><time>2026-05-03T13:55:48.998Z</time></trkpt><trkpt lat="44.43324511850338" lon="11.383718474459101"><ele>267.5</ele><time>2026-05-03T13:55:49.998Z</time></trkpt><trkpt lat="44.433122055276314" lon="11.38361124545398"><ele>268.75</ele><time>2026-05-03T13:55:50.998Z</time></trkpt><trkpt lat="44.43301262432595" lon="11.383492692541399"><ele>270.0</ele><time>2026-05-03T13:55:51.998Z</time></trkpt><trkpt lat="44.432907927074574" lon="11.38335656522362"><ele>272.3333333333333</ele><time>2026-05-03T13:55:52.998Z</time></trkpt><trkpt lat="44.432802024462696" lon="11.383207965829428"><ele>274.66666666666663</ele><time>2026-05-03T13:55:53.998Z</time></trkpt><trkpt lat="44.43268341035079" lon="11.38306535675306"><ele>277.0</ele><time>2026-05-03T13:55:54.998Z</time></trkpt><trkpt lat="44.43257445622135" lon="11.382902063510304"><ele>278.5</ele><time>2026-05-03T13:55:55.998Z</time></trkpt><trkpt lat="44.43248620960447" lon="11.382732218395347"><ele>280.0</ele><time>2026-05-03T13:55:56.998Z</time></trkpt><trkpt lat="44.43239417275795" lon="11.382572064314656"><ele>281.5</ele><time>2026-05-03T13:55:57.998Z</time></trkpt><trkpt lat="44.4323269534699" lon="11.38238557304135"><ele>283.0</ele><time>2026-05-03T13:55:58.998Z</time></trkpt><trkpt lat="44.432243425764796" lon="11.382195055221878"><ele>285.0</ele><time>2026-05-03T13:55:59.998Z</time></trkpt><trkpt lat="44.43216553368977" lon="11.381998485135112"><ele>287.0</ele><time>2026-05-03T13:56:00.999Z</time></trkpt><trkpt lat="44.43206788595932" lon="11.381803547698302"><ele>289.0</ele><time>2026-05-03T13:56:01.999Z</time></trkpt><trkpt lat="44.43195772780812" lon="11.381621388068586"><ele>290.3333333333333</ele><time>2026-05-03T13:56:02.999Z</time></trkpt><trkpt lat="44.431839480024145" lon="11.381449791843378"><ele>291.6666666666667</ele><time>2026-05-03T13:56:03.999Z</time></trkpt><trkpt lat="44.43171279523874" lon="11.381290944686283"><ele>293.0</ele><time>2026-05-03T13:56:04.999Z</time></trkpt><trkpt lat="44.431584523433365" lon="11.381134791554503"><ele>296.33333333333337</ele><time>2026-05-03T13:56:05.999Z</time></trkpt><trkpt lat="44.43145100653417" lon="11.380982090920087"><ele>299.6666666666667</ele><time>2026-05-03T13:56:06.999Z</time></trkpt><trkpt lat="44.431315333620695" lon="11.380840160441148"><ele>303.0</ele><time>2026-05-03T13:56:07.999Z</time></trkpt><trkpt lat="44.43118191792988" lon="11.38072433634638"><ele>304.25</ele><time>2026-05-03T13:56:08.999Z</time></trkpt><trkpt lat="44.431055392824156" lon="11.380660723741252"><ele>305.5</ele><time>2026-05-03T13:56:09.999Z</time></trkpt><trkpt lat="44.430936736254424" lon="11.380618698861669"><ele>306.75</ele><time>2026-05-03T13:56:10.999Z</time></trkpt><trkpt lat="44.43082721809963" lon="11.38059404592072"><ele>308.0</ele><time>2026-05-03T13:56:11.999Z</time></trkpt><trkpt lat="44.43073261245577" lon="11.380566414957572"><ele>310.2</ele><time>2026-05-03T13:56:12.999Z</time></trkpt><trkpt lat="44.430664246001214" lon="11.380515874025988"><ele>312.4</ele><time>2026-05-03T13:56:13.999Z</time></trkpt><trkpt lat="44.43060055038411" lon="11.380445431715918"><ele>314.59999999999997</ele><time>2026-05-03T13:56:15.999Z</time></trkpt><trkpt lat="44.43051315967112" lon="11.380459770104444"><ele>316.8</ele><time>2026-05-03T13:56:17.999Z</time></trkpt><trkpt lat="44.4304014398795" lon="11.380518992057052"><ele>319.0</ele><time>2026-05-03T13:56:18.999Z</time></trkpt><trkpt lat="44.430250725562715" lon="11.380601210482736"><ele>319.25</ele><time>2026-05-03T13:56:19.999Z</time></trkpt><trkpt lat="44.4301170144649" lon="11.380690322492049"><ele>319.5</ele><time>2026-05-03T13:56:20.999Z</time></trkpt><trkpt lat="44.43000316636413" lon="11.380792449069986"><ele>319.75</ele><time>2026-05-03T13:56:21.999Z</time></trkpt><trkpt lat="44.429882581317464" lon="11.380915668992111"><ele>320.0</ele><time>2026-05-03T13:56:22.999Z</time></trkpt><trkpt lat="44.42975390399538" lon="11.381077172523415"><ele>322.33333333333337</ele><time>2026-05-03T13:56:23.999Z</time></trkpt><trkpt lat="44.42962673464555" lon="11.381279296001148"><ele>324.6666666666667</ele><time>2026-05-03T13:56:24.999Z</time></trkpt><trkpt lat="44.42951070714752" lon="11.381478586851879"><ele>327.0</ele><time>2026-05-03T13:56:25.999Z</time></trkpt><trkpt lat="44.429420312900525" lon="11.38164689397696"><ele>327.0</ele><time>2026-05-03T13:56:26.999Z</time></trkpt><trkpt lat="44.42932191622703" lon="11.381785936443205"><ele>327.0</ele><time>2026-05-03T13:56:27.999Z</time></trkpt><trkpt lat="44.429210414310845" lon="11.381829001682982"><ele>327.0</ele><time>2026-05-03T13:56:28.999Z</time></trkpt><trkpt lat="44.429092430459356" lon="11.381895795124354"><ele>327.0</ele><time>2026-05-03T13:56:29.999Z</time></trkpt><trkpt lat="44.42894141838756" lon="11.381929029068788"><ele>331.5</ele><time>2026-05-03T13:56:30.999Z</time></trkpt><trkpt lat="44.428800704726434" lon="11.381964655491377"><ele>336.0</ele><time>2026-05-03T13:56:31.999Z</time></trkpt><trkpt lat="44.42867409814842" lon="11.382043849829808"><ele>340.5</ele><time>2026-05-03T13:56:32.999Z</time></trkpt><trkpt lat="44.42855728589969" lon="11.382140733514923"><ele>345.0</ele><time>2026-05-03T13:56:33.999Z</time></trkpt><trkpt lat="44.42844512313429" lon="11.382177775942303"><ele>342.25</ele><time>2026-05-03T13:56:34.999Z</time></trkpt><trkpt lat="44.428324781330225" lon="11.382232737468083"><ele>339.5</ele><time>2026-05-03T13:56:35.999Z</time></trkpt><trkpt lat="44.42818905881829" lon="11.382263835148647"><ele>336.75</ele><time>2026-05-03T13:56:36.999Z</time></trkpt><trkpt lat="44.428064089025014" lon="11.38228653428892"><ele>334.0</ele><time>2026-05-03T13:56:37.999Z</time></trkpt><trkpt lat="44.427953166221336" lon="11.382290454310063"><ele>334.0</ele><time>2026-05-03T13:56:38.999Z</time></trkpt><trkpt lat="44.42785481889672" lon="11.382275998059757"><ele>334.0</ele><time>2026-05-03T13:56:39.999Z</time></trkpt><trkpt lat="44.427760845335726" lon="11.382245132153338"><ele>334.0</ele><time>2026-05-03T13:56:40.999Z</time></trkpt><trkpt lat="44.42768330976484" lon="11.382203472060676"><ele>334.0</ele><time>2026-05-03T13:56:41.999Z</time></trkpt><trkpt lat="44.42761312869854" lon="11.382107515960046"><ele>334.0</ele><time>2026-05-03T13:56:43.999Z</time></trkpt><trkpt lat="44.42761664207135" lon="11.38190752417615"><ele>337.0</ele><time>2026-05-03T13:56:45.999Z</time></trkpt><trkpt lat="44.427645448602114" lon="11.38174986493802"><ele>340.0</ele><time>2026-05-03T13:56:46.999Z</time></trkpt><trkpt lat="44.42766293979075" lon="11.38161467879032"><ele>343.0</ele><time>2026-05-03T13:56:47.999Z</time></trkpt><trkpt lat="44.42768368746688" lon="11.38138093788018"><ele>346.0</ele><time>2026-05-03T13:56:48.999Z</time></trkpt><trkpt lat="44.42766042324807" lon="11.381125938557059"><ele>348.20000000000005</ele><time>2026-05-03T13:56:49.999Z</time></trkpt><trkpt lat="44.427608058224905" lon="11.380982051817242"><ele>350.40000000000003</ele><time>2026-05-03T13:56:50.999Z</time></trkpt><trkpt lat="44.427561186819446" lon="11.380862565282358"><ele>352.6</ele><time>2026-05-03T13:56:51.999Z</time></trkpt><trkpt lat="44.42752398066169" lon="11.3807444069596"><ele>354.8</ele><time>2026-05-03T13:56:52.999Z</time></trkpt><trkpt lat="44.427498562192376" lon="11.3806365366703"><ele>357.0</ele><time>2026-05-03T13:56:53.999Z</time></trkpt><trkpt lat="44.4274803814117" lon="11.380546200299719"><ele>358.6</ele><time>2026-05-03T13:56:54.999Z</time></trkpt><trkpt lat="44.42747062419751" lon="11.380436361832647"><ele>360.20000000000005</ele><time>2026-05-03T13:56:55.999Z</time></trkpt><trkpt lat="44.42746247524675" lon="11.380312154674959"><ele>361.8</ele><time>2026-05-03T13:56:56.999Z</time></trkpt><trkpt lat="44.427455789839286" lon="11.38016366346318"><ele>363.4</ele><time>2026-05-03T13:56:57.999Z</time></trkpt><trkpt lat="44.427445606038916" lon="11.379966191083692"><ele>365.0</ele><time>2026-05-03T13:56:58.999Z</time></trkpt><trkpt lat="44.42743179734822" lon="11.379802353715785"><ele>366.25</ele><time>2026-05-03T13:56:59.999Z</time></trkpt><trkpt lat="44.42740855899423" lon="11.379641801444771"><ele>367.5</ele><time>2026-05-03T13:57:00.999Z</time></trkpt><trkpt lat="44.427369667548774" lon="11.379484126214573"><ele>368.75</ele><time>2026-05-03T13:57:01.999Z</time></trkpt><trkpt lat="44.427304598785376" lon="11.379347306438426"><ele>370.0</ele><time>2026-05-03T13:57:02.999Z</time></trkpt><trkpt lat="44.42722370395826" lon="11.379224409426843"><ele>370.0</ele><time>2026-05-03T13:57:03.999Z</time></trkpt><trkpt lat="44.42714598542368" lon="11.379120096950547"><ele>370.0</ele><time>2026-05-03T13:57:04.999Z</time></trkpt><trkpt lat="44.42705832769182" lon="11.379022792770167"><ele>370.0</ele><time>2026-05-03T13:57:05.999Z</time></trkpt><trkpt lat="44.42691734321831" lon="11.378948904080815"><ele>370.0</ele><time>2026-05-03T13:57:06.999Z</time></trkpt><trkpt lat="44.42678578782931" lon="11.378895362895745"><ele>369.25</ele><time>2026-05-03T13:57:07.999Z</time></trkpt><trkpt lat="44.42669924647548" lon="11.378813282826734"><ele>368.5</ele><time>2026-05-03T13:57:08.999Z</time></trkpt><trkpt lat="44.426702800376425" lon="11.378649775676791"><ele>367.75</ele><time>2026-05-03T13:57:09.999Z</time></trkpt><trkpt lat="44.42666378758475" lon="11.378464745808651"><ele>367.0</ele><time>2026-05-03T13:57:10.999Z</time></trkpt><trkpt lat="44.42660064327058" lon="11.378275212914772"><ele>367.0</ele><time>2026-05-03T13:57:11.999Z</time></trkpt><trkpt lat="44.42650067916719" lon="11.378065651492761"><ele>367.0</ele><time>2026-05-03T13:57:12.999Z</time></trkpt><trkpt lat="44.42640532515712" lon="11.377853965130146"><ele>367.0</ele><time>2026-05-03T13:57:13.999Z</time></trkpt><trkpt lat="44.42635455407677" lon="11.377692086145819"><ele>366.75</ele><time>2026-05-03T13:57:14.999Z</time></trkpt><trkpt lat="44.42634449395669" lon="11.37755404477964"><ele>366.5</ele><time>2026-05-03T13:57:15.999Z</time></trkpt><trkpt lat="44.4263760147643" lon="11.377436449499271"><ele>366.25</ele><time>2026-05-03T13:57:16.999Z</time></trkpt><trkpt lat="44.426468863998736" lon="11.377303027521826"><ele>366.0</ele><time>2026-05-03T13:57:17.999Z</time></trkpt><trkpt lat="44.42653009848624" lon="11.37711973327923"><ele>366.6</ele><time>2026-05-03T13:57:18.999Z</time></trkpt><trkpt lat="44.42657516546398" lon="11.376967722814966"><ele>367.20000000000005</ele><time>2026-05-03T13:57:19.999Z</time></trkpt><trkpt lat="44.42657425774696" lon="11.376826625874974"><ele>367.79999999999995</ele><time>2026-05-03T13:57:20.999Z</time></trkpt><trkpt lat="44.42655324160526" lon="11.376717855741793"><ele>368.4</ele><time>2026-05-03T13:57:21.999Z</time></trkpt><trkpt lat="44.42653778854364" lon="11.376623779307325"><ele>369.0</ele><time>2026-05-03T13:57:22.999Z</time></trkpt><trkpt lat="44.4264564598918" lon="11.37641115838949"><ele>367.5</ele><time>2026-05-03T13:57:24.999Z</time></trkpt><trkpt lat="44.42635042709721" lon="11.3763161927533"><ele>366.0</ele><time>2026-05-03T13:57:25.999Z</time></trkpt><trkpt lat="44.426218382008926" lon="11.376228304755221"><ele>364.5</ele><time>2026-05-03T13:57:26.999Z</time></trkpt><trkpt lat="44.426067618723586" lon="11.376144640834696"><ele>363.0</ele><time>2026-05-03T13:57:27.999Z</time></trkpt><trkpt lat="44.42597176518429" lon="11.376085069633488"><ele>366.0</ele><time>2026-05-03T13:57:28.999Z</time></trkpt><trkpt lat="44.42589172095552" lon="11.376060941164264"><ele>369.0</ele><time>2026-05-03T13:57:29.999Z</time></trkpt><trkpt lat="44.42581888495015" lon="11.37607247265922"><ele>372.0</ele><time>2026-05-03T13:57:30.999Z</time></trkpt><trkpt lat="44.425714336023425" lon="11.376049589922028"><ele>375.0</ele><time>2026-05-03T13:57:32.999Z</time></trkpt><trkpt lat="44.42561408680662" lon="11.376039795834435"><ele>378.0</ele><time>2026-05-03T13:57:33.999Z</time></trkpt><trkpt lat="44.42550415032563" lon="11.376022254798377"><ele>379.1666666666667</ele><time>2026-05-03T13:57:34.999Z</time></trkpt><trkpt lat="44.42542639313906" lon="11.375979282238134"><ele>380.33333333333337</ele><time>2026-05-03T13:57:35.999Z</time></trkpt><trkpt lat="44.42535836911607" lon="11.375881373423663"><ele>381.5</ele><time>2026-05-03T13:57:36.999Z</time></trkpt><trkpt lat="44.42528673379791" lon="11.37575716442758"><ele>382.6666666666667</ele><time>2026-05-03T13:57:37.999Z</time></trkpt><trkpt lat="44.42524344122088" lon="11.37567178302065"><ele>383.83333333333337</ele><time>2026-05-03T13:57:38.999Z</time></trkpt><trkpt lat="44.425198253133324" lon="11.375608803137462"><ele>385.0</ele><time>2026-05-03T13:57:39.999Z</time></trkpt><trkpt lat="44.4251258639293" lon="11.375495877979397"><ele>385.1666666666667</ele><time>2026-05-03T13:57:41.999Z</time></trkpt><trkpt lat="44.42506939095858" lon="11.375421308093296"><ele>385.33333333333337</ele><time>2026-05-03T13:57:43.999Z</time></trkpt><trkpt lat="44.425020206178175" lon="11.3753602030358"><ele>385.5</ele><time>2026-05-03T13:57:47.999Z</time></trkpt><trkpt lat="44.424951891749295" lon="11.375319147769616"><ele>385.66666666666663</ele><time>2026-05-03T13:58:14Z</time></trkpt><trkpt lat="44.424927501165314" lon="11.375193930569017"><ele>385.8333333333333</ele><time>2026-05-03T13:58:18Z</time></trkpt><trkpt lat="44.4248871519901" lon="11.37508029220783"><ele>386.0</ele><time>2026-05-03T13:58:20Z</time></trkpt><trkpt lat="44.424836230621025" lon="11.37528653037289"><ele>386.0</ele><time>2026-05-03T13:58:22Z</time></trkpt><trkpt lat="44.42475315722078" lon="11.375282986106114"><ele>386.0</ele><time>2026-05-03T13:58:24Z</time></trkpt><trkpt lat="44.42469800669032" lon="11.375214286416906"><ele>386.0</ele><time>2026-05-03T13:58:25Z</time></trkpt><trkpt lat="44.42441161149016" lon="11.375043562862066"><ele>386.0</ele><time>2026-05-03T13:58:26Z</time></trkpt><trkpt lat="44.424345725150715" lon="11.374974361175427"><ele>386.0</ele><time>2026-05-03T13:58:27Z</time></trkpt><trkpt lat="44.42429275003983" lon="11.374920344571663"><ele>386.0</ele><time>2026-05-03T13:58:28Z</time></trkpt><trkpt lat="44.4241867836958" lon="11.374809417744109"><ele>386.0</ele><time>2026-05-03T13:58:30Z</time></trkpt><trkpt lat="44.424135865785296" lon="11.374751381390892"><ele>386.0</ele><time>2026-05-03T13:58:31Z</time></trkpt><trkpt lat="44.424028738620606" lon="11.374582192415923"><ele>385.99999999999994</ele><time>2026-05-03T13:58:33Z</time></trkpt><trkpt lat="44.42399469087907" lon="11.374495423876724"><ele>386.0</ele><time>2026-05-03T13:58:35Z</time></trkpt><trkpt lat="44.42395111384781" lon="11.374381102925687"><ele>386.0</ele><time>2026-05-03T13:58:37Z</time></trkpt><trkpt lat="44.423920713231055" lon="11.374297132448953"><ele>386.0</ele><time>2026-05-03T13:58:39Z</time></trkpt><trkpt lat="44.42388642362461" lon="11.374207819428143"><ele>385.99999999999994</ele><time>2026-05-03T13:58:43Z</time></trkpt><trkpt lat="44.423857902688574" lon="11.374105247495674"><ele>386.0</ele><time>2026-05-03T13:58:50Z</time></trkpt><trkpt lat="44.423803490413405" lon="11.374046452734254"><ele>383.66666666666663</ele><time>2026-05-03T13:58:53Z</time></trkpt><trkpt lat="44.423751416139474" lon="11.37398762062007"><ele>381.3333333333333</ele><time>2026-05-03T13:58:55.999Z</time></trkpt><trkpt lat="44.423753505999684" lon="11.373826339614846"><ele>379.0</ele><time>2026-05-03T13:58:57.999Z</time></trkpt><trkpt lat="44.42367277710127" lon="11.373772318107171"><ele>376.66666666666663</ele><time>2026-05-03T13:59:00.999Z</time></trkpt><trkpt lat="44.42360659695448" lon="11.373726718367264"><ele>374.3333333333333</ele><time>2026-05-03T13:59:02.999Z</time></trkpt><trkpt lat="44.423526565515864" lon="11.373666251321952"><ele>372.0</ele><time>2026-05-03T13:59:04.999Z</time></trkpt><trkpt lat="44.423447584237266" lon="11.373613029101824"><ele>371.1666666666667</ele><time>2026-05-03T13:59:06.999Z</time></trkpt><trkpt lat="44.423379829892504" lon="11.373560761908735"><ele>370.3333333333333</ele><time>2026-05-03T13:59:09.999Z</time></trkpt><trkpt lat="44.423314744008344" lon="11.37351617340293"><ele>369.5</ele><time>2026-05-03T13:59:11.999Z</time></trkpt><trkpt lat="44.42324663454627" lon="11.373468704279809"><ele>368.66666666666663</ele><time>2026-05-03T13:59:13.999Z</time></trkpt><trkpt lat="44.42315332560602" lon="11.373405328407333"><ele>367.8333333333333</ele><time>2026-05-03T13:59:15.999Z</time></trkpt><trkpt lat="44.42307958004735" lon="11.373332377956908"><ele>367.0</ele><time>2026-05-03T13:59:17.999Z</time></trkpt><trkpt lat="44.42301127814789" lon="11.373245755499426"><ele>365.8333333333333</ele><time>2026-05-03T13:59:19.999Z</time></trkpt><trkpt lat="44.422934923969045" lon="11.37315672974994"><ele>364.66666666666663</ele><time>2026-05-03T13:59:21.999Z</time></trkpt><trkpt lat="44.42285761924026" lon="11.37307145748479"><ele>363.5</ele><time>2026-05-03T13:59:23.999Z</time></trkpt><trkpt lat="44.42279347313324" lon="11.372997512014477"><ele>362.3333333333333</ele><time>2026-05-03T13:59:25.999Z</time></trkpt><trkpt lat="44.42272440772237" lon="11.37293149741512"><ele>361.1666666666667</ele><time>2026-05-03T13:59:27.999Z</time></trkpt><trkpt lat="44.422660574127825" lon="11.372872514736601"><ele>360.0</ele><time>2026-05-03T13:59:29.999Z</time></trkpt><trkpt lat="44.42259011273331" lon="11.372814634146836"><ele>357.8333333333333</ele><time>2026-05-03T13:59:31.999Z</time></trkpt><trkpt lat="44.42251884379611" lon="11.372757325464702"><ele>355.6666666666667</ele><time>2026-05-03T13:59:33.999Z</time></trkpt><trkpt lat="44.42245680850503" lon="11.37270805383057"><ele>353.5</ele><time>2026-05-03T13:59:35.999Z</time></trkpt><trkpt lat="44.42238128877238" lon="11.37264414185018"><ele>351.33333333333337</ele><time>2026-05-03T13:59:37.999Z</time></trkpt><trkpt lat="44.4223055422848" lon="11.3725784486785"><ele>349.1666666666667</ele><time>2026-05-03T13:59:39.999Z</time></trkpt><trkpt lat="44.42222865794413" lon="11.372516840444234"><ele>347.0</ele><time>2026-05-03T13:59:41.999Z</time></trkpt><trkpt lat="44.42214848281658" lon="11.372429068695471"><ele>345.0</ele><time>2026-05-03T13:59:43.999Z</time></trkpt><trkpt lat="44.422089302937124" lon="11.37234057232666"><ele>343.0</ele><time>2026-05-03T13:59:45.999Z</time></trkpt><trkpt lat="44.42202783481752" lon="11.372212071740725"><ele>341.0</ele><time>2026-05-03T13:59:47.999Z</time></trkpt><trkpt lat="44.42198576128359" lon="11.372131306743807"><ele>339.0</ele><time>2026-05-03T13:59:49.999Z</time></trkpt><trkpt lat="44.42193426191103" lon="11.372043794829786"><ele>337.0</ele><time>2026-05-03T13:59:51.999Z</time></trkpt><trkpt lat="44.42188691889471" lon="11.371951971044872"><ele>335.0</ele><time>2026-05-03T13:59:53.999Z</time></trkpt><trkpt lat="44.42184238664237" lon="11.371860858495968"><ele>333.6666666666667</ele><time>2026-05-03T13:59:55.999Z</time></trkpt><trkpt lat="44.42180739433574" lon="11.37176280155081"><ele>332.33333333333337</ele><time>2026-05-03T13:59:58.999Z</time></trkpt><trkpt lat="44.421775794926425" lon="11.371650381249813"><ele>331.0</ele><time>2026-05-03T14:00:01.999Z</time></trkpt><trkpt lat="44.421732144116135" lon="11.3715435907755"><ele>329.6666666666667</ele><time>2026-05-03T14:00:04.999Z</time></trkpt><trkpt lat="44.42169490304163" lon="11.371471472395438"><ele>328.3333333333333</ele><time>2026-05-03T14:00:06.999Z</time></trkpt><trkpt lat="44.42164967080063" lon="11.37135285842054"><ele>327.0</ele><time>2026-05-03T14:00:09.999Z</time></trkpt><trkpt lat="44.421605555162174" lon="11.371276629715723"><ele>323.8333333333333</ele><time>2026-05-03T14:00:13Z</time></trkpt><trkpt lat="44.42154324956875" lon="11.371206540724208"><ele>320.6666666666667</ele><time>2026-05-03T14:00:17Z</time></trkpt><trkpt lat="44.42149151797018" lon="11.371140651100985"><ele>317.5</ele><time>2026-05-03T14:00:21Z</time></trkpt><trkpt lat="44.42144674304381" lon="11.371061335819286"><ele>314.33333333333337</ele><time>2026-05-03T14:00:25Z</time></trkpt><trkpt lat="44.421395370597445" lon="11.370970232136312"><ele>311.1666666666667</ele><time>2026-05-03T14:00:29Z</time></trkpt><trkpt lat="44.42135119589961" lon="11.3708974311379"><ele>308.0</ele><time>2026-05-03T14:00:32Z</time></trkpt><trkpt lat="44.421300410742354" lon="11.370788281336928"><ele>306.5</ele><time>2026-05-03T14:00:36Z</time></trkpt><trkpt lat="44.42124360460658" lon="11.370712523751392"><ele>305.0</ele><time>2026-05-03T14:00:40Z</time></trkpt><trkpt lat="44.42118710517889" lon="11.370649519572885"><ele>303.5</ele><time>2026-05-03T14:00:44Z</time></trkpt><trkpt lat="44.421123787375876" lon="11.370579012348637"><ele>302.0</ele><time>2026-05-03T14:00:46Z</time></trkpt><trkpt lat="44.421070361870186" lon="11.370497577636948"><ele>300.5</ele><time>2026-05-03T14:00:48Z</time></trkpt><trkpt lat="44.42101917592556" lon="11.37040633004889"><ele>299.0</ele><time>2026-05-03T14:00:50Z</time></trkpt><trkpt lat="44.420971337209636" lon="11.370294615162459"><ele>297.5</ele><time>2026-05-03T14:00:52Z</time></trkpt><trkpt lat="44.420919739166514" lon="11.370173960163"><ele>296.0</ele><time>2026-05-03T14:00:54Z</time></trkpt><trkpt lat="44.420878766929484" lon="11.370059643299081"><ele>294.5</ele><time>2026-05-03T14:00:56Z</time></trkpt><trkpt lat="44.42085279387094" lon="11.369970388032742"><ele>293.0</ele><time>2026-05-03T14:00:58Z</time></trkpt><trkpt lat="44.420818516451284" lon="11.369888135369118"><ele>291.5</ele><time>2026-05-03T14:01:00Z</time></trkpt><trkpt lat="44.42076905118431" lon="11.369753591142242"><ele>290.0</ele><time>2026-05-03T14:01:02Z</time></trkpt><trkpt lat="44.42072431657843" lon="11.369626203740403"><ele>287.83333333333337</ele><time>2026-05-03T14:01:04Z</time></trkpt><trkpt lat="44.420686610698404" lon="11.369511319909998"><ele>285.6666666666667</ele><time>2026-05-03T14:01:06Z</time></trkpt><trkpt lat="44.4206539656378" lon="11.369419658537494"><ele>283.5</ele><time>2026-05-03T14:01:08Z</time></trkpt><trkpt lat="44.42060989639572" lon="11.369303359390011"><ele>281.3333333333333</ele><time>2026-05-03T14:01:10Z</time></trkpt><trkpt lat="44.42058910688434" lon="11.369215621640857"><ele>279.16666666666663</ele><time>2026-05-03T14:01:11Z</time></trkpt><trkpt lat="44.420576853173415" lon="11.369099263669758"><ele>277.0</ele><time>2026-05-03T14:01:12Z</time></trkpt><trkpt lat="44.42057991163821" lon="11.368980582958049"><ele>277.0</ele><time>2026-05-03T14:01:13Z</time></trkpt><trkpt lat="44.42056497972144" lon="11.368860676728506"><ele>277.0</ele><time>2026-05-03T14:01:15Z</time></trkpt><trkpt lat="44.42046513828882" lon="11.36877791186947"><ele>277.0</ele><time>2026-05-03T14:01:36.999Z</time></trkpt><trkpt lat="44.42037894726074" lon="11.368713756871237"><ele>277.0</ele><time>2026-05-03T14:01:37.999Z</time></trkpt><trkpt lat="44.42029170333675" lon="11.368654872467246"><ele>277.0</ele><time>2026-05-03T14:01:38.999Z</time></trkpt><trkpt lat="44.42020113422025" lon="11.368622581922002"><ele>276.3333333333333</ele><time>2026-05-03T14:01:39.999Z</time></trkpt><trkpt lat="44.42011635034935" lon="11.368599732573072"><ele>275.66666666666663</ele><time>2026-05-03T14:01:40.999Z</time></trkpt><trkpt lat="44.42005063654986" lon="11.368586208681966"><ele>275.0</ele><time>2026-05-03T14:01:41.999Z</time></trkpt><trkpt lat="44.41995453083431" lon="11.368580293379784"><ele>274.3333333333333</ele><time>2026-05-03T14:01:43.999Z</time></trkpt><trkpt lat="44.419888267472246" lon="11.368563466056031"><ele>273.6666666666667</ele><time>2026-05-03T14:01:45.999Z</time></trkpt><trkpt lat="44.41979392307338" lon="11.368533058601011"><ele>273.0</ele><time>2026-05-03T14:01:47.999Z</time></trkpt><trkpt lat="44.41970491102876" lon="11.368503925185243"><ele>273.8</ele><time>2026-05-03T14:01:48.999Z</time></trkpt><trkpt lat="44.41960769122298" lon="11.368452470737962"><ele>274.6</ele><time>2026-05-03T14:01:49.999Z</time></trkpt><trkpt lat="44.41951165144097" lon="11.368390484101502"><ele>275.4</ele><time>2026-05-03T14:01:50.999Z</time></trkpt><trkpt lat="44.41942742876486" lon="11.368316445769615"><ele>276.2</ele><time>2026-05-03T14:01:51.999Z</time></trkpt><trkpt lat="44.41934101372443" lon="11.36821868483042"><ele>277.0</ele><time>2026-05-03T14:01:52.999Z</time></trkpt><trkpt lat="44.419227754627784" lon="11.368084800856998"><ele>278.6</ele><time>2026-05-03T14:01:53.999Z</time></trkpt><trkpt lat="44.41913072019939" lon="11.367954875359572"><ele>280.2</ele><time>2026-05-03T14:01:54.999Z</time></trkpt><trkpt lat="44.41906484526538" lon="11.367855993990391"><ele>281.8</ele><time>2026-05-03T14:01:55.999Z</time></trkpt><trkpt lat="44.41900599443168" lon="11.3677510513858"><ele>283.4</ele><time>2026-05-03T14:01:56.999Z</time></trkpt><trkpt lat="44.41895741081465" lon="11.367651648725786"><ele>285.0</ele><time>2026-05-03T14:01:57.999Z</time></trkpt><trkpt lat="44.418905344780285" lon="11.367537938193964"><ele>285.0</ele><time>2026-05-03T14:01:58.999Z</time></trkpt><trkpt lat="44.418858027826836" lon="11.367447008646227"><ele>285.0</ele><time>2026-05-03T14:01:59.999Z</time></trkpt><trkpt lat="44.41881228160819" lon="11.367348864754206"><ele>285.0</ele><time>2026-05-03T14:02:00.999Z</time></trkpt><trkpt lat="44.41876063605915" lon="11.367240026991835"><ele>285.0</ele><time>2026-05-03T14:02:01.999Z</time></trkpt><trkpt lat="44.41872595506531" lon="11.367144721055167"><ele>285.0</ele><time>2026-05-03T14:02:02.999Z</time></trkpt><trkpt lat="44.4186894375762" lon="11.366997710040927"><ele>285.0</ele><time>2026-05-03T14:02:03.999Z</time></trkpt><trkpt lat="44.41866521503331" lon="11.366871861728757"><ele>287.2857142857143</ele><time>2026-05-03T14:02:04.999Z</time></trkpt><trkpt lat="44.41862686885137" lon="11.366783182663792"><ele>289.57142857142856</ele><time>2026-05-03T14:02:05.999Z</time></trkpt><trkpt lat="44.418582200981625" lon="11.366713693223199"><ele>291.8571428571429</ele><time>2026-05-03T14:02:06.999Z</time></trkpt><trkpt lat="44.41853775712715" lon="11.366645904522022"><ele>294.1428571428571</ele><time>2026-05-03T14:02:07.999Z</time></trkpt><trkpt lat="44.41848132324035" lon="11.366574648701203"><ele>296.42857142857144</ele><time>2026-05-03T14:02:08.999Z</time></trkpt><trkpt lat="44.418413202239265" lon="11.36651508587057"><ele>298.7142857142857</ele><time>2026-05-03T14:02:09.999Z</time></trkpt><trkpt lat="44.41835344136944" lon="11.366473419314849"><ele>301.0</ele><time>2026-05-03T14:02:10.999Z</time></trkpt><trkpt lat="44.418200452048204" lon="11.3664227720921"><ele>301.0</ele><time>2026-05-03T14:02:12.999Z</time></trkpt><trkpt lat="44.418083059497164" lon="11.366390418372516"><ele>301.0</ele><time>2026-05-03T14:02:13.999Z</time></trkpt><trkpt lat="44.41799473853803" lon="11.366347046405613"><ele>301.0</ele><time>2026-05-03T14:02:14.999Z</time></trkpt><trkpt lat="44.41792510839159" lon="11.366298806889509"><ele>301.0</ele><time>2026-05-03T14:02:16Z</time></trkpt><trkpt lat="44.417875217117505" lon="11.366243531644775"><ele>301.0</ele><time>2026-05-03T14:02:17Z</time></trkpt><trkpt lat="44.41781143563397" lon="11.366211425077585"><ele>301.0</ele><time>2026-05-03T14:02:18Z</time></trkpt><trkpt lat="44.41772756658793" lon="11.366179438085366"><ele>299.40000000000003</ele><time>2026-05-03T14:02:19Z</time></trkpt><trkpt lat="44.41765249435571" lon="11.366127438926386"><ele>297.8</ele><time>2026-05-03T14:02:20Z</time></trkpt><trkpt lat="44.41757022039557" lon="11.366014384022556"><ele>296.20000000000005</ele><time>2026-05-03T14:02:22Z</time></trkpt><trkpt lat="44.41751585983703" lon="11.365968294066567"><ele>294.6</ele><time>2026-05-03T14:02:24Z</time></trkpt><trkpt lat="44.41741207447942" lon="11.36599149425508"><ele>293.0</ele><time>2026-05-03T14:02:27Z</time></trkpt><trkpt lat="44.41737582652031" lon="11.366111037609885"><ele>293.0</ele><time>2026-05-03T14:02:30Z</time></trkpt><trkpt lat="44.41736049247221" lon="11.366206030961363"><ele>293.0</ele><time>2026-05-03T14:02:31Z</time></trkpt><trkpt lat="44.41732472374577" lon="11.366291567618555"><ele>293.0</ele><time>2026-05-03T14:02:32Z</time></trkpt><trkpt lat="44.41726730875554" lon="11.366345892162453"><ele>293.0</ele><time>2026-05-03T14:02:33Z</time></trkpt><trkpt lat="44.417170838119965" lon="11.366419222737274"><ele>293.0</ele><time>2026-05-03T14:02:34Z</time></trkpt><trkpt lat="44.417102813701995" lon="11.366505230091631"><ele>293.0</ele><time>2026-05-03T14:02:35Z</time></trkpt><trkpt lat="44.417055085543325" lon="11.36657690429899"><ele>294.0</ele><time>2026-05-03T14:02:36Z</time></trkpt><trkpt lat="44.41699840502995" lon="11.366625400532838"><ele>295.0</ele><time>2026-05-03T14:02:37Z</time></trkpt><trkpt lat="44.41690678268417" lon="11.36667105376475"><ele>296.0</ele><time>2026-05-03T14:02:38Z</time></trkpt><trkpt lat="44.416793186964505" lon="11.36672172188625"><ele>297.0</ele><time>2026-05-03T14:02:39Z</time></trkpt><trkpt lat="44.41670006376691" lon="11.366744745273111"><ele>298.0</ele><time>2026-05-03T14:02:40Z</time></trkpt><trkpt lat="44.41662369355586" lon="11.366761301956043"><ele>298.0</ele><time>2026-05-03T14:02:41Z</time></trkpt><trkpt lat="44.41653237661957" lon="11.366765657124171"><ele>298.0</ele><time>2026-05-03T14:02:42Z</time></trkpt><trkpt lat="44.41642701865295" lon="11.366745269088756"><ele>298.0</ele><time>2026-05-03T14:02:43Z</time></trkpt><trkpt lat="44.41633749932616" lon="11.366703373799883"><ele>298.0</ele><time>2026-05-03T14:02:44Z</time></trkpt><trkpt lat="44.41625875372386" lon="11.366661861875365"><ele>298.0</ele><time>2026-05-03T14:02:45Z</time></trkpt><trkpt lat="44.416184349297836" lon="11.366609768442478"><ele>298.66666666666663</ele><time>2026-05-03T14:02:47Z</time></trkpt><trkpt lat="44.41612098917193" lon="11.366618307679916"><ele>299.3333333333333</ele><time>2026-05-03T14:02:49Z</time></trkpt><trkpt lat="44.41605677327378" lon="11.366647563922667"><ele>300.0</ele><time>2026-05-03T14:02:51Z</time></trkpt><trkpt lat="44.415977671756025" lon="11.366623227795282"><ele>300.6666666666667</ele><time>2026-05-03T14:02:56Z</time></trkpt><trkpt lat="44.415913731483194" lon="11.366604454090673"><ele>301.33333333333337</ele><time>2026-05-03T14:02:57Z</time></trkpt><trkpt lat="44.41583057238149" lon="11.366547559905895"><ele>302.0</ele><time>2026-05-03T14:02:59Z</time></trkpt><trkpt lat="44.41575091822047" lon="11.366571296067487"><ele>302.0</ele><time>2026-05-03T14:03:03Z</time></trkpt><trkpt lat="44.41561956675884" lon="11.366597473046452"><ele>302.0</ele><time>2026-05-03T14:03:05Z</time></trkpt><trkpt lat="44.415543710888215" lon="11.366598648785436"><ele>302.0</ele><time>2026-05-03T14:03:06Z</time></trkpt><trkpt lat="44.4154636279196" lon="11.36659905280886"><ele>302.0</ele><time>2026-05-03T14:03:07Z</time></trkpt><trkpt lat="44.415354006063055" lon="11.366592508430063"><ele>302.0</ele><time>2026-05-03T14:03:09Z</time></trkpt><trkpt lat="44.415255000991465" lon="11.36661438719684"><ele>299.6</ele><time>2026-05-03T14:03:11Z</time></trkpt><trkpt lat="44.41518218256204" lon="11.366670888703474"><ele>297.2</ele><time>2026-05-03T14:03:13Z</time></trkpt><trkpt lat="44.415149101875" lon="11.366780278301798"><ele>294.8</ele><time>2026-05-03T14:03:15Z</time></trkpt><trkpt lat="44.41513073492608" lon="11.366930268326247"><ele>292.4</ele><time>2026-05-03T14:03:17Z</time></trkpt><trkpt lat="44.41513339646064" lon="11.367065349359695"><ele>290.0</ele><time>2026-05-03T14:03:19Z</time></trkpt><trkpt lat="44.415146712448156" lon="11.367196020576072"><ele>290.0</ele><time>2026-05-03T14:03:21Z</time></trkpt><trkpt lat="44.41511910582882" lon="11.3673128542133"><ele>290.0</ele><time>2026-05-03T14:03:23Z</time></trkpt><trkpt lat="44.41506924036384" lon="11.367372330689419"><ele>290.0</ele><time>2026-05-03T14:03:23.999Z</time></trkpt><trkpt lat="44.41501020872774" lon="11.367453160748415"><ele>290.0</ele><time>2026-05-03T14:03:24.999Z</time></trkpt><trkpt lat="44.41494084171884" lon="11.367583030038675"><ele>290.0</ele><time>2026-05-03T14:03:26.999Z</time></trkpt><trkpt lat="44.41490837207706" lon="11.367662389963275"><ele>290.0</ele><time>2026-05-03T14:03:27.999Z</time></trkpt><trkpt lat="44.414875646969506" lon="11.367754107901465"><ele>290.0</ele><time>2026-05-03T14:03:28.999Z</time></trkpt><trkpt lat="44.414840262377965" lon="11.367851121078418"><ele>290.0</ele><time>2026-05-03T14:03:29.999Z</time></trkpt><trkpt lat="44.41480254725072" lon="11.367932485267634"><ele>290.0</ele><time>2026-05-03T14:03:30.999Z</time></trkpt><trkpt lat="44.414764440830275" lon="11.368013635857526"><ele>290.0</ele><time>2026-05-03T14:03:31.999Z</time></trkpt><trkpt lat="44.414720981166596" lon="11.368107611141534"><ele>290.0</ele><time>2026-05-03T14:03:32.999Z</time></trkpt><trkpt lat="44.41466143608481" lon="11.368239789405662"><ele>290.0</ele><time>2026-05-03T14:03:33.999Z</time></trkpt><trkpt lat="44.414606329128965" lon="11.368357324480945"><ele>286.0</ele><time>2026-05-03T14:03:34.999Z</time></trkpt><trkpt lat="44.41456208974296" lon="11.368434421769072"><ele>282.0</ele><time>2026-05-03T14:03:35.999Z</time></trkpt><trkpt lat="44.41449738609493" lon="11.368504734233644"><ele>278.0</ele><time>2026-05-03T14:03:36.999Z</time></trkpt><trkpt lat="44.414422359174026" lon="11.368570469964865"><ele>274.0</ele><time>2026-05-03T14:03:37.999Z</time></trkpt><trkpt lat="44.414325873276574" lon="11.368682805110852"><ele>270.0</ele><time>2026-05-03T14:03:38.999Z</time></trkpt><trkpt lat="44.41424761301751" lon="11.368789049558831"><ele>271.0</ele><time>2026-05-03T14:03:39.999Z</time></trkpt><trkpt lat="44.414175860202654" lon="11.368882337127319"><ele>272.0</ele><time>2026-05-03T14:03:40.999Z</time></trkpt><trkpt lat="44.41410725993845" lon="11.368966896486999"><ele>273.0</ele><time>2026-05-03T14:03:41.999Z</time></trkpt><trkpt lat="44.414028939240985" lon="11.369066064389816"><ele>274.0</ele><time>2026-05-03T14:03:42.999Z</time></trkpt><trkpt lat="44.413936050540876" lon="11.369171106813376"><ele>275.0</ele><time>2026-05-03T14:03:43.999Z</time></trkpt><trkpt lat="44.41384623813412" lon="11.3692845142963"><ele>274.4</ele><time>2026-05-03T14:03:44.999Z</time></trkpt><trkpt lat="44.413762173037256" lon="11.369399812851713"><ele>273.8</ele><time>2026-05-03T14:03:45.999Z</time></trkpt><trkpt lat="44.41367319186711" lon="11.369496662969548"><ele>273.2</ele><time>2026-05-03T14:03:46.999Z</time></trkpt><trkpt lat="44.41358974505429" lon="11.369586554556376"><ele>272.6</ele><time>2026-05-03T14:03:47.999Z</time></trkpt><trkpt lat="44.4135115598858" lon="11.36966178617054"><ele>272.0</ele><time>2026-05-03T14:03:48.999Z</time></trkpt><trkpt lat="44.41343282918638" lon="11.369731112954277"><ele>272.0</ele><time>2026-05-03T14:03:49.999Z</time></trkpt><trkpt lat="44.413345598926604" lon="11.369794141610813"><ele>272.0</ele><time>2026-05-03T14:03:50.999Z</time></trkpt><trkpt lat="44.41324383462973" lon="11.369868983593436"><ele>272.0</ele><time>2026-05-03T14:03:51.999Z</time></trkpt><trkpt lat="44.41314650687363" lon="11.369937481995896"><ele>272.0</ele><time>2026-05-03T14:03:52.999Z</time></trkpt><trkpt lat="44.413034371158794" lon="11.370023705027394"><ele>272.0</ele><time>2026-05-03T14:03:53.999Z</time></trkpt><trkpt lat="44.412927438826884" lon="11.370122341233333"><ele>272.0</ele><time>2026-05-03T14:03:54.999Z</time></trkpt><trkpt lat="44.41285027009795" lon="11.370223701635018"><ele>272.0</ele><time>2026-05-03T14:03:55.999Z</time></trkpt><trkpt lat="44.41279211295656" lon="11.370363586108398"><ele>272.0</ele><time>2026-05-03T14:03:56.999Z</time></trkpt><trkpt lat="44.41272508978572" lon="11.370539408730593"><ele>272.0</ele><time>2026-05-03T14:03:57.999Z</time></trkpt><trkpt lat="44.41265615998591" lon="11.370737802273432"><ele>272.0</ele><time>2026-05-03T14:03:58.999Z</time></trkpt><trkpt lat="44.41260099179475" lon="11.370896307567612"><ele>272.0</ele><time>2026-05-03T14:03:59.999Z</time></trkpt><trkpt lat="44.41256414318145" lon="11.371019845450906"><ele>272.0</ele><time>2026-05-03T14:04:00.999Z</time></trkpt><trkpt lat="44.41255047714563" lon="11.371109242565879"><ele>272.0</ele><time>2026-05-03T14:04:01.999Z</time></trkpt><trkpt lat="44.412525897285875" lon="11.371272501433868"><ele>273.25</ele><time>2026-05-03T14:04:03.999Z</time></trkpt><trkpt lat="44.41252682015315" lon="11.371398505298622"><ele>274.5</ele><time>2026-05-03T14:04:04.999Z</time></trkpt><trkpt lat="44.412550432492665" lon="11.371586406728243"><ele>275.75</ele><time>2026-05-03T14:04:05.999Z</time></trkpt><trkpt lat="44.41256619752049" lon="11.371771742667987"><ele>277.0</ele><time>2026-05-03T14:04:06.999Z</time></trkpt><trkpt lat="44.41258118408108" lon="11.371914939562716"><ele>277.0</ele><time>2026-05-03T14:04:07.999Z</time></trkpt><trkpt lat="44.41259566262784" lon="11.372044164417735"><ele>277.0</ele><time>2026-05-03T14:04:08.999Z</time></trkpt><trkpt lat="44.412606771376105" lon="11.372185078321417"><ele>277.0</ele><time>2026-05-03T14:04:09.999Z</time></trkpt><trkpt lat="44.41261652500861" lon="11.372351916917673"><ele>277.0</ele><time>2026-05-03T14:04:10.999Z</time></trkpt><trkpt lat="44.412616313713336" lon="11.372536367287037"><ele>277.0</ele><time>2026-05-03T14:04:11.999Z</time></trkpt><trkpt lat="44.41262588264677" lon="11.37270276243426"><ele>276.25</ele><time>2026-05-03T14:04:12.999Z</time></trkpt><trkpt lat="44.41263564319325" lon="11.372855648047533"><ele>275.5</ele><time>2026-05-03T14:04:13.999Z</time></trkpt><trkpt lat="44.41264148410705" lon="11.373035099457713"><ele>274.75</ele><time>2026-05-03T14:04:14.999Z</time></trkpt><trkpt lat="44.4126471641152" lon="11.37323282227259"><ele>274.0</ele><time>2026-05-03T14:04:15.999Z</time></trkpt><trkpt lat="44.41265265670028" lon="11.373421707805674"><ele>272.4</ele><time>2026-05-03T14:04:16.999Z</time></trkpt><trkpt lat="44.4126505432457" lon="11.37357736607124"><ele>270.79999999999995</ele><time>2026-05-03T14:04:17.999Z</time></trkpt><trkpt lat="44.412647248266516" lon="11.373715874652932"><ele>269.20000000000005</ele><time>2026-05-03T14:04:18.999Z</time></trkpt><trkpt lat="44.41264834410041" lon="11.373841688658057"><ele>267.6</ele><time>2026-05-03T14:04:19.999Z</time></trkpt><trkpt lat="44.41265050861322" lon="11.373956278276669"><ele>266.0</ele><time>2026-05-03T14:04:21Z</time></trkpt><trkpt lat="44.412649927294964" lon="11.374061939064028"><ele>266.0</ele><time>2026-05-03T14:04:22Z</time></trkpt><trkpt lat="44.41264491664966" lon="11.374182291583713"><ele>266.0</ele><time>2026-05-03T14:04:23Z</time></trkpt><trkpt lat="44.41263586634168" lon="11.374291870938476"><ele>266.0</ele><time>2026-05-03T14:04:24Z</time></trkpt><trkpt lat="44.41263056776732" lon="11.374435646389655"><ele>266.0</ele><time>2026-05-03T14:04:26Z</time></trkpt><trkpt lat="44.412643019615935" lon="11.374550485582466"><ele>266.0</ele><time>2026-05-03T14:04:27Z</time></trkpt><trkpt lat="44.41262680389391" lon="11.374718054953021"><ele>265.6666666666667</ele><time>2026-05-03T14:04:28Z</time></trkpt><trkpt lat="44.41259302124166" lon="11.374889129159573"><ele>265.33333333333337</ele><time>2026-05-03T14:04:29Z</time></trkpt><trkpt lat="44.4125829838139" lon="11.374993295371716"><ele>265.0</ele><time>2026-05-03T14:04:30Z</time></trkpt><trkpt lat="44.41257224167487" lon="11.37508567037995"><ele>264.6666666666667</ele><time>2026-05-03T14:04:31Z</time></trkpt><trkpt lat="44.41255693958505" lon="11.375190643241655"><ele>264.3333333333333</ele><time>2026-05-03T14:04:32Z</time></trkpt><trkpt lat="44.41254418202987" lon="11.37530877976497"><ele>264.0</ele><time>2026-05-03T14:04:33Z</time></trkpt><trkpt lat="44.41253346949985" lon="11.375424006214546"><ele>264.2</ele><time>2026-05-03T14:04:34Z</time></trkpt><trkpt lat="44.41251904762462" lon="11.37555528054775"><ele>264.4</ele><time>2026-05-03T14:04:35Z</time></trkpt><trkpt lat="44.41250084945425" lon="11.375697836456826"><ele>264.6</ele><time>2026-05-03T14:04:36Z</time></trkpt><trkpt lat="44.41247925822885" lon="11.375826289886712"><ele>264.8</ele><time>2026-05-03T14:04:37Z</time></trkpt><trkpt lat="44.41245250445078" lon="11.375970313679463"><ele>265.0</ele><time>2026-05-03T14:04:38Z</time></trkpt><trkpt lat="44.412417297356534" lon="11.376097117221574"><ele>265.0</ele><time>2026-05-03T14:04:39Z</time></trkpt><trkpt lat="44.41238379438903" lon="11.37620826834843"><ele>265.0</ele><time>2026-05-03T14:04:40Z</time></trkpt><trkpt lat="44.4123483062219" lon="11.376324919455199"><ele>265.0</ele><time>2026-05-03T14:04:41Z</time></trkpt><trkpt lat="44.412311197180024" lon="11.376439708212297"><ele>265.0</ele><time>2026-05-03T14:04:42Z</time></trkpt><trkpt lat="44.4122726201447" lon="11.376549251939347"><ele>265.0</ele><time>2026-05-03T14:04:43Z</time></trkpt><trkpt lat="44.41223387872309" lon="11.376661228131608"><ele>265.0</ele><time>2026-05-03T14:04:44Z</time></trkpt><trkpt lat="44.41218952681809" lon="11.376770903170073"><ele>262.4</ele><time>2026-05-03T14:04:45Z</time></trkpt><trkpt lat="44.412144373177235" lon="11.376888717884578"><ele>259.8</ele><time>2026-05-03T14:04:46Z</time></trkpt><trkpt lat="44.412094823895394" lon="11.377014760077646"><ele>257.2</ele><time>2026-05-03T14:04:47Z</time></trkpt><trkpt lat="44.412044656161335" lon="11.377148477121537"><ele>254.6</ele><time>2026-05-03T14:04:48Z</time></trkpt><trkpt lat="44.411995457491926" lon="11.377269056493173"><ele>252.0</ele><time>2026-05-03T14:04:49Z</time></trkpt><trkpt lat="44.41195732616076" lon="11.377367321506929"><ele>252.0</ele><time>2026-05-03T14:04:50Z</time></trkpt><trkpt lat="44.411923823099286" lon="11.377468129566642"><ele>252.0</ele><time>2026-05-03T14:04:51Z</time></trkpt><trkpt lat="44.411895080875084" lon="11.377573135315659"><ele>252.0</ele><time>2026-05-03T14:04:52Z</time></trkpt><trkpt lat="44.41187896300545" lon="11.377670058824155"><ele>252.0</ele><time>2026-05-03T14:04:53Z</time></trkpt><trkpt lat="44.41186823247839" lon="11.377828912902645"><ele>252.0</ele><time>2026-05-03T14:04:55Z</time></trkpt><trkpt lat="44.411848966966694" lon="11.377929383335264"><ele>252.0</ele><time>2026-05-03T14:04:56Z</time></trkpt><trkpt lat="44.41181850514653" lon="11.378033907941514"><ele>252.2</ele><time>2026-05-03T14:04:57Z</time></trkpt><trkpt lat="44.41177295876343" lon="11.378117916455107"><ele>252.39999999999998</ele><time>2026-05-03T14:04:58Z</time></trkpt><trkpt lat="44.411731470507604" lon="11.378184968207988"><ele>252.60000000000002</ele><time>2026-05-03T14:04:59Z</time></trkpt><trkpt lat="44.41165526877253" lon="11.378328082920333"><ele>252.8</ele><time>2026-05-03T14:05:01Z</time></trkpt><trkpt lat="44.41158625223918" lon="11.378467376805709"><ele>253.0</ele><time>2026-05-03T14:05:03Z</time></trkpt><trkpt lat="44.41155388651921" lon="11.378546854106656"><ele>253.0</ele><time>2026-05-03T14:05:04Z</time></trkpt><trkpt lat="44.41152217014376" lon="11.378625643385538"><ele>253.0</ele><time>2026-05-03T14:05:05Z</time></trkpt><trkpt lat="44.41146979095476" lon="11.37877369404178"><ele>253.0</ele><time>2026-05-03T14:05:07Z</time></trkpt><trkpt lat="44.41141940576179" lon="11.37890911034182"><ele>253.0</ele><time>2026-05-03T14:05:09Z</time></trkpt><trkpt lat="44.41136208173617" lon="11.379053992540127"><ele>253.0</ele><time>2026-05-03T14:05:11Z</time></trkpt><trkpt lat="44.411289777213504" lon="11.379207740443006"><ele>250.28571428571433</ele><time>2026-05-03T14:05:13Z</time></trkpt><trkpt lat="44.41124643933608" lon="11.379274660115652"><ele>247.57142857142858</ele><time>2026-05-03T14:05:14Z</time></trkpt><trkpt lat="44.41119712283223" lon="11.379355273236175"><ele>244.8571428571429</ele><time>2026-05-03T14:05:15Z</time></trkpt><trkpt lat="44.41114144239344" lon="11.379435398255978"><ele>242.14285714285717</ele><time>2026-05-03T14:05:16Z</time></trkpt><trkpt lat="44.411089915383045" lon="11.379495434251906"><ele>239.42857142857144</ele><time>2026-05-03T14:05:17Z</time></trkpt><trkpt lat="44.411040878035806" lon="11.37956052734863"><ele>236.71428571428572</ele><time>2026-05-03T14:05:18Z</time></trkpt><trkpt lat="44.41099468566369" lon="11.379659534569809"><ele>234.0</ele><time>2026-05-03T14:05:19Z</time></trkpt><trkpt lat="44.410956729092135" lon="11.379745956832178"><ele>233.39999999999998</ele><time>2026-05-03T14:05:20Z</time></trkpt><trkpt lat="44.410930427497185" lon="11.379846433437589"><ele>232.79999999999998</ele><time>2026-05-03T14:05:21Z</time></trkpt><trkpt lat="44.41092386151594" lon="11.379962097474092"><ele>232.20000000000002</ele><time>2026-05-03T14:05:22Z</time></trkpt><trkpt lat="44.41092540611352" lon="11.380076772309016"><ele>231.60000000000002</ele><time>2026-05-03T14:05:23Z</time></trkpt><trkpt lat="44.41096489733976" lon="11.380234748734932"><ele>231.0</ele><time>2026-05-03T14:05:24.999Z</time></trkpt><trkpt lat="44.4110141343834" lon="11.380387432663008"><ele>228.8</ele><time>2026-05-03T14:05:26.999Z</time></trkpt><trkpt lat="44.411066013358365" lon="11.380560111925735"><ele>226.60000000000002</ele><time>2026-05-03T14:05:28.999Z</time></trkpt><trkpt lat="44.41108936117968" lon="11.380655320848566"><ele>224.4</ele><time>2026-05-03T14:05:29.999Z</time></trkpt><trkpt lat="44.411111834366054" lon="11.380741548315694"><ele>222.2</ele><time>2026-05-03T14:05:30.999Z</time></trkpt><trkpt lat="44.411133856219436" lon="11.380880181866575"><ele>220.0</ele><time>2026-05-03T14:05:32.999Z</time></trkpt><trkpt lat="44.41111905045655" lon="11.380992013883517"><ele>220.0</ele><time>2026-05-03T14:05:35.999Z</time></trkpt><trkpt lat="44.41111089401017" lon="11.381121470351541"><ele>220.0</ele><time>2026-05-03T14:05:38.999Z</time></trkpt><trkpt lat="44.41111175777281" lon="11.38123142181439"><ele>220.0</ele><time>2026-05-03T14:05:40.999Z</time></trkpt><trkpt lat="44.411120191604944" lon="11.381350099012455"><ele>220.0</ele><time>2026-05-03T14:05:42.999Z</time></trkpt><trkpt lat="44.41112291952167" lon="11.38151078227116"><ele>220.0</ele><time>2026-05-03T14:05:44.999Z</time></trkpt><trkpt lat="44.411123766461536" lon="11.38164585145504"><ele>219.14285714285714</ele><time>2026-05-03T14:05:46.999Z</time></trkpt><trkpt lat="44.411100541524114" lon="11.381756912967127"><ele>218.28571428571428</ele><time>2026-05-03T14:05:48.999Z</time></trkpt><trkpt lat="44.41108634072075" lon="11.381870803192308"><ele>217.42857142857144</ele><time>2026-05-03T14:05:50.999Z</time></trkpt><trkpt lat="44.41107212406551" lon="11.381968148732195"><ele>216.57142857142856</ele><time>2026-05-03T14:05:52.999Z</time></trkpt><trkpt lat="44.41105629438276" lon="11.382053926207131"><ele>215.71428571428572</ele><time>2026-05-03T14:05:54.999Z</time></trkpt><trkpt lat="44.411041746626594" lon="11.38214765905504"><ele>214.85714285714286</ele><time>2026-05-03T14:05:56.999Z</time></trkpt><trkpt lat="44.41101753945544" lon="11.382248049537703"><ele>214.0</ele><time>2026-05-03T14:05:58.999Z</time></trkpt><trkpt lat="44.41098611109355" lon="11.382389870105802"><ele>213.16666666666666</ele><time>2026-05-03T14:06:00.999Z</time></trkpt><trkpt lat="44.410948640870494" lon="11.3824963082542"><ele>212.33333333333331</ele><time>2026-05-03T14:06:02.999Z</time></trkpt><trkpt lat="44.41089188637695" lon="11.382591602422957"><ele>211.5</ele><time>2026-05-03T14:06:04.999Z</time></trkpt><trkpt lat="44.41086187942099" lon="11.382689692224064"><ele>210.66666666666669</ele><time>2026-05-03T14:06:06.999Z</time></trkpt><trkpt lat="44.41082267354478" lon="11.382832961322165"><ele>209.83333333333334</ele><time>2026-05-03T14:06:09.999Z</time></trkpt><trkpt lat="44.410792200176004" lon="11.382923841713716"><ele>209.0</ele><time>2026-05-03T14:06:10.999Z</time></trkpt><trkpt lat="44.41076490773382" lon="11.38302432471068"><ele>207.50000000000003</ele><time>2026-05-03T14:06:11.999Z</time></trkpt><trkpt lat="44.41074394176509" lon="11.383116729538262"><ele>206.0</ele><time>2026-05-03T14:06:12.999Z</time></trkpt><trkpt lat="44.41074144879445" lon="11.383234247273407"><ele>204.5</ele><time>2026-05-03T14:06:14.999Z</time></trkpt><trkpt lat="44.41072904528371" lon="11.383364432666745"><ele>203.0</ele><time>2026-05-03T14:06:16.999Z</time></trkpt><trkpt lat="44.41073215687983" lon="11.383510591081393"><ele>201.50000000000003</ele><time>2026-05-03T14:06:18.999Z</time></trkpt><trkpt lat="44.41073108342985" lon="11.383624756002"><ele>200.0</ele><time>2026-05-03T14:06:20.999Z</time></trkpt><trkpt lat="44.41074944536987" lon="11.383742440453336"><ele>198.00000000000003</ele><time>2026-05-03T14:06:22.999Z</time></trkpt><trkpt lat="44.41074659823769" lon="11.383859809000802"><ele>196.0</ele><time>2026-05-03T14:06:24.999Z</time></trkpt><trkpt lat="44.41074276438382" lon="11.383961453518697"><ele>194.0</ele><time>2026-05-03T14:06:28Z</time></trkpt><trkpt lat="44.410758770125824" lon="11.384068884081783"><ele>192.0</ele><time>2026-05-03T14:06:33Z</time></trkpt><trkpt lat="44.41075920435479" lon="11.384157564666952"><ele>190.0</ele><time>2026-05-03T14:06:40Z</time></trkpt><trkpt lat="44.41075988614387" lon="11.384248558212823"><ele>188.0</ele><time>2026-05-03T14:06:42Z</time></trkpt><trkpt lat="44.41076685867691" lon="11.384380508586034"><ele>188.0</ele><time>2026-05-03T14:06:44Z</time></trkpt><trkpt lat="44.41077431329414" lon="11.384469468429508"><ele>188.0</ele><time>2026-05-03T14:06:46Z</time></trkpt><trkpt lat="44.410795475184365" lon="11.384567935352383"><ele>188.0</ele><time>2026-05-03T14:06:52Z</time></trkpt><trkpt lat="44.41083679995388" lon="11.38464170725373"><ele>188.0</ele><time>2026-05-03T14:06:57Z</time></trkpt><trkpt lat="44.41087006644587" lon="11.384737106537473"><ele>188.0</ele><time>2026-05-03T14:07:01Z</time></trkpt><trkpt lat="44.41089347411089" lon="11.38482757899641"><ele>188.0</ele><time>2026-05-03T14:07:08.999Z</time></trkpt><trkpt lat="44.410920874454256" lon="11.384915676885944"><ele>188.0</ele><time>2026-05-03T14:07:11.999Z</time></trkpt><trkpt lat="44.41095282519419" lon="11.384991672497936"><ele>187.0</ele><time>2026-05-03T14:07:16.999Z</time></trkpt><trkpt lat="44.41099234017049" lon="11.38508108463009"><ele>186.0</ele><time>2026-05-03T14:07:18.999Z</time></trkpt><trkpt lat="44.41105643770611" lon="11.385200320006982"><ele>185.0</ele><time>2026-05-03T14:07:20.999Z</time></trkpt><trkpt lat="44.411125785339905" lon="11.385341054971388"><ele>184.0</ele><time>2026-05-03T14:07:22.999Z</time></trkpt><trkpt lat="44.411159701358734" lon="11.385464405643935"><ele>183.0</ele><time>2026-05-03T14:07:24.999Z</time></trkpt><trkpt lat="44.411164577053846" lon="11.385557692349087"><ele>182.14285714285714</ele><time>2026-05-03T14:07:26.999Z</time></trkpt><trkpt lat="44.41122021583077" lon="11.385621719779499"><ele>181.28571428571428</ele><time>2026-05-03T14:07:31.999Z</time></trkpt><trkpt lat="44.41128056202892" lon="11.385650941546"><ele>180.42857142857144</ele><time>2026-05-03T14:07:34.999Z</time></trkpt><trkpt lat="44.41124230309717" lon="11.385755555701227"><ele>179.57142857142856</ele><time>2026-05-03T14:07:37.999Z</time></trkpt><trkpt lat="44.41120022686095" lon="11.385847276562359"><ele>178.7142857142857</ele><time>2026-05-03T14:07:38.999Z</time></trkpt><trkpt lat="44.41120484728993" lon="11.385941612522268"><ele>177.85714285714286</ele><time>2026-05-03T14:07:44.999Z</time></trkpt><trkpt lat="44.41120691511888" lon="11.386035308681006"><ele>177.0</ele><time>2026-05-03T14:07:56.999Z</time></trkpt><trkpt lat="44.41120716933357" lon="11.386130078612346"><ele>177.0</ele><time>2026-05-03T14:07:58.999Z</time></trkpt><trkpt lat="44.411238526001675" lon="11.386225567343518"><ele>177.0</ele><time>2026-05-03T14:08:01.999Z</time></trkpt><trkpt lat="44.41119628533699" lon="11.386341085786135"><ele>177.0</ele><time>2026-05-03T14:08:04.999Z</time></trkpt><trkpt lat="44.41120852273008" lon="11.386460828346856"><ele>177.0</ele><time>2026-05-03T14:08:08.999Z</time></trkpt><trkpt lat="44.41120940738908" lon="11.38655329833791"><ele>177.0</ele><time>2026-05-03T14:08:11.999Z</time></trkpt><trkpt lat="44.41117971916549" lon="11.386682277321285"><ele>177.0</ele><time>2026-05-03T14:08:13.999Z</time></trkpt><trkpt lat="44.41116970092163" lon="11.386779303085227"><ele>174.5</ele><time>2026-05-03T14:08:15.999Z</time></trkpt><trkpt lat="44.411145924720294" lon="11.386904494428778"><ele>172.0</ele><time>2026-05-03T14:08:17.999Z</time></trkpt><trkpt lat="44.411144591889546" lon="11.387011616533966"><ele>169.5</ele><time>2026-05-03T14:08:20.999Z</time></trkpt><trkpt lat="44.41116627403594" lon="11.38716084267815"><ele>167.0</ele><time>2026-05-03T14:08:23.999Z</time></trkpt><trkpt lat="44.41117117544589" lon="11.387262207498907"><ele>164.5</ele><time>2026-05-03T14:08:25.999Z</time></trkpt><trkpt lat="44.411175083803144" lon="11.38735573932191"><ele>162.0</ele><time>2026-05-03T14:08:27.999Z</time></trkpt><trkpt lat="44.411187469894905" lon="11.387447062428917"><ele>160.42857142857144</ele><time>2026-05-03T14:08:29.999Z</time></trkpt><trkpt lat="44.41121111983556" lon="11.387553262458205"><ele>158.85714285714286</ele><time>2026-05-03T14:08:31.999Z</time></trkpt><trkpt lat="44.41120746242225" lon="11.387644397773428"><ele>157.28571428571428</ele><time>2026-05-03T14:08:33.999Z</time></trkpt><trkpt lat="44.411249134191856" lon="11.38771213755148"><ele>155.71428571428572</ele><time>2026-05-03T14:08:37.999Z</time></trkpt><trkpt lat="44.41128626433597" lon="11.387787743932956"><ele>154.14285714285714</ele><time>2026-05-03T14:08:41Z</time></trkpt><trkpt lat="44.41130471341553" lon="11.387888661418009"><ele>152.57142857142858</ele><time>2026-05-03T14:08:44Z</time></trkpt><trkpt lat="44.41135331221789" lon="11.38799060311525"><ele>151.0</ele><time>2026-05-03T14:08:47Z</time></trkpt><trkpt lat="44.41139966225496" lon="11.38808486353482"><ele>146.5</ele><time>2026-05-03T14:08:51Z</time></trkpt><trkpt lat="44.411471897068616" lon="11.388156468476138"><ele>142.0</ele><time>2026-05-03T14:08:54.999Z</time></trkpt><trkpt lat="44.411520487023104" lon="11.38821473567703"><ele>137.5</ele><time>2026-05-03T14:08:56.999Z</time></trkpt><trkpt lat="44.41154494651938" lon="11.388326644394729"><ele>133.0</ele><time>2026-05-03T14:09:00.999Z</time></trkpt><trkpt lat="44.41159629191844" lon="11.388406778695359"><ele>128.5</ele><time>2026-05-03T14:09:03.999Z</time></trkpt><trkpt lat="44.411635424247194" lon="11.388476809904867"><ele>124.0</ele><time>2026-05-03T14:09:06.999Z</time></trkpt><trkpt lat="44.41170302789923" lon="11.388553841270843"><ele>124.00000000000001</ele><time>2026-05-03T14:09:10.999Z</time></trkpt><trkpt lat="44.41176256624488" lon="11.388601309092046"><ele>124.0</ele><time>2026-05-03T14:09:13.999Z</time></trkpt><trkpt lat="44.411815765935984" lon="11.388653739271927"><ele>124.0</ele><time>2026-05-03T14:09:16.999Z</time></trkpt><trkpt lat="44.41176196446382" lon="11.388723560724529"><ele>124.0</ele><time>2026-05-03T14:09:19.999Z</time></trkpt><trkpt lat="44.41167370869666" lon="11.388756974251546"><ele>124.00000000000001</ele><time>2026-05-03T14:09:21.999Z</time></trkpt><trkpt lat="44.41160464057931" lon="11.388841628735227"><ele>124.0</ele><time>2026-05-03T14:09:24.999Z</time></trkpt><trkpt lat="44.41154204413123" lon="11.38892854808193"><ele>122.50000000000001</ele><time>2026-05-03T14:09:26.999Z</time></trkpt><trkpt lat="44.41148990111432" lon="11.389003867159387"><ele>121.0</ele><time>2026-05-03T14:09:28.999Z</time></trkpt><trkpt lat="44.41144769597758" lon="11.389096646001448"><ele>119.5</ele><time>2026-05-03T14:09:30.999Z</time></trkpt><trkpt lat="44.411410153169946" lon="11.389228469638125"><ele>118.0</ele><time>2026-05-03T14:09:33.999Z</time></trkpt><trkpt lat="44.411418845190674" lon="11.389334541047976"><ele>116.50000000000001</ele><time>2026-05-03T14:09:35.999Z</time></trkpt><trkpt lat="44.41142231859007" lon="11.389436203826484"><ele>115.0</ele><time>2026-05-03T14:09:37.999Z</time></trkpt><trkpt lat="44.41142090219235" lon="11.389537269608027"><ele>115.00000000000001</ele><time>2026-05-03T14:09:39.999Z</time></trkpt><trkpt lat="44.41143810892275" lon="11.389631392118595"><ele>115.0</ele><time>2026-05-03T14:09:41.999Z</time></trkpt><trkpt lat="44.41147344177324" lon="11.38972848193967"><ele>115.0</ele><time>2026-05-03T14:09:43.999Z</time></trkpt><trkpt lat="44.41154654606183" lon="11.389791741846459"><ele>115.0</ele><time>2026-05-03T14:10:05.999Z</time></trkpt><trkpt lat="44.41163000330789" lon="11.389839124359304"><ele>115.00000000000001</ele><time>2026-05-03T14:10:06.999Z</time></trkpt><trkpt lat="44.411729047840616" lon="11.389879087682843"><ele>115.0</ele><time>2026-05-03T14:10:07.999Z</time></trkpt><trkpt lat="44.411849453177005" lon="11.389923781596663"><ele>113.0</ele><time>2026-05-03T14:10:08.999Z</time></trkpt><trkpt lat="44.411974708551064" lon="11.38996070999091"><ele>111.0</ele><time>2026-05-03T14:10:09.999Z</time></trkpt><trkpt lat="44.41211968003308" lon="11.390007153007735"><ele>109.0</ele><time>2026-05-03T14:10:10.999Z</time></trkpt><trkpt lat="44.41227604434128" lon="11.390057400269244"><ele>107.0</ele><time>2026-05-03T14:10:11.999Z</time></trkpt><trkpt lat="44.41244068752573" lon="11.39010496525755"><ele>106.66666666666666</ele><time>2026-05-03T14:10:12.999Z</time></trkpt><trkpt lat="44.41261662253057" lon="11.390161336842851"><ele>106.33333333333334</ele><time>2026-05-03T14:10:13.999Z</time></trkpt><trkpt lat="44.41277668032595" lon="11.390215601645519"><ele>106.0</ele><time>2026-05-03T14:10:14.999Z</time></trkpt><trkpt lat="44.41293247812077" lon="11.390263459762439"><ele>108.66666666666667</ele><time>2026-05-03T14:10:15.999Z</time></trkpt><trkpt lat="44.41309031933715" lon="11.390337469116202"><ele>111.33333333333334</ele><time>2026-05-03T14:10:16.999Z</time></trkpt><trkpt lat="44.41325358583231" lon="11.390389967115402"><ele>114.0</ele><time>2026-05-03T14:10:17.999Z</time></trkpt><trkpt lat="44.4134135445323" lon="11.390444592890853"><ele>114.0</ele><time>2026-05-03T14:10:18.999Z</time></trkpt><trkpt lat="44.41357757242943" lon="11.390499217479285"><ele>114.0</ele><time>2026-05-03T14:10:19.999Z</time></trkpt><trkpt lat="44.41375035794539" lon="11.390556266157162"><ele>114.0</ele><time>2026-05-03T14:10:20.999Z</time></trkpt><trkpt lat="44.41392749488527" lon="11.390591082629209"><ele>112.0</ele><time>2026-05-03T14:10:21.999Z</time></trkpt><trkpt lat="44.41410386501613" lon="11.39065262267943"><ele>110.0</ele><time>2026-05-03T14:10:22.999Z</time></trkpt><trkpt lat="44.41426965426063" lon="11.390742212172688"><ele>108.0</ele><time>2026-05-03T14:10:23.999Z</time></trkpt><trkpt lat="44.414438779426675" lon="11.39083495453203"><ele>108.0</ele><time>2026-05-03T14:10:24.999Z</time></trkpt><trkpt lat="44.41453290937782" lon="11.390921386379466"><ele>108.0</ele><time>2026-05-03T14:10:25.999Z</time></trkpt><trkpt lat="44.41464578206408" lon="11.391042913543837"><ele>108.0</ele><time>2026-05-03T14:10:26.999Z</time></trkpt><trkpt lat="44.41476240743049" lon="11.391172954128562"><ele>108.0</ele><time>2026-05-03T14:10:27.999Z</time></trkpt><trkpt lat="44.41490371688119" lon="11.39127826884554"><ele>107.66666666666666</ele><time>2026-05-03T14:10:28.999Z</time></trkpt><trkpt lat="44.415042519469225" lon="11.391388786673607"><ele>107.33333333333333</ele><time>2026-05-03T14:10:29.999Z</time></trkpt><trkpt lat="44.41519567620481" lon="11.39148060007739"><ele>107.0</ele><time>2026-05-03T14:10:30.999Z</time></trkpt><trkpt lat="44.415350471921535" lon="11.391580640535329"><ele>108.0</ele><time>2026-05-03T14:10:31.999Z</time></trkpt><trkpt lat="44.41550418246832" lon="11.391702920910035"><ele>109.0</ele><time>2026-05-03T14:10:32.999Z</time></trkpt><trkpt lat="44.41566415747457" lon="11.39183140988119"><ele>110.0</ele><time>2026-05-03T14:10:33.999Z</time></trkpt><trkpt lat="44.41582485916183" lon="11.39195951823813"><ele>110.0</ele><time>2026-05-03T14:10:34.999Z</time></trkpt><trkpt lat="44.41599337596077" lon="11.392083228037356"><ele>110.0</ele><time>2026-05-03T14:10:35.999Z</time></trkpt><trkpt lat="44.416165987489855" lon="11.39219978811797"><ele>110.0</ele><time>2026-05-03T14:10:36.999Z</time></trkpt><trkpt lat="44.41634594572914" lon="11.392311410483394"><ele>108.66666666666666</ele><time>2026-05-03T14:10:37.999Z</time></trkpt><trkpt lat="44.41653317287267" lon="11.392410090335458"><ele>107.33333333333334</ele><time>2026-05-03T14:10:38.999Z</time></trkpt><trkpt lat="44.41672375687209" lon="11.39249809041289"><ele>106.0</ele><time>2026-05-03T14:10:39.999Z</time></trkpt><trkpt lat="44.41692202067943" lon="11.39258334124925"><ele>106.0</ele><time>2026-05-03T14:10:40.999Z</time></trkpt><trkpt lat="44.41711126676094" lon="11.392696828037463"><ele>106.0</ele><time>2026-05-03T14:10:41.999Z</time></trkpt><trkpt lat="44.41729049842333" lon="11.392821549738636"><ele>106.0</ele><time>2026-05-03T14:10:42.999Z</time></trkpt><trkpt lat="44.417428889604416" lon="11.39292816326462"><ele>106.0</ele><time>2026-05-03T14:10:43.999Z</time></trkpt><trkpt lat="44.41754019387406" lon="11.393014208569305"><ele>106.0</ele><time>2026-05-03T14:10:44.999Z</time></trkpt><trkpt lat="44.41763041367788" lon="11.393094860463986"><ele>106.0</ele><time>2026-05-03T14:10:45.999Z</time></trkpt><trkpt lat="44.41771480460375" lon="11.393169260964983"><ele>106.0</ele><time>2026-05-03T14:10:46.999Z</time></trkpt><trkpt lat="44.41778030730771" lon="11.393207244531494"><ele>106.0</ele><time>2026-05-03T14:10:47.999Z</time></trkpt><trkpt lat="44.41783193802047" lon="11.393270727333949"><ele>106.0</ele><time>2026-05-03T14:10:48.999Z</time></trkpt><trkpt lat="44.41788530553263" lon="11.393359911584785"><ele>106.0</ele><time>2026-05-03T14:10:50.999Z</time></trkpt><trkpt lat="44.417931204969314" lon="11.393427443578926"><ele>106.0</ele><time>2026-05-03T14:10:55.999Z</time></trkpt><trkpt lat="44.41784752649372" lon="11.393288063575302"><ele>106.0</ele><time>2026-05-03T14:11:01.999Z</time></trkpt><trkpt lat="44.417779806246664" lon="11.39317477858648"><ele>106.0</ele><time>2026-05-03T14:11:02.999Z</time></trkpt><trkpt lat="44.417695673703726" lon="11.39310601538246"><ele>106.00000000000001</ele><time>2026-05-03T14:11:03.999Z</time></trkpt><trkpt lat="44.417620990292086" lon="11.393037188224671"><ele>106.0</ele><time>2026-05-03T14:11:04.999Z</time></trkpt><trkpt lat="44.41756247082807" lon="11.39299336025122"><ele>106.0</ele><time>2026-05-03T14:11:05.999Z</time></trkpt><trkpt lat="44.41747069220346" lon="11.393016884092406"><ele>106.0</ele><time>2026-05-03T14:11:07.999Z</time></trkpt><trkpt lat="44.4174256940958" lon="11.393128103167891"><ele>106.00000000000001</ele><time>2026-05-03T14:11:09.999Z</time></trkpt><trkpt lat="44.417380851692" lon="11.393244981075897"><ele>106.0</ele><time>2026-05-03T14:11:10.999Z</time></trkpt><trkpt lat="44.41734989227763" lon="11.393327083529025"><ele>106.0</ele><time>2026-05-03T14:11:11.999Z</time></trkpt><trkpt lat="44.41734054987843" lon="11.393442137954509"><ele>106.0</ele><time>2026-05-03T14:11:13.999Z</time></trkpt><trkpt lat="44.417393257817224" lon="11.393513144868473"><ele>106.0</ele><time>2026-05-03T14:31:16.999Z</time></trkpt><trkpt lat="44.41745601199994" lon="11.393601639044117"><ele>106.0</ele><time>2026-05-03T14:31:17.999Z</time></trkpt><trkpt lat="44.417532903532155" lon="11.393728808519048"><ele>106.0</ele><time>2026-05-03T14:31:18.999Z</time></trkpt><trkpt lat="44.41762207912088" lon="11.393853739403452"><ele>107.6</ele><time>2026-05-03T14:31:19.999Z</time></trkpt><trkpt lat="44.417717594938146" lon="11.393958407754527"><ele>109.19999999999999</ele><time>2026-05-03T14:31:20.999Z</time></trkpt><trkpt lat="44.417789810203715" lon="11.394062240446637"><ele>110.80000000000001</ele><time>2026-05-03T14:31:21.999Z</time></trkpt><trkpt lat="44.417826971411074" lon="11.394152063640993"><ele>112.4</ele><time>2026-05-03T14:31:23.999Z</time></trkpt><trkpt lat="44.41777201175289" lon="11.394202530490722"><ele>114.0</ele><time>2026-05-03T14:31:25.999Z</time></trkpt><trkpt lat="44.41764916186836" lon="11.394123260882427"><ele>114.0</ele><time>2026-05-03T14:31:27.999Z</time></trkpt><trkpt lat="44.41758052898337" lon="11.394072632558144"><ele>114.0</ele><time>2026-05-03T14:31:28.999Z</time></trkpt><trkpt lat="44.417509939209545" lon="11.394032137787871"><ele>114.0</ele><time>2026-05-03T14:31:29.999Z</time></trkpt><trkpt lat="44.417403755971" lon="11.394028898463388"><ele>114.0</ele><time>2026-05-03T14:31:30.999Z</time></trkpt><trkpt lat="44.417322105354835" lon="11.39402736038846"><ele>114.0</ele><time>2026-05-03T14:31:31.999Z</time></trkpt><trkpt lat="44.4172522068956" lon="11.394021431962539"><ele>114.0</ele><time>2026-05-03T14:31:34.999Z</time></trkpt><trkpt lat="44.4171893609545" lon="11.394042009010784"><ele>114.0</ele><time>2026-05-03T14:31:38Z</time></trkpt><trkpt lat="44.41717195061408" lon="11.394168820147696"><ele>114.0</ele><time>2026-05-03T14:31:39Z</time></trkpt><trkpt lat="44.41726801415151" lon="11.394287870787247"><ele>114.0</ele><time>2026-05-03T14:31:41Z</time></trkpt><trkpt lat="44.417303536542946" lon="11.394380200340628"><ele>114.0</ele><time>2026-05-03T14:31:42Z</time></trkpt><trkpt lat="44.41734114118689" lon="11.394472421016209"><ele>114.0</ele><time>2026-05-03T14:31:43Z</time></trkpt><trkpt lat="44.417338988754224" lon="11.394611754518289"><ele>114.0</ele><time>2026-05-03T14:31:45Z</time></trkpt><trkpt lat="44.41728828837161" lon="11.3946683499635"><ele>114.0</ele><time>2026-05-03T14:31:47Z</time></trkpt><trkpt lat="44.41714150699561" lon="11.394602236425712"><ele>114.0</ele><time>2026-05-03T14:31:49Z</time></trkpt><trkpt lat="44.417053889291324" lon="11.394563553701873"><ele>114.0</ele><time>2026-05-03T14:31:50Z</time></trkpt><trkpt lat="44.41699051092722" lon="11.394535033440107"><ele>114.0</ele><time>2026-05-03T14:31:51Z</time></trkpt><trkpt lat="44.41691574051201" lon="11.39450462158084"><ele>118.0</ele><time>2026-05-03T14:31:52Z</time></trkpt><trkpt lat="44.41679364165629" lon="11.394485494240735"><ele>122.0</ele><time>2026-05-03T14:31:53Z</time></trkpt><trkpt lat="44.416652834180056" lon="11.394472986544681"><ele>126.0</ele><time>2026-05-03T14:31:54Z</time></trkpt><trkpt lat="44.41653822771279" lon="11.39446678931887"><ele>130.0</ele><time>2026-05-03T14:31:55Z</time></trkpt><trkpt lat="44.41644440075062" lon="11.394448080796717"><ele>130.0</ele><time>2026-05-03T14:31:56Z</time></trkpt><trkpt lat="44.416371791048725" lon="11.394424351842208"><ele>130.0</ele><time>2026-05-03T14:31:57Z</time></trkpt><trkpt lat="44.41629228619411" lon="11.394405036857504"><ele>130.0</ele><time>2026-05-03T14:31:58Z</time></trkpt><trkpt lat="44.41622309677301" lon="11.39439145887351"><ele>130.0</ele><time>2026-05-03T14:31:59Z</time></trkpt><trkpt lat="44.41616756206085" lon="11.394445966059937"><ele>130.0</ele><time>2026-05-03T14:32:02Z</time></trkpt><trkpt lat="44.41617261701072" lon="11.394567690704143"><ele>130.0</ele><time>2026-05-03T14:32:16Z</time></trkpt><trkpt lat="44.4162558686988" lon="11.394717875325568"><ele>132.14285714285717</ele><time>2026-05-03T14:32:18Z</time></trkpt><trkpt lat="44.41631075639715" lon="11.39480849713964"><ele>134.28571428571428</ele><time>2026-05-03T14:32:19Z</time></trkpt><trkpt lat="44.416365448063964" lon="11.394865927382535"><ele>136.42857142857144</ele><time>2026-05-03T14:32:20Z</time></trkpt><trkpt lat="44.416418142894386" lon="11.394930944145143"><ele>138.57142857142858</ele><time>2026-05-03T14:32:21Z</time></trkpt><trkpt lat="44.41646673122233" lon="11.394993400526484"><ele>140.71428571428572</ele><time>2026-05-03T14:32:22Z</time></trkpt><trkpt lat="44.41651479283719" lon="11.395071566473014"><ele>142.85714285714286</ele><time>2026-05-03T14:32:23Z</time></trkpt><trkpt lat="44.41656966399005" lon="11.39516091048753"><ele>145.0</ele><time>2026-05-03T14:32:24Z</time></trkpt><trkpt lat="44.41663959060317" lon="11.395260275717908"><ele>145.0</ele><time>2026-05-03T14:32:25Z</time></trkpt><trkpt lat="44.4166856155441" lon="11.395357628649474"><ele>145.0</ele><time>2026-05-03T14:32:26Z</time></trkpt><trkpt lat="44.4167344233046" lon="11.39545056174666"><ele>145.0</ele><time>2026-05-03T14:32:27Z</time></trkpt><trkpt lat="44.41679057986757" lon="11.395518305524378"><ele>145.0</ele><time>2026-05-03T14:32:28Z</time></trkpt><trkpt lat="44.416874660602105" lon="11.395603359274764"><ele>145.0</ele><time>2026-05-03T14:32:29Z</time></trkpt><trkpt lat="44.41696275536098" lon="11.395688288644862"><ele>145.2</ele><time>2026-05-03T14:32:30Z</time></trkpt><trkpt lat="44.41703302520486" lon="11.395752834456708"><ele>145.4</ele><time>2026-05-03T14:32:31Z</time></trkpt><trkpt lat="44.417068647920125" lon="11.395863568002605"><ele>145.6</ele><time>2026-05-03T14:32:32Z</time></trkpt><trkpt lat="44.41713235197311" lon="11.39601510186271"><ele>145.8</ele><time>2026-05-03T14:32:33Z</time></trkpt><trkpt lat="44.417192324148964" lon="11.396106217847047"><ele>146.0</ele><time>2026-05-03T14:32:34Z</time></trkpt><trkpt lat="44.417277567849666" lon="11.396191967661487"><ele>146.0</ele><time>2026-05-03T14:32:36Z</time></trkpt><trkpt lat="44.41734268098998" lon="11.396238187458732"><ele>146.0</ele><time>2026-05-03T14:32:37Z</time></trkpt><trkpt lat="44.41741884524665" lon="11.396294683968248"><ele>146.0</ele><time>2026-05-03T14:32:38Z</time></trkpt><trkpt lat="44.41744872915345" lon="11.396389821234887"><ele>146.0</ele><time>2026-05-03T14:32:39Z</time></trkpt><trkpt lat="44.41749994496297" lon="11.396493231067229"><ele>146.0</ele><time>2026-05-03T14:32:40Z</time></trkpt><trkpt lat="44.41757318987928" lon="11.396593517747215"><ele>146.0</ele><time>2026-05-03T14:32:41Z</time></trkpt><trkpt lat="44.41764113656764" lon="11.396696409465875"><ele>147.0</ele><time>2026-05-03T14:32:42Z</time></trkpt><trkpt lat="44.4177227603209" lon="11.396760508909512"><ele>148.0</ele><time>2026-05-03T14:32:43Z</time></trkpt><trkpt lat="44.417803652593115" lon="11.396809059901157"><ele>149.0</ele><time>2026-05-03T14:32:44Z</time></trkpt><trkpt lat="44.4179036259178" lon="11.396856249410515"><ele>150.0</ele><time>2026-05-03T14:32:45Z</time></trkpt><trkpt lat="44.41801510451199" lon="11.3969020977371"><ele>151.0</ele><time>2026-05-03T14:32:46Z</time></trkpt><trkpt lat="44.418104974132866" lon="11.39699284871224"><ele>151.0</ele><time>2026-05-03T14:32:47Z</time></trkpt><trkpt lat="44.41820679696722" lon="11.39706044628812"><ele>151.0</ele><time>2026-05-03T14:32:48Z</time></trkpt><trkpt lat="44.41830826324046" lon="11.397159304132911"><ele>151.0</ele><time>2026-05-03T14:32:49Z</time></trkpt><trkpt lat="44.418386562441675" lon="11.397249148729577"><ele>151.0</ele><time>2026-05-03T14:32:50Z</time></trkpt><trkpt lat="44.418444083560104" lon="11.397300893202647"><ele>151.0</ele><time>2026-05-03T14:32:51Z</time></trkpt><trkpt lat="44.41851291790063" lon="11.39743466307013"><ele>155.0</ele><time>2026-05-03T14:32:53Z</time></trkpt><trkpt lat="44.41855071788601" lon="11.397565996940253"><ele>159.0</ele><time>2026-05-03T14:32:55Z</time></trkpt><trkpt lat="44.41855159234694" lon="11.397655404453944"><ele>163.0</ele><time>2026-05-03T14:32:57Z</time></trkpt><trkpt lat="44.418570997651955" lon="11.397760535477115"><ele>167.0</ele><time>2026-05-03T14:33:00Z</time></trkpt><trkpt lat="44.418578883509745" lon="11.397934136999515"><ele>171.0</ele><time>2026-05-03T14:33:02Z</time></trkpt><trkpt lat="44.41857020970879" lon="11.398063285674574"><ele>171.0</ele><time>2026-05-03T14:33:03Z</time></trkpt><trkpt lat="44.4185559978682" lon="11.398171681143486"><ele>171.0</ele><time>2026-05-03T14:33:05Z</time></trkpt><trkpt lat="44.418613935918245" lon="11.398270864637741"><ele>171.0</ele><time>2026-05-03T14:33:07Z</time></trkpt><trkpt lat="44.418663585417484" lon="11.398339398289185"><ele>171.0</ele><time>2026-05-03T14:33:08Z</time></trkpt><trkpt lat="44.41872461781953" lon="11.398405937770947"><ele>171.0</ele><time>2026-05-03T14:33:09Z</time></trkpt><trkpt lat="44.41877587392437" lon="11.398468308826052"><ele>171.0</ele><time>2026-05-03T14:33:10Z</time></trkpt><trkpt lat="44.41883699205234" lon="11.39853405806358"><ele>171.0</ele><time>2026-05-03T14:33:11Z</time></trkpt><trkpt lat="44.418909732493944" lon="11.398600425019904"><ele>171.0</ele><time>2026-05-03T14:33:12Z</time></trkpt><trkpt lat="44.41898408038613" lon="11.398671233482828"><ele>171.0</ele><time>2026-05-03T14:33:13Z</time></trkpt><trkpt lat="44.4190756048233" lon="11.398748651890898"><ele>171.0</ele><time>2026-05-03T14:33:14Z</time></trkpt><trkpt lat="44.419133175992975" lon="11.398786846080737"><ele>171.0</ele><time>2026-05-03T14:33:15Z</time></trkpt><trkpt lat="44.41918607198487" lon="11.398848407281639"><ele>171.0</ele><time>2026-05-03T14:33:17Z</time></trkpt><trkpt lat="44.41923136144381" lon="11.398912160085688"><ele>174.60000000000002</ele><time>2026-05-03T14:33:19Z</time></trkpt><trkpt lat="44.41914508969835" lon="11.39901177650545"><ele>178.2</ele><time>2026-05-03T14:33:21.999Z</time></trkpt><trkpt lat="44.41907537846686" lon="11.399038661314501"><ele>181.8</ele><time>2026-05-03T14:33:22.999Z</time></trkpt><trkpt lat="44.41899524702441" lon="11.399053858864686"><ele>185.39999999999998</ele><time>2026-05-03T14:33:23.999Z</time></trkpt><trkpt lat="44.41890403731048" lon="11.399071229114561"><ele>189.0</ele><time>2026-05-03T14:33:24.999Z</time></trkpt><trkpt lat="44.418802721435235" lon="11.399091590120767"><ele>191.2</ele><time>2026-05-03T14:33:25.999Z</time></trkpt><trkpt lat="44.41869843549396" lon="11.399115759397736"><ele>193.39999999999998</ele><time>2026-05-03T14:33:26.999Z</time></trkpt><trkpt lat="44.41860760178749" lon="11.399119481944338"><ele>195.6</ele><time>2026-05-03T14:33:27.999Z</time></trkpt><trkpt lat="44.41851543252267" lon="11.399126408734361"><ele>197.8</ele><time>2026-05-03T14:33:28.999Z</time></trkpt><trkpt lat="44.41839164387615" lon="11.399153716370217"><ele>200.0</ele><time>2026-05-03T14:33:29.999Z</time></trkpt><trkpt lat="44.41825716467812" lon="11.399150734989382"><ele>200.0</ele><time>2026-05-03T14:33:30.999Z</time></trkpt><trkpt lat="44.4181396708076" lon="11.39916234773703"><ele>200.0</ele><time>2026-05-03T14:33:31.999Z</time></trkpt><trkpt lat="44.41801664402977" lon="11.399174920019885"><ele>200.0</ele><time>2026-05-03T14:33:32.999Z</time></trkpt><trkpt lat="44.417897023553515" lon="11.399186564665477"><ele>200.0</ele><time>2026-05-03T14:33:33.999Z</time></trkpt><trkpt lat="44.417825262228284" lon="11.399187636708312"><ele>200.0</ele><time>2026-05-03T14:33:34.999Z</time></trkpt><trkpt lat="44.41775947153584" lon="11.399182982905751"><ele>200.00000000000003</ele><time>2026-05-03T14:33:35.999Z</time></trkpt><trkpt lat="44.417682733701575" lon="11.39914700159067"><ele>200.0</ele><time>2026-05-03T14:33:36.999Z</time></trkpt><trkpt lat="44.417609812603665" lon="11.399095637493172"><ele>200.0</ele><time>2026-05-03T14:33:37.999Z</time></trkpt><trkpt lat="44.41754367431833" lon="11.399042734000941"><ele>200.0</ele><time>2026-05-03T14:33:38.999Z</time></trkpt><trkpt lat="44.41746855940576" lon="11.398969660849215"><ele>200.00000000000003</ele><time>2026-05-03T14:33:39.999Z</time></trkpt><trkpt lat="44.417376648314175" lon="11.398882774381233"><ele>200.0</ele><time>2026-05-03T14:33:40.999Z</time></trkpt><trkpt lat="44.41730347011833" lon="11.39882238444344"><ele>200.0</ele><time>2026-05-03T14:33:41.999Z</time></trkpt><trkpt lat="44.41722807770721" lon="11.398783720996809"><ele>200.0</ele><time>2026-05-03T14:33:43Z</time></trkpt><trkpt lat="44.41714185056599" lon="11.398760218723845"><ele>200.0</ele><time>2026-05-03T14:33:44Z</time></trkpt><trkpt lat="44.41702578722492" lon="11.39873258548464"><ele>200.0</ele><time>2026-05-03T14:33:45Z</time></trkpt><trkpt lat="44.41689061713393" lon="11.398695638335191"><ele>200.0</ele><time>2026-05-03T14:33:46Z</time></trkpt><trkpt lat="44.416790966348444" lon="11.398661261999415"><ele>202.4</ele><time>2026-05-03T14:33:47Z</time></trkpt><trkpt lat="44.41670709232326" lon="11.398631222166722"><ele>204.8</ele><time>2026-05-03T14:33:48Z</time></trkpt><trkpt lat="44.416601494933985" lon="11.398593401975958"><ele>207.2</ele><time>2026-05-03T14:33:49Z</time></trkpt><trkpt lat="44.41649455293378" lon="11.39860623962135"><ele>209.6</ele><time>2026-05-03T14:33:50Z</time></trkpt><trkpt lat="44.41637161156987" lon="11.398578486359085"><ele>212.0</ele><time>2026-05-03T14:33:51Z</time></trkpt><trkpt lat="44.416235115188016" lon="11.398555788754384"><ele>213.00000000000003</ele><time>2026-05-03T14:33:52Z</time></trkpt><trkpt lat="44.41613428764902" lon="11.398547294066919"><ele>214.0</ele><time>2026-05-03T14:33:53Z</time></trkpt><trkpt lat="44.41605675270732" lon="11.398541640529723"><ele>215.0</ele><time>2026-05-03T14:33:54Z</time></trkpt><trkpt lat="44.41597255468302" lon="11.398574834640435"><ele>216.0</ele><time>2026-05-03T14:33:56Z</time></trkpt><trkpt lat="44.4159114219982" lon="11.398638659117703"><ele>217.00000000000003</ele><time>2026-05-03T14:33:58Z</time></trkpt><trkpt lat="44.415913614980575" lon="11.398752299770097"><ele>218.0</ele><time>2026-05-03T14:34:01Z</time></trkpt><trkpt lat="44.41604797497565" lon="11.398824354962036"><ele>220.2</ele><time>2026-05-03T14:34:02Z</time></trkpt><trkpt lat="44.41612750260375" lon="11.398906949306495"><ele>222.4</ele><time>2026-05-03T14:34:03Z</time></trkpt><trkpt lat="44.41620490605721" lon="11.398994912926971"><ele>224.59999999999997</ele><time>2026-05-03T14:34:04Z</time></trkpt><trkpt lat="44.41627564456777" lon="11.39910483317341"><ele>226.79999999999998</ele><time>2026-05-03T14:34:05Z</time></trkpt><trkpt lat="44.416322876481885" lon="11.399189541312449"><ele>229.0</ele><time>2026-05-03T14:34:06Z</time></trkpt><trkpt lat="44.416379286242616" lon="11.399311431541012"><ele>229.0</ele><time>2026-05-03T14:34:07Z</time></trkpt><trkpt lat="44.416442248578775" lon="11.399460408471047"><ele>228.99999999999997</ele><time>2026-05-03T14:34:08Z</time></trkpt><trkpt lat="44.41650179479513" lon="11.399595799558782"><ele>228.99999999999997</ele><time>2026-05-03T14:34:09Z</time></trkpt><trkpt lat="44.41654762617141" lon="11.399696054649647"><ele>229.0</ele><time>2026-05-03T14:34:10Z</time></trkpt><trkpt lat="44.416586780850054" lon="11.39980708919017"><ele>229.0</ele><time>2026-05-03T14:34:11Z</time></trkpt><trkpt lat="44.4165921706562" lon="11.399906560519932"><ele>231.5</ele><time>2026-05-03T14:34:12Z</time></trkpt><trkpt lat="44.41654662533553" lon="11.399978109554366"><ele>234.0</ele><time>2026-05-03T14:34:13Z</time></trkpt><trkpt lat="44.41654562829513" lon="11.400078581634535"><ele>236.5</ele><time>2026-05-03T14:34:15Z</time></trkpt><trkpt lat="44.4163552561302" lon="11.399900862752483"><ele>239.0</ele><time>2026-05-03T14:34:20Z</time></trkpt><trkpt lat="44.41627092621077" lon="11.399799319116065"><ele>238.33333333333334</ele><time>2026-05-03T14:34:21Z</time></trkpt><trkpt lat="44.41619935820196" lon="11.399713955290535"><ele>237.66666666666669</ele><time>2026-05-03T14:34:22Z</time></trkpt><trkpt lat="44.41614438772108" lon="11.399662775897127"><ele>237.0</ele><time>2026-05-03T14:34:23Z</time></trkpt><trkpt lat="44.416079519697874" lon="11.399634524143584"><ele>236.33333333333331</ele><time>2026-05-03T14:34:24Z</time></trkpt><trkpt lat="44.41600460740819" lon="11.399614977606632"><ele>235.66666666666666</ele><time>2026-05-03T14:34:25Z</time></trkpt><trkpt lat="44.4159086266399" lon="11.399576761844003"><ele>235.0</ele><time>2026-05-03T14:34:26Z</time></trkpt><trkpt lat="44.41582675907659" lon="11.399555719991389"><ele>234.99999999999997</ele><time>2026-05-03T14:34:27Z</time></trkpt><trkpt lat="44.41575628506809" lon="11.399551959185668"><ele>235.0</ele><time>2026-05-03T14:34:28Z</time></trkpt><trkpt lat="44.41568864957826" lon="11.399554657867343"><ele>235.0</ele><time>2026-05-03T14:34:29Z</time></trkpt><trkpt lat="44.41561607272089" lon="11.399530627296176"><ele>235.0</ele><time>2026-05-03T14:34:31Z</time></trkpt><trkpt lat="44.41556402215657" lon="11.399580913795496"><ele>234.99999999999997</ele><time>2026-05-03T14:34:33Z</time></trkpt><trkpt lat="44.415465293050836" lon="11.399601736788794"><ele>235.0</ele><time>2026-05-03T14:34:35Z</time></trkpt><trkpt lat="44.41536839280379" lon="11.399659284450614"><ele>236.49999999999997</ele><time>2026-05-03T14:34:37Z</time></trkpt><trkpt lat="44.415286206824504" lon="11.399680417328154"><ele>238.0</ele><time>2026-05-03T14:34:39Z</time></trkpt><trkpt lat="44.41518841751162" lon="11.399658599553304"><ele>239.5</ele><time>2026-05-03T14:34:41Z</time></trkpt><trkpt lat="44.415126331237516" lon="11.399642592469197"><ele>241.0</ele><time>2026-05-03T14:34:42Z</time></trkpt><trkpt lat="44.41504201917102" lon="11.39958462912585"><ele>242.49999999999997</ele><time>2026-05-03T14:34:44Z</time></trkpt><trkpt lat="44.41496925194371" lon="11.399528502547938"><ele>244.0</ele><time>2026-05-03T14:34:46Z</time></trkpt><trkpt lat="44.41488689379733" lon="11.399509534670116"><ele>243.99999999999997</ele><time>2026-05-03T14:34:48Z</time></trkpt><trkpt lat="44.41481671245439" lon="11.399440951534054"><ele>244.0</ele><time>2026-05-03T14:34:50Z</time></trkpt><trkpt lat="44.41476679865274" lon="11.399367913615283"><ele>244.0</ele><time>2026-05-03T14:34:52Z</time></trkpt><trkpt lat="44.41473100403719" lon="11.399275984231325"><ele>244.0</ele><time>2026-05-03T14:35:04Z</time></trkpt><trkpt lat="44.414699196508586" lon="11.399188548732898"><ele>243.99999999999997</ele><time>2026-05-03T14:35:06Z</time></trkpt><trkpt lat="44.41467113467263" lon="11.399028991237142"><ele>244.0</ele><time>2026-05-03T14:35:08Z</time></trkpt><trkpt lat="44.41464509660803" lon="11.39887005094815"><ele>244.49999999999997</ele><time>2026-05-03T14:35:10Z</time></trkpt><trkpt lat="44.41461390604792" lon="11.39879215899246"><ele>245.0</ele><time>2026-05-03T14:35:11Z</time></trkpt><trkpt lat="44.41456068114771" lon="11.398650800827571"><ele>245.5</ele><time>2026-05-03T14:35:13Z</time></trkpt><trkpt lat="44.41449878952664" lon="11.398582775379609"><ele>246.0</ele><time>2026-05-03T14:35:15Z</time></trkpt><trkpt lat="44.41440807394431" lon="11.398571720963234"><ele>246.49999999999997</ele><time>2026-05-03T14:35:17Z</time></trkpt><trkpt lat="44.414339521175435" lon="11.398586175118936"><ele>247.0</ele><time>2026-05-03T14:35:19Z</time></trkpt><trkpt lat="44.414251002131834" lon="11.398621772332215"><ele>246.99999999999997</ele><time>2026-05-03T14:35:31.999Z</time></trkpt><trkpt lat="44.41414605869448" lon="11.398681908673282"><ele>247.0</ele><time>2026-05-03T14:35:33.999Z</time></trkpt><trkpt lat="44.41407787320386" lon="11.39872027411267"><ele>247.0</ele><time>2026-05-03T14:35:34.999Z</time></trkpt><trkpt lat="44.41401648322717" lon="11.398740815122409"><ele>247.0</ele><time>2026-05-03T14:35:35.999Z</time></trkpt><trkpt lat="44.413912110716325" lon="11.398792890051762"><ele>246.99999999999997</ele><time>2026-05-03T14:35:37.999Z</time></trkpt><trkpt lat="44.41385809777468" lon="11.398838260003604"><ele>247.0</ele><time>2026-05-03T14:35:38.999Z</time></trkpt><trkpt lat="44.4137313733056" lon="11.398913874978955"><ele>250.66666666666666</ele><time>2026-05-03T14:35:40.999Z</time></trkpt><trkpt lat="44.41366041469029" lon="11.39896245485761"><ele>254.33333333333331</ele><time>2026-05-03T14:35:41.999Z</time></trkpt><trkpt lat="44.41360534801616" lon="11.399015398804583"><ele>258.0</ele><time>2026-05-03T14:35:42.999Z</time></trkpt><trkpt lat="44.41353651768896" lon="11.399057192897313"><ele>261.6666666666667</ele><time>2026-05-03T14:35:44.999Z</time></trkpt><trkpt lat="44.4134484299108" lon="11.399069494957395"><ele>265.33333333333337</ele><time>2026-05-03T14:35:46.999Z</time></trkpt><trkpt lat="44.41332107952532" lon="11.399073286525132"><ele>269.0</ele><time>2026-05-03T14:35:49Z</time></trkpt><trkpt lat="44.413232942261445" lon="11.399045536715652"><ele>269.0</ele><time>2026-05-03T14:35:51Z</time></trkpt><trkpt lat="44.41316550292839" lon="11.399009468524515"><ele>269.0</ele><time>2026-05-03T14:35:52Z</time></trkpt><trkpt lat="44.41309231413046" lon="11.398973205746021"><ele>269.0</ele><time>2026-05-03T14:35:53Z</time></trkpt><trkpt lat="44.412992629480065" lon="11.398888569012055"><ele>269.0</ele><time>2026-05-03T14:35:55Z</time></trkpt><trkpt lat="44.4129357109652" lon="11.398834373282812"><ele>269.0</ele><time>2026-05-03T14:35:56Z</time></trkpt><trkpt lat="44.41287276945062" lon="11.398772143925667"><ele>269.0</ele><time>2026-05-03T14:35:57Z</time></trkpt><trkpt lat="44.41281182775648" lon="11.398714663771901"><ele>268.4</ele><time>2026-05-03T14:35:58Z</time></trkpt><trkpt lat="44.41273604846442" lon="11.398653056602104"><ele>267.79999999999995</ele><time>2026-05-03T14:35:59Z</time></trkpt><trkpt lat="44.412641982611085" lon="11.398540724693937"><ele>267.20000000000005</ele><time>2026-05-03T14:36:01Z</time></trkpt><trkpt lat="44.41256329429017" lon="11.398482971187041"><ele>266.6</ele><time>2026-05-03T14:36:03Z</time></trkpt><trkpt lat="44.412479823199966" lon="11.398533107162894"><ele>266.0</ele><time>2026-05-03T14:36:06Z</time></trkpt><trkpt lat="44.41243110138509" lon="11.398592196511474"><ele>266.0</ele><time>2026-05-03T14:36:08Z</time></trkpt><trkpt lat="44.412426193323384" lon="11.398680285991302"><ele>266.0</ele><time>2026-05-03T14:38:37Z</time></trkpt><trkpt lat="44.41242569173722" lon="11.398769809928428"><ele>266.0</ele><time>2026-05-03T14:38:38Z</time></trkpt><trkpt lat="44.41243863429237" lon="11.398899722231723"><ele>266.0</ele><time>2026-05-03T14:38:39Z</time></trkpt><trkpt lat="44.412444270367565" lon="11.399029114682373"><ele>266.0</ele><time>2026-05-03T14:38:40Z</time></trkpt><trkpt lat="44.41245256935182" lon="11.399174619387214"><ele>266.0</ele><time>2026-05-03T14:38:41Z</time></trkpt><trkpt lat="44.41245924785567" lon="11.399328870138762"><ele>267.8</ele><time>2026-05-03T14:38:42Z</time></trkpt><trkpt lat="44.41246800416241" lon="11.399456942124335"><ele>269.6</ele><time>2026-05-03T14:38:43Z</time></trkpt><trkpt lat="44.41243114792821" lon="11.399550399842113"><ele>271.4</ele><time>2026-05-03T14:38:44Z</time></trkpt><trkpt lat="44.41244794091102" lon="11.399658051104607"><ele>273.2</ele><time>2026-05-03T14:38:46Z</time></trkpt><trkpt lat="44.412474989130125" lon="11.399756712110902"><ele>275.0</ele><time>2026-05-03T14:38:48Z</time></trkpt><trkpt lat="44.412550416280546" lon="11.399924884330563"><ele>276.4</ele><time>2026-05-03T14:38:50Z</time></trkpt><trkpt lat="44.41260796606108" lon="11.400025732100337"><ele>277.8</ele><time>2026-05-03T14:38:51Z</time></trkpt><trkpt lat="44.412677824593274" lon="11.400135823552741"><ele>279.2</ele><time>2026-05-03T14:38:52Z</time></trkpt><trkpt lat="44.41276411973786" lon="11.400269281252994"><ele>280.6</ele><time>2026-05-03T14:38:53Z</time></trkpt><trkpt lat="44.41283155433103" lon="11.400365662166271"><ele>282.0</ele><time>2026-05-03T14:38:54Z</time></trkpt><trkpt lat="44.41288421779078" lon="11.400434039001516"><ele>282.8</ele><time>2026-05-03T14:38:55Z</time></trkpt><trkpt lat="44.41294352029987" lon="11.400518910634151"><ele>283.6</ele><time>2026-05-03T14:38:57Z</time></trkpt><trkpt lat="44.4129813707455" lon="11.400601911358555"><ele>284.40000000000003</ele><time>2026-05-03T14:38:59Z</time></trkpt><trkpt lat="44.41289599094551" lon="11.400794615155888"><ele>285.2</ele><time>2026-05-03T14:39:01Z</time></trkpt><trkpt lat="44.41285697533937" lon="11.400916293946688"><ele>286.0</ele><time>2026-05-03T14:39:02Z</time></trkpt><trkpt lat="44.412819496953155" lon="11.401053680160548"><ele>286.0</ele><time>2026-05-03T14:39:03Z</time></trkpt><trkpt lat="44.41280672477243" lon="11.401201430210739"><ele>286.0</ele><time>2026-05-03T14:39:04Z</time></trkpt><trkpt lat="44.4127582518419" lon="11.401347127488478"><ele>286.0</ele><time>2026-05-03T14:39:05Z</time></trkpt><trkpt lat="44.41271824313839" lon="11.401480729688293"><ele>286.0</ele><time>2026-05-03T14:39:06Z</time></trkpt><trkpt lat="44.41266055334017" lon="11.401593007570517"><ele>286.0</ele><time>2026-05-03T14:39:07Z</time></trkpt><trkpt lat="44.41256976711989" lon="11.40171098332217"><ele>287.0</ele><time>2026-05-03T14:39:08Z</time></trkpt><trkpt lat="44.41245244948639" lon="11.401836530866372"><ele>288.0</ele><time>2026-05-03T14:39:09Z</time></trkpt><trkpt lat="44.412335086648774" lon="11.401959633994556"><ele>289.0</ele><time>2026-05-03T14:39:10Z</time></trkpt><trkpt lat="44.412235616667374" lon="11.402063969076064"><ele>290.0</ele><time>2026-05-03T14:39:11Z</time></trkpt><trkpt lat="44.41213353618359" lon="11.402176319245601"><ele>290.0</ele><time>2026-05-03T14:39:12Z</time></trkpt><trkpt lat="44.41205272567125" lon="11.402253778206486"><ele>290.0</ele><time>2026-05-03T14:39:13Z</time></trkpt><trkpt lat="44.411986045981" lon="11.402325918061106"><ele>290.0</ele><time>2026-05-03T14:39:14Z</time></trkpt><trkpt lat="44.41191671493168" lon="11.402432181303976"><ele>290.0</ele><time>2026-05-03T14:39:15Z</time></trkpt><trkpt lat="44.411855885898426" lon="11.402548763081185"><ele>290.0</ele><time>2026-05-03T14:39:16Z</time></trkpt><trkpt lat="44.411791738541865" lon="11.402674797486405"><ele>290.0</ele><time>2026-05-03T14:39:17Z</time></trkpt><trkpt lat="44.4117353580366" lon="11.402825316019491"><ele>290.0</ele><time>2026-05-03T14:39:18Z</time></trkpt><trkpt lat="44.41166153189973" lon="11.402984929691117"><ele>290.0</ele><time>2026-05-03T14:39:19Z</time></trkpt><trkpt lat="44.41157841113928" lon="11.403139436997535"><ele>290.0</ele><time>2026-05-03T14:39:20Z</time></trkpt><trkpt lat="44.41150116845831" lon="11.403276168148986"><ele>291.4</ele><time>2026-05-03T14:39:21Z</time></trkpt><trkpt lat="44.41143644986573" lon="11.403419023701344"><ele>292.8</ele><time>2026-05-03T14:39:22Z</time></trkpt><trkpt lat="44.41136454964118" lon="11.403536196682321"><ele>294.2</ele><time>2026-05-03T14:39:23Z</time></trkpt><trkpt lat="44.41128984759521" lon="11.403629117580078"><ele>295.6</ele><time>2026-05-03T14:39:24Z</time></trkpt><trkpt lat="44.41123217320441" lon="11.403736170132483"><ele>297.0</ele><time>2026-05-03T14:39:25Z</time></trkpt><trkpt lat="44.41117277858703" lon="11.40382542977854"><ele>293.5</ele><time>2026-05-03T14:39:26Z</time></trkpt><trkpt lat="44.41110102249745" lon="11.403906012390438"><ele>290.0</ele><time>2026-05-03T14:39:27Z</time></trkpt><trkpt lat="44.41101409398717" lon="11.403983126478538"><ele>286.5</ele><time>2026-05-03T14:39:28Z</time></trkpt><trkpt lat="44.41089188644341" lon="11.404025031048374"><ele>283.0</ele><time>2026-05-03T14:39:29Z</time></trkpt><trkpt lat="44.41076875396933" lon="11.404110426590046"><ele>283.0</ele><time>2026-05-03T14:39:30Z</time></trkpt><trkpt lat="44.41065715278143" lon="11.404225895299955"><ele>283.0</ele><time>2026-05-03T14:39:31Z</time></trkpt><trkpt lat="44.41054550085964" lon="11.404337145867359"><ele>283.0</ele><time>2026-05-03T14:39:32Z</time></trkpt><trkpt lat="44.41042563444495" lon="11.404430913904687"><ele>283.0</ele><time>2026-05-03T14:39:33Z</time></trkpt><trkpt lat="44.41032094419761" lon="11.404526749238041"><ele>281.6</ele><time>2026-05-03T14:39:34Z</time></trkpt><trkpt lat="44.41022111770075" lon="11.40461491539364"><ele>280.20000000000005</ele><time>2026-05-03T14:39:34.999Z</time></trkpt><trkpt lat="44.410126956800624" lon="11.404697841594919"><ele>278.8</ele><time>2026-05-03T14:39:35.999Z</time></trkpt><trkpt lat="44.41004987103541" lon="11.404792963770474"><ele>277.40000000000003</ele><time>2026-05-03T14:39:36.999Z</time></trkpt><trkpt lat="44.409974069651305" lon="11.404846557020402"><ele>276.0</ele><time>2026-05-03T14:39:37.999Z</time></trkpt><trkpt lat="44.4099235962036" lon="11.404905660272712"><ele>276.0</ele><time>2026-05-03T14:39:38.999Z</time></trkpt><trkpt lat="44.40985365746897" lon="11.405011869738617"><ele>276.0</ele><time>2026-05-03T14:39:40.999Z</time></trkpt><trkpt lat="44.40981985229883" lon="11.405108083260439"><ele>276.0</ele><time>2026-05-03T14:39:42.999Z</time></trkpt><trkpt lat="44.4097842859515" lon="11.405183151273414"><ele>276.0</ele><time>2026-05-03T14:39:43.999Z</time></trkpt><trkpt lat="44.4097301671997" lon="11.405306742057876"><ele>276.0</ele><time>2026-05-03T14:39:45.999Z</time></trkpt><trkpt lat="44.40966861568364" lon="11.40540526463813"><ele>276.0</ele><time>2026-05-03T14:39:47.999Z</time></trkpt><trkpt lat="44.40961701466268" lon="11.405568200645654"><ele>274.0</ele><time>2026-05-03T14:39:49.999Z</time></trkpt><trkpt lat="44.409571897839015" lon="11.405656070245136"><ele>272.0</ele><time>2026-05-03T14:39:50.999Z</time></trkpt><trkpt lat="44.40953352794682" lon="11.405758507202545"><ele>270.0</ele><time>2026-05-03T14:39:51.999Z</time></trkpt><trkpt lat="44.409481261592695" lon="11.405849615599115"><ele>268.0</ele><time>2026-05-03T14:39:52.999Z</time></trkpt><trkpt lat="44.409447147921824" lon="11.405959132502266"><ele>266.0</ele><time>2026-05-03T14:39:53.999Z</time></trkpt><trkpt lat="44.409407345752335" lon="11.406071005124485"><ele>264.0</ele><time>2026-05-03T14:39:54.999Z</time></trkpt><trkpt lat="44.40935969900102" lon="11.406197878001706"><ele>264.0</ele><time>2026-05-03T14:39:55.999Z</time></trkpt><trkpt lat="44.40932335773322" lon="11.406320043292148"><ele>264.0</ele><time>2026-05-03T14:39:56.999Z</time></trkpt><trkpt lat="44.40928991348074" lon="11.406420468503615"><ele>264.0</ele><time>2026-05-03T14:39:57.999Z</time></trkpt><trkpt lat="44.409261604599415" lon="11.406527800444287"><ele>264.0</ele><time>2026-05-03T14:39:58.999Z</time></trkpt><trkpt lat="44.40923510761405" lon="11.406631826126759"><ele>264.0</ele><time>2026-05-03T14:40:00Z</time></trkpt><trkpt lat="44.40920917885415" lon="11.40672639644655"><ele>264.0</ele><time>2026-05-03T14:40:01Z</time></trkpt><trkpt lat="44.409175232978136" lon="11.406807547326725"><ele>264.0</ele><time>2026-05-03T14:40:02Z</time></trkpt><trkpt lat="44.4091160330848" lon="11.406873363691043"><ele>264.0</ele><time>2026-05-03T14:40:03Z</time></trkpt><trkpt lat="44.4090635913679" lon="11.406945325193764"><ele>264.0</ele><time>2026-05-03T14:40:04Z</time></trkpt><trkpt lat="44.40900959392735" lon="11.407009857168504"><ele>264.0</ele><time>2026-05-03T14:40:05Z</time></trkpt><trkpt lat="44.40895313508879" lon="11.407071322209795"><ele>264.0</ele><time>2026-05-03T14:40:06Z</time></trkpt><trkpt lat="44.408898086045035" lon="11.407129395086184"><ele>264.0</ele><time>2026-05-03T14:40:07Z</time></trkpt><trkpt lat="44.40884360776784" lon="11.407186866006084"><ele>264.0</ele><time>2026-05-03T14:40:08Z</time></trkpt><trkpt lat="44.40879000593299" lon="11.407243412243414"><ele>261.1666666666667</ele><time>2026-05-03T14:40:09Z</time></trkpt><trkpt lat="44.40873425243536" lon="11.407302228380408"><ele>258.3333333333333</ele><time>2026-05-03T14:40:10Z</time></trkpt><trkpt lat="44.40867359260122" lon="11.407366220349903"><ele>255.5</ele><time>2026-05-03T14:40:11Z</time></trkpt><trkpt lat="44.40861028296376" lon="11.407433007716602"><ele>252.66666666666666</ele><time>2026-05-03T14:40:12Z</time></trkpt><trkpt lat="44.408548248822136" lon="11.407498970150476"><ele>249.83333333333331</ele><time>2026-05-03T14:40:13Z</time></trkpt><trkpt lat="44.40847879335477" lon="11.407573436264297"><ele>247.0</ele><time>2026-05-03T14:40:14Z</time></trkpt><trkpt lat="44.40841179127596" lon="11.407645272050518"><ele>246.99999999999997</ele><time>2026-05-03T14:40:15Z</time></trkpt><trkpt lat="44.40835236317319" lon="11.407709556991875"><ele>247.0</ele><time>2026-05-03T14:40:16Z</time></trkpt><trkpt lat="44.40830088454657" lon="11.407792746125613"><ele>247.0</ele><time>2026-05-03T14:40:17Z</time></trkpt><trkpt lat="44.40823087406238" lon="11.40786027772152"><ele>247.0</ele><time>2026-05-03T14:40:18Z</time></trkpt><trkpt lat="44.40816388377329" lon="11.407931067253275"><ele>246.99999999999997</ele><time>2026-05-03T14:40:19Z</time></trkpt><trkpt lat="44.40809440236177" lon="11.408005132783492"><ele>247.0</ele><time>2026-05-03T14:40:20Z</time></trkpt><trkpt lat="44.40802037974872" lon="11.408091535916746"><ele>245.83333333333331</ele><time>2026-05-03T14:40:21Z</time></trkpt><trkpt lat="44.40795312501388" lon="11.408164079222823"><ele>244.66666666666666</ele><time>2026-05-03T14:40:22Z</time></trkpt><trkpt lat="44.40789266945459" lon="11.408228591821912"><ele>243.5</ele><time>2026-05-03T14:40:23Z</time></trkpt><trkpt lat="44.40782931492771" lon="11.408285540721156"><ele>242.33333333333331</ele><time>2026-05-03T14:40:24Z</time></trkpt><trkpt lat="44.40776640620605" lon="11.408352802602842"><ele>241.16666666666666</ele><time>2026-05-03T14:40:25Z</time></trkpt><trkpt lat="44.40769321330023" lon="11.408434517949388"><ele>240.0</ele><time>2026-05-03T14:40:26Z</time></trkpt><trkpt lat="44.407618094305015" lon="11.408514827363486"><ele>240.0</ele><time>2026-05-03T14:40:27Z</time></trkpt><trkpt lat="44.407554234516354" lon="11.408573896672875"><ele>240.0</ele><time>2026-05-03T14:40:28Z</time></trkpt><trkpt lat="44.407488638339586" lon="11.408645435635625"><ele>240.0</ele><time>2026-05-03T14:40:29Z</time></trkpt><trkpt lat="44.407421342472425" lon="11.408703076492131"><ele>240.0</ele><time>2026-05-03T14:40:30Z</time></trkpt><trkpt lat="44.40735765788802" lon="11.40876928694702"><ele>240.0</ele><time>2026-05-03T14:40:31Z</time></trkpt><trkpt lat="44.40728267707973" lon="11.408868411907308"><ele>240.0</ele><time>2026-05-03T14:40:32Z</time></trkpt><trkpt lat="44.40719159436486" lon="11.40899249539737"><ele>238.0</ele><time>2026-05-03T14:40:33Z</time></trkpt><trkpt lat="44.40711078480751" lon="11.409102954986027"><ele>236.0</ele><time>2026-05-03T14:40:34Z</time></trkpt><trkpt lat="44.4070458155441" lon="11.409192568243622"><ele>234.0</ele><time>2026-05-03T14:40:35Z</time></trkpt><trkpt lat="44.40696728126384" lon="11.4093101835382"><ele>232.0</ele><time>2026-05-03T14:40:36Z</time></trkpt><trkpt lat="44.40686930939391" lon="11.40942521462632"><ele>230.0</ele><time>2026-05-03T14:40:37Z</time></trkpt><trkpt lat="44.4067979508625" lon="11.40953048308253"><ele>230.0</ele><time>2026-05-03T14:40:38Z</time></trkpt><trkpt lat="44.406738583284046" lon="11.409627277167573"><ele>230.0</ele><time>2026-05-03T14:40:39Z</time></trkpt><trkpt lat="44.40666382641784" lon="11.409755112489949"><ele>230.0</ele><time>2026-05-03T14:40:40Z</time></trkpt><trkpt lat="44.40659365855145" lon="11.409890086447207"><ele>230.0</ele><time>2026-05-03T14:40:41Z</time></trkpt><trkpt lat="44.406536025473706" lon="11.410021387473128"><ele>230.0</ele><time>2026-05-03T14:40:42Z</time></trkpt><trkpt lat="44.40645552383804" lon="11.410170311253433"><ele>230.0</ele><time>2026-05-03T14:40:43Z</time></trkpt><trkpt lat="44.406374942983284" lon="11.410302735326278"><ele>230.0</ele><time>2026-05-03T14:40:44Z</time></trkpt><trkpt lat="44.40629372092593" lon="11.410435388887915"><ele>230.0</ele><time>2026-05-03T14:40:45Z</time></trkpt><trkpt lat="44.40621807599105" lon="11.41058439982744"><ele>230.0</ele><time>2026-05-03T14:40:46Z</time></trkpt><trkpt lat="44.40615142281613" lon="11.410718077552682"><ele>232.4</ele><time>2026-05-03T14:40:47Z</time></trkpt><trkpt lat="44.40608880163395" lon="11.410837358624862"><ele>234.8</ele><time>2026-05-03T14:40:48Z</time></trkpt><trkpt lat="44.406044319893105" lon="11.410917374746353"><ele>237.2</ele><time>2026-05-03T14:40:49Z</time></trkpt><trkpt lat="44.40597704032012" lon="11.411055391288366"><ele>239.6</ele><time>2026-05-03T14:40:51Z</time></trkpt><trkpt lat="44.405893064020695" lon="11.411107179420213"><ele>242.0</ele><time>2026-05-03T14:40:53Z</time></trkpt><trkpt lat="44.4058325763999" lon="11.411077198545026"><ele>242.0</ele><time>2026-05-03T14:40:55Z</time></trkpt><trkpt lat="44.40577264433082" lon="11.41103951179747"><ele>241.99999999999997</ele><time>2026-05-03T14:40:58Z</time></trkpt><trkpt lat="44.405837317062264" lon="11.411062098132966"><ele>242.0</ele><time>2026-05-03T14:42:22Z</time></trkpt><trkpt lat="44.40592653619241" lon="11.411081672386784"><ele>242.0</ele><time>2026-05-03T14:43:10Z</time></trkpt><trkpt lat="44.40585972299378" lon="11.411077370131945"><ele>241.99999999999997</ele><time>2026-05-03T14:46:01.999Z</time></trkpt><trkpt lat="44.40579930265447" lon="11.411047904602793"><ele>242.0</ele><time>2026-05-03T14:46:08.999Z</time></trkpt><trkpt lat="44.40573594119231" lon="11.411035178018444"><ele>242.0</ele><time>2026-05-03T14:46:15.999Z</time></trkpt><trkpt lat="44.40567063092109" lon="11.411040710887177"><ele>242.0</ele><time>2026-05-03T14:46:52Z</time></trkpt><trkpt lat="44.40560643887496" lon="11.411012459189502"><ele>241.99999999999997</ele><time>2026-05-03T14:48:03.999Z</time></trkpt><trkpt lat="44.40552339039768" lon="11.410975029398914"><ele>242.0</ele><time>2026-05-03T14:49:10Z</time></trkpt><trkpt lat="44.40545932386088" lon="11.410955802381867"><ele>242.0</ele><time>2026-05-03T14:49:47Z</time></trkpt><trkpt lat="44.40539723159621" lon="11.410976276097255"><ele>241.99999999999997</ele><time>2026-05-03T14:49:53Z</time></trkpt><trkpt lat="44.40533342963395" lon="11.41097137023757"><ele>242.0</ele><time>2026-05-03T14:49:59.999Z</time></trkpt><trkpt lat="44.40526579887276" lon="11.411014132217607"><ele>242.0</ele><time>2026-05-03T14:50:05.999Z</time></trkpt><trkpt lat="44.40519224500758" lon="11.411049335984236"><ele>241.85714285714283</ele><time>2026-05-03T14:50:10.999Z</time></trkpt><trkpt lat="44.40513171276163" lon="11.41107625892333"><ele>241.7142857142857</ele><time>2026-05-03T14:50:15.999Z</time></trkpt><trkpt lat="44.40506522334679" lon="11.41108270498013"><ele>241.57142857142856</ele><time>2026-05-03T14:50:21.999Z</time></trkpt><trkpt lat="44.404995815960525" lon="11.411107886631513"><ele>241.42857142857144</ele><time>2026-05-03T14:50:28.001Z</time></trkpt><trkpt lat="44.40492463810738" lon="11.411118665065867"><ele>241.2857142857143</ele><time>2026-05-03T14:50:34.001Z</time></trkpt><trkpt lat="44.40486094524764" lon="11.411111545528948"><ele>241.14285714285717</ele><time>2026-05-03T14:50:40.001Z</time></trkpt><trkpt lat="44.40478871728818" lon="11.411108497633338"><ele>241.0</ele><time>2026-05-03T14:50:46Z</time></trkpt><trkpt lat="44.40472645971034" lon="11.411160950526819"><ele>242.20000000000002</ele><time>2026-05-03T14:50:52Z</time></trkpt><trkpt lat="44.404624639423496" lon="11.411230274028625"><ele>243.40000000000003</ele><time>2026-05-03T14:51:43Z</time></trkpt><trkpt lat="44.404556843621776" lon="11.411225488448839"><ele>244.6</ele><time>2026-05-03T14:51:50Z</time></trkpt><trkpt lat="44.404491858556845" lon="11.41117600294758"><ele>245.8</ele><time>2026-05-03T14:51:56Z</time></trkpt><trkpt lat="44.404442005555396" lon="11.411108049565776"><ele>247.0</ele><time>2026-05-03T14:52:02Z</time></trkpt><trkpt lat="44.40455524392409" lon="11.41122087493343"><ele>247.0</ele><time>2026-05-03T14:53:52Z</time></trkpt><trkpt lat="44.40462941888934" lon="11.411211877023263"><ele>247.0</ele><time>2026-05-03T14:57:11Z</time></trkpt><trkpt lat="44.40469262530298" lon="11.411184726642656"><ele>247.0</ele><time>2026-05-03T14:57:15Z</time></trkpt><trkpt lat="44.404751511429076" lon="11.411140226334743"><ele>247.0</ele><time>2026-05-03T14:57:20Z</time></trkpt><trkpt lat="44.40481159300972" lon="11.411099343110097"><ele>247.0</ele><time>2026-05-03T14:57:25Z</time></trkpt><trkpt lat="44.40488798833115" lon="11.41110783819152"><ele>247.0</ele><time>2026-05-03T14:57:30Z</time></trkpt><trkpt lat="44.4049512877195" lon="11.411112808302853"><ele>247.0</ele><time>2026-05-03T14:57:34Z</time></trkpt><trkpt lat="44.40502362509183" lon="11.411099140574494"><ele>246.14285714285717</ele><time>2026-05-03T14:57:40Z</time></trkpt><trkpt lat="44.40508878799372" lon="11.411080259315554"><ele>245.28571428571428</ele><time>2026-05-03T14:57:45Z</time></trkpt><trkpt lat="44.405156769509055" lon="11.41106354822531"><ele>244.42857142857144</ele><time>2026-05-03T14:57:51Z</time></trkpt><trkpt lat="44.405217664166585" lon="11.411035367265498"><ele>243.57142857142858</ele><time>2026-05-03T14:57:56Z</time></trkpt><trkpt lat="44.405282170625505" lon="11.411017320883596"><ele>242.71428571428572</ele><time>2026-05-03T14:58:02Z</time></trkpt><trkpt lat="44.405339089128745" lon="11.410977612896943"><ele>241.85714285714286</ele><time>2026-05-03T14:58:07Z</time></trkpt><trkpt lat="44.40540546954494" lon="11.410969543226592"><ele>241.0</ele><time>2026-05-03T14:58:13Z</time></trkpt><trkpt lat="44.405469548251894" lon="11.410977787438501"><ele>241.14285714285717</ele><time>2026-05-03T14:58:20Z</time></trkpt><trkpt lat="44.405533199816055" lon="11.410993472473384"><ele>241.2857142857143</ele><time>2026-05-03T14:58:46.999Z</time></trkpt><trkpt lat="44.405598701992865" lon="11.411026139270337"><ele>241.42857142857144</ele><time>2026-05-03T14:58:54.001Z</time></trkpt><trkpt lat="44.40566813008744" lon="11.411032655867187"><ele>241.57142857142856</ele><time>2026-05-03T14:58:59.001Z</time></trkpt><trkpt lat="44.405742395476906" lon="11.41102579732215"><ele>241.7142857142857</ele><time>2026-05-03T14:59:05.001Z</time></trkpt><trkpt lat="44.405808097211526" lon="11.411033619857642"><ele>241.85714285714283</ele><time>2026-05-03T14:59:11Z</time></trkpt><trkpt lat="44.405874136379396" lon="11.411068529798422"><ele>242.0</ele><time>2026-05-03T14:59:17Z</time></trkpt><trkpt lat="44.405943297270674" lon="11.411055826771529"><ele>242.00000000000003</ele><time>2026-05-03T14:59:28Z</time></trkpt><trkpt lat="44.40600279781458" lon="11.41099978617016"><ele>242.0</ele><time>2026-05-03T15:01:19Z</time></trkpt><trkpt lat="44.406049707603096" lon="11.410916316223323"><ele>242.0</ele><time>2026-05-03T15:01:21Z</time></trkpt><trkpt lat="44.40610038996534" lon="11.41081026354252"><ele>242.0</ele><time>2026-05-03T15:01:24Z</time></trkpt><trkpt lat="44.406155818480435" lon="11.410710609337158"><ele>242.00000000000003</ele><time>2026-05-03T15:01:27Z</time></trkpt><trkpt lat="44.406197171142466" lon="11.41063029517207"><ele>242.0</ele><time>2026-05-03T15:01:29Z</time></trkpt><trkpt lat="44.40625086143532" lon="11.410529370067657"><ele>241.0</ele><time>2026-05-03T15:01:31Z</time></trkpt><trkpt lat="44.40630760894358" lon="11.41042316988187"><ele>240.0</ele><time>2026-05-03T15:01:33Z</time></trkpt><trkpt lat="44.40635321853578" lon="11.41033538558202"><ele>239.0</ele><time>2026-05-03T15:01:35Z</time></trkpt><trkpt lat="44.40641575525998" lon="11.410220826029473"><ele>238.0</ele><time>2026-05-03T15:01:38Z</time></trkpt><trkpt lat="44.406472077377785" lon="11.41013035390062"><ele>237.0</ele><time>2026-05-03T15:01:41Z</time></trkpt><trkpt lat="44.406531403280354" lon="11.410032414532855"><ele>237.0</ele><time>2026-05-03T15:01:44Z</time></trkpt><trkpt lat="44.4065909457372" lon="11.409909949523536"><ele>237.0</ele><time>2026-05-03T15:01:46Z</time></trkpt><trkpt lat="44.40665873175467" lon="11.409772788619275"><ele>237.0</ele><time>2026-05-03T15:01:48Z</time></trkpt><trkpt lat="44.40673389587503" lon="11.409635846916697"><ele>237.0</ele><time>2026-05-03T15:01:50Z</time></trkpt><trkpt lat="44.406781275908166" lon="11.409557571834597"><ele>237.0</ele><time>2026-05-03T15:01:51Z</time></trkpt><trkpt lat="44.40682958990888" lon="11.409488422221557"><ele>237.83333333333334</ele><time>2026-05-03T15:01:52Z</time></trkpt><trkpt lat="44.40687845389811" lon="11.40941082231148"><ele>238.66666666666669</ele><time>2026-05-03T15:01:53Z</time></trkpt><trkpt lat="44.40693334051445" lon="11.409340911893752"><ele>239.5</ele><time>2026-05-03T15:01:54Z</time></trkpt><trkpt lat="44.40698586377362" lon="11.409279666766064"><ele>240.33333333333334</ele><time>2026-05-03T15:01:55Z</time></trkpt><trkpt lat="44.407088360225714" lon="11.409151010735831"><ele>241.16666666666669</ele><time>2026-05-03T15:01:57Z</time></trkpt><trkpt lat="44.407154647419446" lon="11.409055265579822"><ele>242.0</ele><time>2026-05-03T15:01:58Z</time></trkpt><trkpt lat="44.40724249421179" lon="11.408939435858171"><ele>242.0</ele><time>2026-05-03T15:01:59Z</time></trkpt><trkpt lat="44.40732149440457" lon="11.408833142922706"><ele>242.0</ele><time>2026-05-03T15:02:00Z</time></trkpt><trkpt lat="44.4073994735225" lon="11.408736128914665"><ele>242.0</ele><time>2026-05-03T15:02:01Z</time></trkpt><trkpt lat="44.407464433039166" lon="11.408659960558857"><ele>242.0</ele><time>2026-05-03T15:02:02Z</time></trkpt><trkpt lat="44.407522135183065" lon="11.408610680123976"><ele>242.0</ele><time>2026-05-03T15:02:02.999Z</time></trkpt><trkpt lat="44.4075986204668" lon="11.408544892382835"><ele>241.6</ele><time>2026-05-03T15:02:03.999Z</time></trkpt><trkpt lat="44.40769262800235" lon="11.408454485977645"><ele>241.2</ele><time>2026-05-03T15:02:04.999Z</time></trkpt><trkpt lat="44.407770090253614" lon="11.408365355120738"><ele>240.8</ele><time>2026-05-03T15:02:05.999Z</time></trkpt><trkpt lat="44.40782926206417" lon="11.408291399960573"><ele>240.4</ele><time>2026-05-03T15:02:06.999Z</time></trkpt><trkpt lat="44.40788980109056" lon="11.408226911611314"><ele>240.0</ele><time>2026-05-03T15:02:07.999Z</time></trkpt><trkpt lat="44.40796755800316" lon="11.408155706469474"><ele>241.0</ele><time>2026-05-03T15:02:08.999Z</time></trkpt><trkpt lat="44.40806919298315" lon="11.408045830336285"><ele>242.0</ele><time>2026-05-03T15:02:09.999Z</time></trkpt><trkpt lat="44.40817893036324" lon="11.407919655656197"><ele>243.0</ele><time>2026-05-03T15:02:10.999Z</time></trkpt><trkpt lat="44.40828941468157" lon="11.407836665664595"><ele>244.0</ele><time>2026-05-03T15:02:11.999Z</time></trkpt><trkpt lat="44.40838752131515" lon="11.40773026273335"><ele>244.75</ele><time>2026-05-03T15:02:12.999Z</time></trkpt><trkpt lat="44.408487227195934" lon="11.407598811319883"><ele>245.5</ele><time>2026-05-03T15:02:13.999Z</time></trkpt><trkpt lat="44.40858679285297" lon="11.407494533787215"><ele>246.25</ele><time>2026-05-03T15:02:14.999Z</time></trkpt><trkpt lat="44.408666601789804" lon="11.40742007227911"><ele>247.0</ele><time>2026-05-03T15:02:15.999Z</time></trkpt><trkpt lat="44.40876265893546" lon="11.407330484221273"><ele>248.6</ele><time>2026-05-03T15:02:16.999Z</time></trkpt><trkpt lat="44.40886467871242" lon="11.407216596529317"><ele>250.2</ele><time>2026-05-03T15:02:17.999Z</time></trkpt><trkpt lat="44.40895143471625" lon="11.407117581093594"><ele>251.8</ele><time>2026-05-03T15:02:18.999Z</time></trkpt><trkpt lat="44.409027712805006" lon="11.407028241629012"><ele>253.4</ele><time>2026-05-03T15:02:19.999Z</time></trkpt><trkpt lat="44.40910445515417" lon="11.406932437394618"><ele>255.0</ele><time>2026-05-03T15:02:20.999Z</time></trkpt><trkpt lat="44.40917002288709" lon="11.406841016697573"><ele>256.8</ele><time>2026-05-03T15:02:21.999Z</time></trkpt><trkpt lat="44.40920847997295" lon="11.406764831245269"><ele>258.6</ele><time>2026-05-03T15:02:22.999Z</time></trkpt><trkpt lat="44.409251342115475" lon="11.406583957140427"><ele>260.4</ele><time>2026-05-03T15:02:24.999Z</time></trkpt><trkpt lat="44.409282847456716" lon="11.406445496575548"><ele>262.2</ele><time>2026-05-03T15:02:25.999Z</time></trkpt><trkpt lat="44.40932574397844" lon="11.406315184462894"><ele>264.0</ele><time>2026-05-03T15:02:26.999Z</time></trkpt><trkpt lat="44.40937696548229" lon="11.406186016836783"><ele>264.0</ele><time>2026-05-03T15:02:27.999Z</time></trkpt><trkpt lat="44.409417468968364" lon="11.406074068360093"><ele>264.0</ele><time>2026-05-03T15:02:28.999Z</time></trkpt><trkpt lat="44.40946006352982" lon="11.40595115675113"><ele>264.0</ele><time>2026-05-03T15:02:29.999Z</time></trkpt><trkpt lat="44.409518422431574" lon="11.405805190365115"><ele>264.0</ele><time>2026-05-03T15:02:30.999Z</time></trkpt><trkpt lat="44.409572116635026" lon="11.4056681934525"><ele>264.0</ele><time>2026-05-03T15:02:31.999Z</time></trkpt><trkpt lat="44.409626887539034" lon="11.405531521057634"><ele>266.0</ele><time>2026-05-03T15:02:32.999Z</time></trkpt><trkpt lat="44.40967551282794" lon="11.405413668249139"><ele>268.0</ele><time>2026-05-03T15:02:33.999Z</time></trkpt><trkpt lat="44.40971319835685" lon="11.405327551287376"><ele>270.0</ele><time>2026-05-03T15:02:34.999Z</time></trkpt><trkpt lat="44.409750124326635" lon="11.40524550672179"><ele>272.0</ele><time>2026-05-03T15:02:35.999Z</time></trkpt><trkpt lat="44.40980057960236" lon="11.405143975676081"><ele>274.0</ele><time>2026-05-03T15:02:36.999Z</time></trkpt><trkpt lat="44.4098457046467" lon="11.405040471656921"><ele>276.0</ele><time>2026-05-03T15:02:37.999Z</time></trkpt><trkpt lat="44.409872165492665" lon="11.40496028492028"><ele>276.0</ele><time>2026-05-03T15:02:39.999Z</time></trkpt><trkpt lat="44.409949693327164" lon="11.404869062270036"><ele>276.0</ele><time>2026-05-03T15:02:42.999Z</time></trkpt><trkpt lat="44.4100386166694" lon="11.40480726704155"><ele>276.0</ele><time>2026-05-03T15:02:44.999Z</time></trkpt><trkpt lat="44.410132624720354" lon="11.40471621261962"><ele>276.0</ele><time>2026-05-03T15:02:46.999Z</time></trkpt><trkpt lat="44.41023884743227" lon="11.404620849517023"><ele>276.0</ele><time>2026-05-03T15:02:48.999Z</time></trkpt><trkpt lat="44.410314668760414" lon="11.40458727570346"><ele>274.8333333333333</ele><time>2026-05-03T15:02:49.999Z</time></trkpt><trkpt lat="44.41037773719224" lon="11.404505248824552"><ele>273.6666666666667</ele><time>2026-05-03T15:02:50.999Z</time></trkpt><trkpt lat="44.41044827229857" lon="11.404442293891606"><ele>272.5</ele><time>2026-05-03T15:02:51.999Z</time></trkpt><trkpt lat="44.41052593609549" lon="11.40439440426286"><ele>271.33333333333337</ele><time>2026-05-03T15:02:52.999Z</time></trkpt><trkpt lat="44.41059285120829" lon="11.404332991329719"><ele>270.1666666666667</ele><time>2026-05-03T15:02:53.999Z</time></trkpt><trkpt lat="44.410655982897794" lon="11.40426937495894"><ele>269.0</ele><time>2026-05-03T15:02:54.999Z</time></trkpt><trkpt lat="44.41072324023748" lon="11.404201845720925"><ele>271.8</ele><time>2026-05-03T15:02:55.999Z</time></trkpt><trkpt lat="44.410793561329974" lon="11.404144695568686"><ele>274.59999999999997</ele><time>2026-05-03T15:02:56.999Z</time></trkpt><trkpt lat="44.410859557860284" lon="11.404096825774326"><ele>277.4</ele><time>2026-05-03T15:02:57.999Z</time></trkpt><trkpt lat="44.410920120454996" lon="11.404058331135257"><ele>280.2</ele><time>2026-05-03T15:02:58.999Z</time></trkpt><trkpt lat="44.41104346649228" lon="11.403985241254423"><ele>283.0</ele><time>2026-05-03T15:03:01Z</time></trkpt><trkpt lat="44.41115777465885" lon="11.403876370630474"><ele>281.66666666666663</ele><time>2026-05-03T15:03:03Z</time></trkpt><trkpt lat="44.41122391743802" lon="11.403789252251435"><ele>280.3333333333333</ele><time>2026-05-03T15:03:04Z</time></trkpt><trkpt lat="44.41128279848297" lon="11.403705487564133"><ele>279.0</ele><time>2026-05-03T15:03:05Z</time></trkpt><trkpt lat="44.41134287920365" lon="11.403616238223092"><ele>277.6666666666667</ele><time>2026-05-03T15:03:06Z</time></trkpt><trkpt lat="44.41140203143133" lon="11.403499554740542"><ele>276.33333333333337</ele><time>2026-05-03T15:03:07Z</time></trkpt><trkpt lat="44.41144951312348" lon="11.403426172747945"><ele>275.0</ele><time>2026-05-03T15:03:08Z</time></trkpt><trkpt lat="44.41150547397524" lon="11.403321400009183"><ele>278.0</ele><time>2026-05-03T15:03:09Z</time></trkpt><trkpt lat="44.41156991077665" lon="11.403205356284502"><ele>281.0</ele><time>2026-05-03T15:03:10Z</time></trkpt><trkpt lat="44.41163103971923" lon="11.403093720632093"><ele>284.0</ele><time>2026-05-03T15:03:11Z</time></trkpt><trkpt lat="44.411686428872734" lon="11.402988860174696"><ele>287.0</ele><time>2026-05-03T15:03:12Z</time></trkpt><trkpt lat="44.41173709552421" lon="11.402883372715142"><ele>290.0</ele><time>2026-05-03T15:03:13Z</time></trkpt><trkpt lat="44.411788994459506" lon="11.402758161827908"><ele>290.0</ele><time>2026-05-03T15:03:14Z</time></trkpt><trkpt lat="44.411839696247995" lon="11.402616625501443"><ele>290.0</ele><time>2026-05-03T15:03:15Z</time></trkpt><trkpt lat="44.41189365735935" lon="11.402507112674929"><ele>290.0</ele><time>2026-05-03T15:03:16Z</time></trkpt><trkpt lat="44.41195681824058" lon="11.402429026436298"><ele>290.0</ele><time>2026-05-03T15:03:17Z</time></trkpt><trkpt lat="44.412009212091235" lon="11.402355118126266"><ele>290.0</ele><time>2026-05-03T15:03:18Z</time></trkpt><trkpt lat="44.412067803607414" lon="11.402288910764245"><ele>290.0</ele><time>2026-05-03T15:03:19Z</time></trkpt><trkpt lat="44.41213452081762" lon="11.402226958227054"><ele>290.83333333333337</ele><time>2026-05-03T15:03:20Z</time></trkpt><trkpt lat="44.412202949730116" lon="11.402156350863489"><ele>291.6666666666667</ele><time>2026-05-03T15:03:21Z</time></trkpt><trkpt lat="44.41225435001899" lon="11.402073933307637"><ele>292.5</ele><time>2026-05-03T15:03:22Z</time></trkpt><trkpt lat="44.41233426819213" lon="11.402018609595991"><ele>293.3333333333333</ele><time>2026-05-03T15:03:23Z</time></trkpt><trkpt lat="44.41240261246065" lon="11.401946922648753"><ele>294.16666666666663</ele><time>2026-05-03T15:03:24Z</time></trkpt><trkpt lat="44.4124754324145" lon="11.40187054100069"><ele>295.0</ele><time>2026-05-03T15:03:25Z</time></trkpt><trkpt lat="44.412548738470235" lon="11.401793649525446"><ele>295.0</ele><time>2026-05-03T15:03:26Z</time></trkpt><trkpt lat="44.412609075981706" lon="11.401693989976332"><ele>295.0</ele><time>2026-05-03T15:03:27Z</time></trkpt><trkpt lat="44.41268586202735" lon="11.401601151181417"><ele>295.0</ele><time>2026-05-03T15:03:28Z</time></trkpt><trkpt lat="44.41273701632059" lon="11.401505349908934"><ele>295.0</ele><time>2026-05-03T15:03:29Z</time></trkpt><trkpt lat="44.412774553130774" lon="11.401371202201398"><ele>295.0</ele><time>2026-05-03T15:03:30Z</time></trkpt><trkpt lat="44.41281362367948" lon="11.401219911727381"><ele>293.2</ele><time>2026-05-03T15:03:31Z</time></trkpt><trkpt lat="44.412841784814525" lon="11.401075856585788"><ele>291.4</ele><time>2026-05-03T15:03:32Z</time></trkpt><trkpt lat="44.412883279412576" lon="11.400948834410375"><ele>289.6</ele><time>2026-05-03T15:03:33Z</time></trkpt><trkpt lat="44.41292034481305" lon="11.400830124969328"><ele>287.8</ele><time>2026-05-03T15:03:34Z</time></trkpt><trkpt lat="44.412957574286764" lon="11.400726205689066"><ele>286.0</ele><time>2026-05-03T15:03:35Z</time></trkpt><trkpt lat="44.41297978311626" lon="11.400627520159729"><ele>287.5</ele><time>2026-05-03T15:03:36Z</time></trkpt><trkpt lat="44.41303018346907" lon="11.40056910703711"><ele>289.0</ele><time>2026-05-03T15:03:37Z</time></trkpt><trkpt lat="44.413094915500245" lon="11.400546250859328"><ele>290.5</ele><time>2026-05-03T15:03:38Z</time></trkpt><trkpt lat="44.413177698636424" lon="11.400579225659914"><ele>292.0</ele><time>2026-05-03T15:03:39Z</time></trkpt><trkpt lat="44.41327405344895" lon="11.400635647566608"><ele>293.5</ele><time>2026-05-03T15:03:40Z</time></trkpt><trkpt lat="44.413383073167616" lon="11.400678799797051"><ele>295.0</ele><time>2026-05-03T15:03:41Z</time></trkpt><trkpt lat="44.413493393251606" lon="11.400775930358039"><ele>295.0</ele><time>2026-05-03T15:03:42Z</time></trkpt><trkpt lat="44.41359386893748" lon="11.400850711923681"><ele>295.0</ele><time>2026-05-03T15:03:43Z</time></trkpt><trkpt lat="44.413712841557526" lon="11.400922538436317"><ele>295.0</ele><time>2026-05-03T15:03:44Z</time></trkpt><trkpt lat="44.41381566045481" lon="11.40100846544078"><ele>295.0</ele><time>2026-05-03T15:03:45Z</time></trkpt><trkpt lat="44.413907257255595" lon="11.401088365363167"><ele>294.8333333333333</ele><time>2026-05-03T15:03:46Z</time></trkpt><trkpt lat="44.41399063638299" lon="11.401150253947856"><ele>294.66666666666663</ele><time>2026-05-03T15:03:47Z</time></trkpt><trkpt lat="44.41407599660183" lon="11.401209897033993"><ele>294.5</ele><time>2026-05-03T15:03:48Z</time></trkpt><trkpt lat="44.41415657609216" lon="11.401256490193381"><ele>294.3333333333333</ele><time>2026-05-03T15:03:49Z</time></trkpt><trkpt lat="44.414238227914325" lon="11.401289739204703"><ele>294.1666666666667</ele><time>2026-05-03T15:03:50Z</time></trkpt><trkpt lat="44.41431900549136" lon="11.401326613347392"><ele>294.0</ele><time>2026-05-03T15:03:51Z</time></trkpt><trkpt lat="44.4144054358474" lon="11.40135663373093"><ele>294.0</ele><time>2026-05-03T15:03:52Z</time></trkpt><trkpt lat="44.41449638088293" lon="11.401394331591433"><ele>294.0</ele><time>2026-05-03T15:03:53Z</time></trkpt><trkpt lat="44.41457898980489" lon="11.401420651766927"><ele>294.0</ele><time>2026-05-03T15:03:54Z</time></trkpt><trkpt lat="44.4146504931045" lon="11.401474752318377"><ele>294.0</ele><time>2026-05-03T15:03:55Z</time></trkpt><trkpt lat="44.41473282942305" lon="11.401491453657059"><ele>294.0</ele><time>2026-05-03T15:03:56Z</time></trkpt><trkpt lat="44.414836105476745" lon="11.401562406625093"><ele>291.5</ele><time>2026-05-03T15:03:57Z</time></trkpt><trkpt lat="44.414948221842074" lon="11.401690324804385"><ele>289.0</ele><time>2026-05-03T15:03:58Z</time></trkpt><trkpt lat="44.41506916099486" lon="11.401826792136497"><ele>286.5</ele><time>2026-05-03T15:03:58.999Z</time></trkpt><trkpt lat="44.41517939855361" lon="11.401923101719927"><ele>284.0</ele><time>2026-05-03T15:03:59.999Z</time></trkpt><trkpt lat="44.41527733276635" lon="11.402004979243369"><ele>284.0</ele><time>2026-05-03T15:04:00.999Z</time></trkpt><trkpt lat="44.41535422600064" lon="11.402090245214755"><ele>284.0</ele><time>2026-05-03T15:04:01.999Z</time></trkpt><trkpt lat="44.41542373739952" lon="11.402184965838845"><ele>284.0</ele><time>2026-05-03T15:04:02.999Z</time></trkpt><trkpt lat="44.41547147150457" lon="11.40231970928491"><ele>284.0</ele><time>2026-05-03T15:04:03.999Z</time></trkpt><trkpt lat="44.41550039541328" lon="11.402488044161"><ele>284.0</ele><time>2026-05-03T15:04:04.999Z</time></trkpt><trkpt lat="44.4155105297288" lon="11.402683101003877"><ele>285.5</ele><time>2026-05-03T15:04:05.999Z</time></trkpt><trkpt lat="44.41549993908674" lon="11.402882929111474"><ele>287.0</ele><time>2026-05-03T15:04:06.999Z</time></trkpt><trkpt lat="44.41546741215987" lon="11.403077660794542"><ele>288.5</ele><time>2026-05-03T15:04:07.999Z</time></trkpt><trkpt lat="44.415389867664224" lon="11.403261443758536"><ele>290.0</ele><time>2026-05-03T15:04:08.999Z</time></trkpt><trkpt lat="44.41532801501219" lon="11.403454342076671"><ele>290.0</ele><time>2026-05-03T15:04:09.999Z</time></trkpt><trkpt lat="44.415261851969944" lon="11.403585662509151"><ele>290.0</ele><time>2026-05-03T15:04:10.999Z</time></trkpt><trkpt lat="44.41523426008742" lon="11.403704564379106"><ele>290.0</ele><time>2026-05-03T15:04:11.999Z</time></trkpt><trkpt lat="44.41523928913362" lon="11.403819637777577"><ele>290.0</ele><time>2026-05-03T15:04:12.999Z</time></trkpt><trkpt lat="44.41527388331009" lon="11.403946035423463"><ele>290.0</ele><time>2026-05-03T15:04:13.999Z</time></trkpt><trkpt lat="44.41532515548847" lon="11.40409256303105"><ele>285.33333333333337</ele><time>2026-05-03T15:04:14.999Z</time></trkpt><trkpt lat="44.41542585058533" lon="11.40426450627894"><ele>280.6666666666667</ele><time>2026-05-03T15:04:15.999Z</time></trkpt><trkpt lat="44.41553110213787" lon="11.404442448118482"><ele>276.0</ele><time>2026-05-03T15:04:16.999Z</time></trkpt><trkpt lat="44.415645828542225" lon="11.404625143235588"><ele>271.3333333333333</ele><time>2026-05-03T15:04:17.999Z</time></trkpt><trkpt lat="44.41574695923649" lon="11.40479814017378"><ele>266.66666666666663</ele><time>2026-05-03T15:04:18.999Z</time></trkpt><trkpt lat="44.41583767779225" lon="11.404962458001302"><ele>262.0</ele><time>2026-05-03T15:04:19.999Z</time></trkpt><trkpt lat="44.41590630317476" lon="11.405161405546693"><ele>262.0</ele><time>2026-05-03T15:04:20.999Z</time></trkpt><trkpt lat="44.41597765698492" lon="11.405387237337095"><ele>262.0</ele><time>2026-05-03T15:04:21.999Z</time></trkpt><trkpt lat="44.41607116828265" lon="11.405629395509003"><ele>262.0</ele><time>2026-05-03T15:04:22.999Z</time></trkpt><trkpt lat="44.41616643868632" lon="11.405871264403887"><ele>258.0</ele><time>2026-05-03T15:04:23.999Z</time></trkpt><trkpt lat="44.416305804076046" lon="11.406146851524785"><ele>254.0</ele><time>2026-05-03T15:04:24.999Z</time></trkpt><trkpt lat="44.416437035358626" lon="11.406392677053862"><ele>262.5</ele><time>2026-05-03T15:04:25.999Z</time></trkpt><trkpt lat="44.416572518223" lon="11.406638219405794"><ele>271.0</ele><time>2026-05-03T15:04:26.999Z</time></trkpt><trkpt lat="44.42660649230578" lon="11.4058855551758"><ele>254.20000000000002</ele><time>2026-05-03T15:06:39.999Z</time></trkpt><trkpt lat="44.426695965280985" lon="11.405819511001278"><ele>237.40000000000003</ele><time>2026-05-03T15:06:40.999Z</time></trkpt><trkpt lat="44.42677234410217" lon="11.40574324870363"><ele>220.6</ele><time>2026-05-03T15:06:41.999Z</time></trkpt><trkpt lat="44.426841410759074" lon="11.405637181274624"><ele>203.8</ele><time>2026-05-03T15:06:42.999Z</time></trkpt><trkpt lat="44.426894709651286" lon="11.405508448606717"><ele>187.0</ele><time>2026-05-03T15:06:43.999Z</time></trkpt><trkpt lat="44.426945498321" lon="11.405366492547907"><ele>186.2</ele><time>2026-05-03T15:06:44.999Z</time></trkpt><trkpt lat="44.42697541001536" lon="11.405226242917797"><ele>185.39999999999998</ele><time>2026-05-03T15:06:45.999Z</time></trkpt><trkpt lat="44.42701480919917" lon="11.405093926791833"><ele>184.60000000000002</ele><time>2026-05-03T15:06:46.999Z</time></trkpt><trkpt lat="44.42705539741134" lon="11.404989242016477"><ele>183.8</ele><time>2026-05-03T15:06:47.999Z</time></trkpt><trkpt lat="44.42710881426528" lon="11.404876999590817"><ele>183.0</ele><time>2026-05-03T15:06:48.999Z</time></trkpt><trkpt lat="44.427175006854675" lon="11.4047766338196"><ele>183.0</ele><time>2026-05-03T15:06:49.999Z</time></trkpt><trkpt lat="44.42727453912262" lon="11.404681459995494"><ele>183.0</ele><time>2026-05-03T15:06:50.999Z</time></trkpt><trkpt lat="44.42741257880963" lon="11.404605287836995"><ele>183.0</ele><time>2026-05-03T15:06:51.999Z</time></trkpt><trkpt lat="44.427520154520735" lon="11.404558316704026"><ele>183.0</ele><time>2026-05-03T15:06:52.999Z</time></trkpt><trkpt lat="44.427673230412786" lon="11.404491478680253"><ele>177.5</ele><time>2026-05-03T15:06:53.999Z</time></trkpt><trkpt lat="44.42781456848148" lon="11.404429765764652"><ele>172.0</ele><time>2026-05-03T15:06:54.999Z</time></trkpt><trkpt lat="44.42794647517092" lon="11.404372639300062"><ele>166.5</ele><time>2026-05-03T15:06:55.999Z</time></trkpt><trkpt lat="44.42807299334392" lon="11.404324008915319"><ele>161.0</ele><time>2026-05-03T15:06:56.999Z</time></trkpt><trkpt lat="44.42830789456407" lon="11.404251201204973"><ele>161.0</ele><time>2026-05-03T15:06:58.999Z</time></trkpt><trkpt lat="44.428406726592875" lon="11.404209424875148"><ele>161.0</ele><time>2026-05-03T15:06:59.999Z</time></trkpt><trkpt lat="44.4284767114335" lon="11.404154476736968"><ele>161.0</ele><time>2026-05-03T15:07:00.998Z</time></trkpt><trkpt lat="44.42853394798974" lon="11.404093211352347"><ele>161.0</ele><time>2026-05-03T15:07:01.998Z</time></trkpt><trkpt lat="44.428556675215326" lon="11.403958536593116"><ele>161.0</ele><time>2026-05-03T15:07:03.998Z</time></trkpt><trkpt lat="44.428529168018606" lon="11.403879214148983"><ele>161.0</ele><time>2026-05-03T15:07:04.998Z</time></trkpt><trkpt lat="44.42843750552349" lon="11.403783433945744"><ele>157.66666666666666</ele><time>2026-05-03T15:07:06.998Z</time></trkpt><trkpt lat="44.42835712806381" lon="11.40376333895477"><ele>154.33333333333331</ele><time>2026-05-03T15:07:07.998Z</time></trkpt><trkpt lat="44.428249649092756" lon="11.403749587914831"><ele>151.0</ele><time>2026-05-03T15:07:08.998Z</time></trkpt><trkpt lat="44.42814900235964" lon="11.403775639666318"><ele>147.66666666666666</ele><time>2026-05-03T15:07:09.998Z</time></trkpt><trkpt lat="44.428078446365284" lon="11.40381095925638"><ele>144.33333333333334</ele><time>2026-05-03T15:07:10.998Z</time></trkpt><trkpt lat="44.42800061491691" lon="11.40380426047321"><ele>141.0</ele><time>2026-05-03T15:07:12.999Z</time></trkpt><trkpt lat="44.42800843239149" lon="11.403684427722478"><ele>141.0</ele><time>2026-05-03T15:07:14.999Z</time></trkpt><trkpt lat="44.42805717633569" lon="11.40362246424701"><ele>141.0</ele><time>2026-05-03T15:07:15.999Z</time></trkpt><trkpt lat="44.42815075317972" lon="11.403575302262624"><ele>141.0</ele><time>2026-05-03T15:07:16.999Z</time></trkpt><trkpt lat="44.42821033712777" lon="11.403499487967613"><ele>141.0</ele><time>2026-05-03T15:07:17.999Z</time></trkpt><trkpt lat="44.42823456964191" lon="11.403215437685768"><ele>141.0</ele><time>2026-05-03T15:07:19.999Z</time></trkpt><trkpt lat="44.42826520695446" lon="11.403093226072727"><ele>141.0</ele><time>2026-05-03T15:07:20.999Z</time></trkpt><trkpt lat="44.42831207675699" lon="11.402988385032842"><ele>141.0</ele><time>2026-05-03T15:07:21.999Z</time></trkpt><trkpt lat="44.42838753769193" lon="11.402873465642243"><ele>141.0</ele><time>2026-05-03T15:07:22.999Z</time></trkpt><trkpt lat="44.42847042799022" lon="11.402767941487145"><ele>141.0</ele><time>2026-05-03T15:07:23.999Z</time></trkpt><trkpt lat="44.42853366501084" lon="11.402641243823458"><ele>137.8</ele><time>2026-05-03T15:07:24.999Z</time></trkpt><trkpt lat="44.428608359511465" lon="11.402529741672724"><ele>134.6</ele><time>2026-05-03T15:07:25.999Z</time></trkpt><trkpt lat="44.42866787946361" lon="11.402432911887828"><ele>131.4</ele><time>2026-05-03T15:07:26.999Z</time></trkpt><trkpt lat="44.42873216815082" lon="11.402358385732615"><ele>128.2</ele><time>2026-05-03T15:07:27.999Z</time></trkpt><trkpt lat="44.428817705254964" lon="11.402329161800456"><ele>125.0</ele><time>2026-05-03T15:07:28.999Z</time></trkpt><trkpt lat="44.42890233762351" lon="11.402333253459188"><ele>124.4</ele><time>2026-05-03T15:07:29.999Z</time></trkpt><trkpt lat="44.42899755591841" lon="11.402341793987201"><ele>123.8</ele><time>2026-05-03T15:07:30.999Z</time></trkpt><trkpt lat="44.42907968049463" lon="11.402335772149808"><ele>123.19999999999999</ele><time>2026-05-03T15:07:31.999Z</time></trkpt><trkpt lat="44.429191742855856" lon="11.402321650252652"><ele>122.6</ele><time>2026-05-03T15:07:33.999Z</time></trkpt><trkpt lat="44.42924530317523" lon="11.402159359271598"><ele>122.0</ele><time>2026-05-03T15:07:35.999Z</time></trkpt><trkpt lat="44.429249962665885" lon="11.402029023654686"><ele>119.25</ele><time>2026-05-03T15:07:36.999Z</time></trkpt><trkpt lat="44.42923427546782" lon="11.401880476397052"><ele>116.5</ele><time>2026-05-03T15:07:37.999Z</time></trkpt><trkpt lat="44.429230792001235" lon="11.401739933204476"><ele>113.75</ele><time>2026-05-03T15:07:38.999Z</time></trkpt><trkpt lat="44.429206482632395" lon="11.401491002426917"><ele>111.0</ele><time>2026-05-03T15:07:40.999Z</time></trkpt><trkpt lat="44.42918779803386" lon="11.401364015645942"><ele>108.4</ele><time>2026-05-03T15:07:41.999Z</time></trkpt><trkpt lat="44.429135091643985" lon="11.401266967070223"><ele>105.8</ele><time>2026-05-03T15:07:42.999Z</time></trkpt><trkpt lat="44.429081836960044" lon="11.401173146355713"><ele>103.2</ele><time>2026-05-03T15:07:43.999Z</time></trkpt><trkpt lat="44.429013488132" lon="11.401074748855036"><ele>100.60000000000001</ele><time>2026-05-03T15:07:44.999Z</time></trkpt><trkpt lat="44.42891494793217" lon="11.40101406964887"><ele>98.0</ele><time>2026-05-03T15:07:45.999Z</time></trkpt><trkpt lat="44.42883085351561" lon="11.400947825463158"><ele>98.2</ele><time>2026-05-03T15:07:46.999Z</time></trkpt><trkpt lat="44.42873834635608" lon="11.4008956742261"><ele>98.4</ele><time>2026-05-03T15:07:47.999Z</time></trkpt><trkpt lat="44.428625888169954" lon="11.400878863790147"><ele>98.60000000000001</ele><time>2026-05-03T15:07:48.999Z</time></trkpt><trkpt lat="44.428525207552255" lon="11.400871010839353"><ele>98.80000000000001</ele><time>2026-05-03T15:07:49.999Z</time></trkpt><trkpt lat="44.42844496588584" lon="11.400880987474215"><ele>99.0</ele><time>2026-05-03T15:07:50.999Z</time></trkpt><trkpt lat="44.42837420135628" lon="11.400852938647844"><ele>99.0</ele><time>2026-05-03T15:07:51.999Z</time></trkpt><trkpt lat="44.428299140894524" lon="11.400782415359599"><ele>99.0</ele><time>2026-05-03T15:07:53.999Z</time></trkpt><trkpt lat="44.42830180482406" lon="11.400681614127201"><ele>99.0</ele><time>2026-05-03T15:07:54.999Z</time></trkpt><trkpt lat="44.42838340836697" lon="11.400593503958978"><ele>99.0</ele><time>2026-05-03T15:07:55.999Z</time></trkpt><trkpt lat="44.428421389966964" lon="11.400497518945862"><ele>99.0</ele><time>2026-05-03T15:07:56.999Z</time></trkpt><trkpt lat="44.42845350648917" lon="11.400403696192589"><ele>99.0</ele><time>2026-05-03T15:07:57.999Z</time></trkpt><trkpt lat="44.42849792348576" lon="11.400298828900223"><ele>96.66666666666667</ele><time>2026-05-03T15:07:58.999Z</time></trkpt><trkpt lat="44.42853078018505" lon="11.400212036464366"><ele>94.33333333333334</ele><time>2026-05-03T15:07:59.999Z</time></trkpt><trkpt lat="44.42863768662739" lon="11.40004141953668"><ele>92.0</ele><time>2026-05-03T15:08:05.999Z</time></trkpt><trkpt lat="44.428850246524725" lon="11.40017484778672"><ele>91.75</ele><time>2026-05-03T15:08:07.999Z</time></trkpt><trkpt lat="44.42894449770287" lon="11.400281866289223"><ele>91.5</ele><time>2026-05-03T15:08:08.999Z</time></trkpt><trkpt lat="44.429061523277205" lon="11.400379762298067"><ele>91.25</ele><time>2026-05-03T15:08:09.999Z</time></trkpt><trkpt lat="44.4291959978127" lon="11.40049880825387"><ele>91.0</ele><time>2026-05-03T15:08:10.999Z</time></trkpt><trkpt lat="44.42932533556718" lon="11.400605893602837"><ele>90.66666666666666</ele><time>2026-05-03T15:08:11.999Z</time></trkpt><trkpt lat="44.42946314957964" lon="11.40072834762976"><ele>90.33333333333333</ele><time>2026-05-03T15:08:12.999Z</time></trkpt><trkpt lat="44.42960683920079" lon="11.40085793314304"><ele>90.0</ele><time>2026-05-03T15:08:13.999Z</time></trkpt><trkpt lat="44.429752697379854" lon="11.400983429925489"><ele>90.0</ele><time>2026-05-03T15:08:14.999Z</time></trkpt><trkpt lat="44.42989647192657" lon="11.401108323088714"><ele>90.0</ele><time>2026-05-03T15:08:15.999Z</time></trkpt><trkpt lat="44.43003982436565" lon="11.401238841323268"><ele>90.0</ele><time>2026-05-03T15:08:16.999Z</time></trkpt><trkpt lat="44.43017830306147" lon="11.401359172697385"><ele>90.33333333333333</ele><time>2026-05-03T15:08:17.999Z</time></trkpt><trkpt lat="44.430315237353476" lon="11.401465884149244"><ele>90.66666666666666</ele><time>2026-05-03T15:08:18.999Z</time></trkpt><trkpt lat="44.43044144178676" lon="11.401575870686235"><ele>91.0</ele><time>2026-05-03T15:08:19.999Z</time></trkpt><trkpt lat="44.430569352564866" lon="11.401684315804271"><ele>91.0</ele><time>2026-05-03T15:08:20.999Z</time></trkpt></trkseg><trkseg><trkpt lat="44.434931423252934" lon="11.405427888284668"><ele>89.0</ele><time>2026-05-03T15:09:00.419Z</time></trkpt><trkpt lat="44.435014176547966" lon="11.405466869514857"><ele>89.0</ele><time>2026-05-03T15:09:01.419Z</time></trkpt><trkpt lat="44.43510147805568" lon="11.405544437660675"><ele>89.0</ele><time>2026-05-03T15:09:02.419Z</time></trkpt><trkpt lat="44.4352757307021" lon="11.405687387748403"><ele>89.0</ele><time>2026-05-03T15:09:03.999Z</time></trkpt><trkpt lat="44.43538552355164" lon="11.40580447040651"><ele>88.0</ele><time>2026-05-03T15:09:04.999Z</time></trkpt><trkpt lat="44.43548443810779" lon="11.405936341239155"><ele>87.0</ele><time>2026-05-03T15:09:06Z</time></trkpt><trkpt lat="44.43559291492622" lon="11.406066987008646"><ele>86.0</ele><time>2026-05-03T15:09:07Z</time></trkpt><trkpt lat="44.435690652470726" lon="11.406218424011433"><ele>85.0</ele><time>2026-05-03T15:09:08Z</time></trkpt><trkpt lat="44.43579297622042" lon="11.406371862371756"><ele>84.33333333333333</ele><time>2026-05-03T15:09:09Z</time></trkpt><trkpt lat="44.43589442277711" lon="11.406533028304194"><ele>83.66666666666667</ele><time>2026-05-03T15:09:10Z</time></trkpt><trkpt lat="44.435997235838514" lon="11.406693883834084"><ele>83.0</ele><time>2026-05-03T15:09:11Z</time></trkpt><trkpt lat="44.43609884921234" lon="11.406853158154398"><ele>83.0</ele><time>2026-05-03T15:09:12Z</time></trkpt><trkpt lat="44.43619929327946" lon="11.407007507598145"><ele>83.0</ele><time>2026-05-03T15:09:13Z</time></trkpt><trkpt lat="44.43628146703442" lon="11.407130827208647"><ele>83.0</ele><time>2026-05-03T15:09:14Z</time></trkpt><trkpt lat="44.436367102759604" lon="11.407256910746318"><ele>83.0</ele><time>2026-05-03T15:09:15Z</time></trkpt><trkpt lat="44.43642705090443" lon="11.407334022868833"><ele>82.5</ele><time>2026-05-03T15:09:16Z</time></trkpt><trkpt lat="44.436485308479426" lon="11.407393071935354"><ele>82.0</ele><time>2026-05-03T15:09:18Z</time></trkpt><trkpt lat="44.43658427869105" lon="11.4071585267798"><ele>81.5</ele><time>2026-05-03T15:09:26Z</time></trkpt><trkpt lat="44.43663274769495" lon="11.407023088292844"><ele>81.0</ele><time>2026-05-03T15:09:27Z</time></trkpt><trkpt lat="44.43666759917819" lon="11.406884894611057"><ele>81.0</ele><time>2026-05-03T15:09:28Z</time></trkpt><trkpt lat="44.43669120404706" lon="11.406738396411612"><ele>81.0</ele><time>2026-05-03T15:09:29Z</time></trkpt><trkpt lat="44.43672431661366" lon="11.406595808219306"><ele>81.0</ele><time>2026-05-03T15:09:30Z</time></trkpt><trkpt lat="44.43674866920552" lon="11.406461570664526"><ele>81.0</ele><time>2026-05-03T15:09:31Z</time></trkpt><trkpt lat="44.436771381264265" lon="11.406350831952441"><ele>81.0</ele><time>2026-05-03T15:09:32Z</time></trkpt><trkpt lat="44.436787872002746" lon="11.406265449440335"><ele>81.4</ele><time>2026-05-03T15:09:33Z</time></trkpt><trkpt lat="44.436816546030535" lon="11.406124490661332"><ele>81.8</ele><time>2026-05-03T15:09:35Z</time></trkpt><trkpt lat="44.43684158379254" lon="11.405992473102414"><ele>82.2</ele><time>2026-05-03T15:09:37Z</time></trkpt><trkpt lat="44.43686156548747" lon="11.405860299246724"><ele>82.60000000000001</ele><time>2026-05-03T15:09:39Z</time></trkpt><trkpt lat="44.436758349292106" lon="11.405742384222842"><ele>83.0</ele><time>2026-05-03T15:09:41Z</time></trkpt><trkpt lat="44.43669516019968" lon="11.40561732615136"><ele>83.0</ele><time>2026-05-03T15:09:43Z</time></trkpt><trkpt lat="44.43663129370281" lon="11.405512133682036"><ele>83.0</ele><time>2026-05-03T15:09:45Z</time></trkpt><trkpt lat="44.43656917448796" lon="11.405408640611087"><ele>83.0</ele><time>2026-05-03T15:09:47Z</time></trkpt><trkpt lat="44.43649135445532" lon="11.405283076439044"><ele>83.0</ele><time>2026-05-03T15:09:49Z</time></trkpt><trkpt lat="44.43642131053427" lon="11.40518064009379"><ele>83.0</ele><time>2026-05-03T15:09:51Z</time></trkpt><trkpt lat="44.43636834606448" lon="11.405108939225187"><ele>83.2</ele><time>2026-05-03T15:09:53Z</time></trkpt><trkpt lat="44.43628941224116" lon="11.405012166206795"><ele>83.4</ele><time>2026-05-03T15:09:55Z</time></trkpt><trkpt lat="44.43623501640321" lon="11.40495780780918"><ele>83.60000000000001</ele><time>2026-05-03T15:09:56Z</time></trkpt><trkpt lat="44.43616613391052" lon="11.404887526388457"><ele>83.80000000000001</ele><time>2026-05-03T15:09:57Z</time></trkpt><trkpt lat="44.4360850766655" lon="11.404804822960074"><ele>84.0</ele><time>2026-05-03T15:09:58Z</time></trkpt><trkpt lat="44.436007007431336" lon="11.404725168222308"><ele>84.0</ele><time>2026-05-03T15:09:59Z</time></trkpt><trkpt lat="44.43592960172348" lon="11.404646190487188"><ele>84.0</ele><time>2026-05-03T15:10:00Z</time></trkpt><trkpt lat="44.43586457328925" lon="11.40457870216256"><ele>84.0</ele><time>2026-05-03T15:10:01Z</time></trkpt><trkpt lat="44.435791643793664" lon="11.404502042867675"><ele>84.0</ele><time>2026-05-03T15:10:02Z</time></trkpt><trkpt lat="44.43571374033038" lon="11.404447965771205"><ele>84.0</ele><time>2026-05-03T15:10:03Z</time></trkpt><trkpt lat="44.43566163077083" lon="11.40436328581346"><ele>84.0</ele><time>2026-05-03T15:10:04Z</time></trkpt><trkpt lat="44.435589693122274" lon="11.404284992236914"><ele>84.0</ele><time>2026-05-03T15:10:05Z</time></trkpt><trkpt lat="44.435520233513756" lon="11.404205926336585"><ele>84.0</ele><time>2026-05-03T15:10:06Z</time></trkpt><trkpt lat="44.435446039977144" lon="11.404115495917225"><ele>84.0</ele><time>2026-05-03T15:10:07Z</time></trkpt><trkpt lat="44.43534691083286" lon="11.404013125237347"><ele>84.0</ele><time>2026-05-03T15:10:08Z</time></trkpt><trkpt lat="44.43526870459137" lon="11.403884349749841"><ele>84.0</ele><time>2026-05-03T15:10:09Z</time></trkpt><trkpt lat="44.43516583815944" lon="11.403780670340963"><ele>84.5</ele><time>2026-05-03T15:10:10Z</time></trkpt><trkpt lat="44.435064598941814" lon="11.403652696830616"><ele>85.0</ele><time>2026-05-03T15:10:11Z</time></trkpt><trkpt lat="44.434959924530126" lon="11.403512549623478"><ele>85.5</ele><time>2026-05-03T15:10:12Z</time></trkpt><trkpt lat="44.4348449907595" lon="11.403374274988671"><ele>86.0</ele><time>2026-05-03T15:10:13Z</time></trkpt><trkpt lat="44.434745856319665" lon="11.403244362595938"><ele>86.0</ele><time>2026-05-03T15:10:14Z</time></trkpt><trkpt lat="44.43466050593175" lon="11.403138968284113"><ele>86.0</ele><time>2026-05-03T15:10:15Z</time></trkpt><trkpt lat="44.43458703604485" lon="11.403036077390754"><ele>86.0</ele><time>2026-05-03T15:10:16Z</time></trkpt><trkpt lat="44.43454434532508" lon="11.402923486421033"><ele>86.0</ele><time>2026-05-03T15:10:16.999Z</time></trkpt><trkpt lat="44.43449113840557" lon="11.402851512962378"><ele>86.0</ele><time>2026-05-03T15:10:17.999Z</time></trkpt><trkpt lat="44.43450403752957" lon="11.402741379546196"><ele>87.16666666666667</ele><time>2026-05-03T15:10:18.999Z</time></trkpt><trkpt lat="44.43450409982289" lon="11.402630298701332"><ele>88.33333333333334</ele><time>2026-05-03T15:10:19.999Z</time></trkpt><trkpt lat="44.434482860591565" lon="11.40251282403896"><ele>89.5</ele><time>2026-05-03T15:10:20.999Z</time></trkpt><trkpt lat="44.434477661923886" lon="11.402415130648759"><ele>90.66666666666667</ele><time>2026-05-03T15:10:21.999Z</time></trkpt><trkpt lat="44.434458073585894" lon="11.402324644890664"><ele>91.83333333333333</ele><time>2026-05-03T15:10:22.999Z</time></trkpt><trkpt lat="44.43437989369482" lon="11.402199422482495"><ele>93.0</ele><time>2026-05-03T15:10:24.999Z</time></trkpt><trkpt lat="44.43431573668742" lon="11.402150186176703"><ele>94.33333333333333</ele><time>2026-05-03T15:10:25.999Z</time></trkpt><trkpt lat="44.43422275928873" lon="11.402082072596352"><ele>95.66666666666666</ele><time>2026-05-03T15:10:26.999Z</time></trkpt><trkpt lat="44.43416593104359" lon="11.402037424439811"><ele>97.0</ele><time>2026-05-03T15:10:27.999Z</time></trkpt><trkpt lat="44.43411831710026" lon="11.401919616330993"><ele>98.33333333333333</ele><time>2026-05-03T15:10:29.999Z</time></trkpt><trkpt lat="44.43412146399066" lon="11.401828883889303"><ele>99.66666666666666</ele><time>2026-05-03T15:10:30.999Z</time></trkpt><trkpt lat="44.43415674596785" lon="11.401719543713309"><ele>101.0</ele><time>2026-05-03T15:10:31.999Z</time></trkpt><trkpt lat="44.43422588910824" lon="11.401641637274407"><ele>101.0</ele><time>2026-05-03T15:10:32.999Z</time></trkpt><trkpt lat="44.43430193397164" lon="11.401524941372788"><ele>101.0</ele><time>2026-05-03T15:10:33.999Z</time></trkpt><trkpt lat="44.434360210961195" lon="11.401396799287788"><ele>101.0</ele><time>2026-05-03T15:10:34.999Z</time></trkpt><trkpt lat="44.43443877555545" lon="11.4012959458588"><ele>101.0</ele><time>2026-05-03T15:10:35.999Z</time></trkpt><trkpt lat="44.434502300147805" lon="11.401180337490329"><ele>101.0</ele><time>2026-05-03T15:10:36.999Z</time></trkpt><trkpt lat="44.43455051022759" lon="11.401083416409671"><ele>102.0</ele><time>2026-05-03T15:10:37.999Z</time></trkpt><trkpt lat="44.43452651500523" lon="11.40092153918096"><ele>103.0</ele><time>2026-05-03T15:10:39.999Z</time></trkpt><trkpt lat="44.434519808497335" lon="11.400786303479302"><ele>104.0</ele><time>2026-05-03T15:10:40.999Z</time></trkpt><trkpt lat="44.43449815395613" lon="11.40064521012472"><ele>105.0</ele><time>2026-05-03T15:10:41.999Z</time></trkpt><trkpt lat="44.434473135033706" lon="11.400482195640086"><ele>106.0</ele><time>2026-05-03T15:10:42.999Z</time></trkpt><trkpt lat="44.434433523144776" lon="11.40032888446665"><ele>107.50000000000001</ele><time>2026-05-03T15:10:43.999Z</time></trkpt><trkpt lat="44.43441873167145" lon="11.400212402179617"><ele>109.0</ele><time>2026-05-03T15:10:44.999Z</time></trkpt><trkpt lat="44.43440907378125" lon="11.400048861798394"><ele>110.5</ele><time>2026-05-03T15:10:46.999Z</time></trkpt><trkpt lat="44.43445948288668" lon="11.39998701736914"><ele>112.0</ele><time>2026-05-03T15:10:48.999Z</time></trkpt><trkpt lat="44.434552545708925" lon="11.39995715191143"><ele>113.50000000000001</ele><time>2026-05-03T15:10:50.999Z</time></trkpt><trkpt lat="44.43461194219478" lon="11.400030109164286"><ele>115.0</ele><time>2026-05-03T15:10:51.999Z</time></trkpt><trkpt lat="44.43470023397102" lon="11.400179968454344"><ele>115.6</ele><time>2026-05-03T15:10:53.999Z</time></trkpt><trkpt lat="44.43476059709334" lon="11.40021917001506"><ele>116.2</ele><time>2026-05-03T15:10:54.999Z</time></trkpt><trkpt lat="44.43484857971697" lon="11.400237033050255"><ele>116.80000000000001</ele><time>2026-05-03T15:10:56.999Z</time></trkpt><trkpt lat="44.43492769996346" lon="11.40010605750968"><ele>117.4</ele><time>2026-05-03T15:10:57.999Z</time></trkpt><trkpt lat="44.43498991602496" lon="11.400003522358393"><ele>118.0</ele><time>2026-05-03T15:10:58.999Z</time></trkpt><trkpt lat="44.43505394611659" lon="11.39987268433364"><ele>118.0</ele><time>2026-05-03T15:10:59.999Z</time></trkpt><trkpt lat="44.435119232760435" lon="11.39972173886397"><ele>118.0</ele><time>2026-05-03T15:11:00.999Z</time></trkpt><trkpt lat="44.4351788937544" lon="11.399575064686054"><ele>118.0</ele><time>2026-05-03T15:11:01.999Z</time></trkpt><trkpt lat="44.43523217867795" lon="11.39943564056602"><ele>118.0</ele><time>2026-05-03T15:11:02.999Z</time></trkpt><trkpt lat="44.43528065284205" lon="11.399297339468106"><ele>119.33333333333334</ele><time>2026-05-03T15:11:03.999Z</time></trkpt><trkpt lat="44.435326376165506" lon="11.399173385449442"><ele>120.66666666666667</ele><time>2026-05-03T15:11:04.999Z</time></trkpt><trkpt lat="44.4353464643217" lon="11.399087829582903"><ele>122.0</ele><time>2026-05-03T15:11:05.999Z</time></trkpt><trkpt lat="44.43539288645342" lon="11.39902378230261"><ele>123.33333333333334</ele><time>2026-05-03T15:11:08.999Z</time></trkpt><trkpt lat="44.43528913324684" lon="11.398931531232249"><ele>124.66666666666667</ele><time>2026-05-03T15:11:20Z</time></trkpt><trkpt lat="44.43520981095477" lon="11.398915985005083"><ele>126.0</ele><time>2026-05-03T15:11:23Z</time></trkpt><trkpt lat="44.43514424154436" lon="11.398903705232284"><ele>128.5</ele><time>2026-05-03T15:11:25Z</time></trkpt><trkpt lat="44.43509669190294" lon="11.398820277793005"><ele>131.0</ele><time>2026-05-03T15:11:28Z</time></trkpt><trkpt lat="44.43512260408238" lon="11.398717867539204"><ele>133.5</ele><time>2026-05-03T15:11:31Z</time></trkpt><trkpt lat="44.43509732832955" lon="11.398627472835388"><ele>136.0</ele><time>2026-05-03T15:11:34Z</time></trkpt><trkpt lat="44.43501784974006" lon="11.398631852156685"><ele>138.5</ele><time>2026-05-03T15:11:37Z</time></trkpt><trkpt lat="44.4349453383574" lon="11.39869053020171"><ele>141.0</ele><time>2026-05-03T15:11:38Z</time></trkpt><trkpt lat="44.434877918130674" lon="11.398736500074465"><ele>141.0</ele><time>2026-05-03T15:11:39Z</time></trkpt><trkpt lat="44.43477643836472" lon="11.398646688038951"><ele>141.0</ele><time>2026-05-03T15:11:42Z</time></trkpt><trkpt lat="44.43470105275412" lon="11.398561479889011"><ele>141.0</ele><time>2026-05-03T15:11:43Z</time></trkpt><trkpt lat="44.43465737940415" lon="11.398481049622408"><ele>141.0</ele><time>2026-05-03T15:13:37Z</time></trkpt><trkpt lat="44.434688876760134" lon="11.398381599443724"><ele>141.0</ele><time>2026-05-03T15:14:41Z</time></trkpt><trkpt lat="44.43470063057452" lon="11.398286882840795"><ele>141.0</ele><time>2026-05-03T15:14:53.999Z</time></trkpt><trkpt lat="44.43473338483123" lon="11.398202437011062"><ele>141.0</ele><time>2026-05-03T15:15:08.999Z</time></trkpt><trkpt lat="44.43476043403403" lon="11.398119091890115"><ele>141.0</ele><time>2026-05-03T15:15:32Z</time></trkpt><trkpt lat="44.43480482483905" lon="11.398031484053284"><ele>141.0</ele><time>2026-05-03T15:17:58.999Z</time></trkpt><trkpt lat="44.43485053278683" lon="11.397936395298238"><ele>141.0</ele><time>2026-05-03T15:18:06.999Z</time></trkpt><trkpt lat="44.43484207523013" lon="11.3978468561342"><ele>141.0</ele><time>2026-05-03T15:18:12.999Z</time></trkpt><trkpt lat="44.434871277964966" lon="11.397752827582044"><ele>141.0</ele><time>2026-05-03T15:18:22.999Z</time></trkpt><trkpt lat="44.43489385413436" lon="11.39765682733177"><ele>141.0</ele><time>2026-05-03T15:18:27.999Z</time></trkpt><trkpt lat="44.43490856142182" lon="11.397569346633645"><ele>141.0</ele><time>2026-05-03T15:18:34.999Z</time></trkpt><trkpt lat="44.43490356596582" lon="11.397657655631582"><ele>141.0</ele><time>2026-05-03T15:19:28.999Z</time></trkpt><trkpt lat="44.43486946718295" lon="11.397748957213455"><ele>141.0</ele><time>2026-05-03T15:19:33.999Z</time></trkpt><trkpt lat="44.43485088746425" lon="11.397843257324137"><ele>141.0</ele><time>2026-05-03T15:19:36.999Z</time></trkpt><trkpt lat="44.43486832044297" lon="11.397938137517938"><ele>141.0</ele><time>2026-05-03T15:19:41.999Z</time></trkpt><trkpt lat="44.43481981779357" lon="11.398000596596752"><ele>141.0</ele><time>2026-05-03T15:19:49.999Z</time></trkpt><trkpt lat="44.43476742758688" lon="11.398094587819529"><ele>141.0</ele><time>2026-05-03T15:20:12.999Z</time></trkpt><trkpt lat="44.434813835370605" lon="11.398006257627525"><ele>143.0</ele><time>2026-05-03T15:23:31.999Z</time></trkpt><trkpt lat="44.43484122867397" lon="11.39790186261751"><ele>145.0</ele><time>2026-05-03T15:23:34.999Z</time></trkpt><trkpt lat="44.43486485537724" lon="11.397812419703858"><ele>147.0</ele><time>2026-05-03T15:23:38.999Z</time></trkpt><trkpt lat="44.43487488225992" lon="11.397723453852834"><ele>149.0</ele><time>2026-05-03T15:23:43.999Z</time></trkpt><trkpt lat="44.43488916958855" lon="11.39762673493245"><ele>151.0</ele><time>2026-05-03T15:23:47Z</time></trkpt><trkpt lat="44.43490831707642" lon="11.397539626923306"><ele>153.0</ele><time>2026-05-03T15:23:54Z</time></trkpt><trkpt lat="44.43493860378234" lon="11.397452704416512"><ele>155.0</ele><time>2026-05-03T15:24:01Z</time></trkpt><trkpt lat="44.434977130169855" lon="11.397382517367054"><ele>155.0</ele><time>2026-05-03T15:24:11Z</time></trkpt><trkpt lat="44.43503234549179" lon="11.39733743935207"><ele>155.0</ele><time>2026-05-03T15:25:09Z</time></trkpt><trkpt lat="44.4350775605325" lon="11.397238843735003"><ele>155.0</ele><time>2026-05-03T15:33:14Z</time></trkpt><trkpt lat="44.43512224808793" lon="11.397115993330205"><ele>155.0</ele><time>2026-05-03T15:33:16Z</time></trkpt><trkpt lat="44.43519837056714" lon="11.397017616672128"><ele>155.0</ele><time>2026-05-03T15:33:18Z</time></trkpt><trkpt lat="44.43520592862636" lon="11.39692870635547"><ele>155.0</ele><time>2026-05-03T15:33:21Z</time></trkpt><trkpt lat="44.43519343042435" lon="11.396833511191408"><ele>155.83333333333331</ele><time>2026-05-03T15:33:22Z</time></trkpt><trkpt lat="44.43523925336622" lon="11.396671994151939"><ele>156.66666666666666</ele><time>2026-05-03T15:33:24Z</time></trkpt><trkpt lat="44.435264875332706" lon="11.396558745140116"><ele>157.5</ele><time>2026-05-03T15:33:25Z</time></trkpt><trkpt lat="44.43528718247177" lon="11.396460138743597"><ele>158.33333333333334</ele><time>2026-05-03T15:33:26Z</time></trkpt><trkpt lat="44.43529166994666" lon="11.396328945808168"><ele>159.16666666666669</ele><time>2026-05-03T15:33:28Z</time></trkpt><trkpt lat="44.4352955147512" lon="11.396227989613601"><ele>160.0</ele><time>2026-05-03T15:33:30.999Z</time></trkpt><trkpt lat="44.43534849560516" lon="11.395975966872552"><ele>160.6</ele><time>2026-05-03T15:33:31.999Z</time></trkpt><trkpt lat="44.43539732560258" lon="11.39583459234249"><ele>161.2</ele><time>2026-05-03T15:33:33.999Z</time></trkpt><trkpt lat="44.435459775530106" lon="11.395697705325617"><ele>161.8</ele><time>2026-05-03T15:33:35.999Z</time></trkpt><trkpt lat="44.435521833166554" lon="11.395603507364083"><ele>162.4</ele><time>2026-05-03T15:33:37.999Z</time></trkpt><trkpt lat="44.43556237730449" lon="11.395529991731102"><ele>163.0</ele><time>2026-05-03T15:33:39.999Z</time></trkpt><trkpt lat="44.435613171882785" lon="11.395421732210037"><ele>168.33333333333334</ele><time>2026-05-03T15:33:41.999Z</time></trkpt><trkpt lat="44.43564501506093" lon="11.395289940575745"><ele>173.66666666666669</ele><time>2026-05-03T15:33:43.999Z</time></trkpt><trkpt lat="44.435683537809616" lon="11.395174360143175"><ele>179.0</ele><time>2026-05-03T15:33:45.999Z</time></trkpt><trkpt lat="44.43575787088821" lon="11.395121772415372"><ele>184.33333333333334</ele><time>2026-05-03T15:33:46.999Z</time></trkpt><trkpt lat="44.43582281368702" lon="11.395081104476763"><ele>189.66666666666666</ele><time>2026-05-03T15:33:47.999Z</time></trkpt><trkpt lat="44.435889045312514" lon="11.395041669070034"><ele>195.0</ele><time>2026-05-03T15:33:48.999Z</time></trkpt><trkpt lat="44.435948859443656" lon="11.394933597533642"><ele>195.0</ele><time>2026-05-03T15:33:50.999Z</time></trkpt><trkpt lat="44.43600452080907" lon="11.394766984483041"><ele>195.0</ele><time>2026-05-03T15:33:52.999Z</time></trkpt><trkpt lat="44.43603138451931" lon="11.394655067302866"><ele>195.0</ele><time>2026-05-03T15:33:53.999Z</time></trkpt><trkpt lat="44.43606430949704" lon="11.39453662526982"><ele>195.0</ele><time>2026-05-03T15:33:54.999Z</time></trkpt><trkpt lat="44.43608565251158" lon="11.394446661954797"><ele>195.0</ele><time>2026-05-03T15:33:55.999Z</time></trkpt><trkpt lat="44.436082512465894" lon="11.394273322687647"><ele>195.0</ele><time>2026-05-03T15:33:57.999Z</time></trkpt><trkpt lat="44.43608753454641" lon="11.394184189034425"><ele>195.0</ele><time>2026-05-03T15:33:58.999Z</time></trkpt><trkpt lat="44.43607775202902" lon="11.394004110316567"><ele>195.0</ele><time>2026-05-03T15:34:00.999Z</time></trkpt><trkpt lat="44.43605791197855" lon="11.393918288430454"><ele>195.0</ele><time>2026-05-03T15:34:01.999Z</time></trkpt><trkpt lat="44.43605935947878" lon="11.393815811132923"><ele>195.0</ele><time>2026-05-03T15:34:04.999Z</time></trkpt><trkpt lat="44.43609194360511" lon="11.393670108920336"><ele>195.0</ele><time>2026-05-03T15:34:05.999Z</time></trkpt><trkpt lat="44.43612852127651" lon="11.393519907681604"><ele>195.0</ele><time>2026-05-03T15:34:06.999Z</time></trkpt><trkpt lat="44.43614240106521" lon="11.393404082920386"><ele>195.0</ele><time>2026-05-03T15:34:07.999Z</time></trkpt><trkpt lat="44.43618899766981" lon="11.39328158262757"><ele>195.0</ele><time>2026-05-03T15:34:09.999Z</time></trkpt><trkpt lat="44.436189968126726" lon="11.39316073593813"><ele>195.0</ele><time>2026-05-03T15:34:11.999Z</time></trkpt><trkpt lat="44.43620121880463" lon="11.393073920870995"><ele>195.0</ele><time>2026-05-03T15:34:13.999Z</time></trkpt><trkpt lat="44.436150903124506" lon="11.39299360767247"><ele>195.0</ele><time>2026-05-03T15:34:15.999Z</time></trkpt><trkpt lat="44.436099108004" lon="11.392940607811193"><ele>194.6</ele><time>2026-05-03T15:34:18Z</time></trkpt><trkpt lat="44.43612193014832" lon="11.392828777438464"><ele>194.2</ele><time>2026-05-03T15:35:05Z</time></trkpt><trkpt lat="44.43609280501376" lon="11.392664552551365"><ele>193.8</ele><time>2026-05-03T15:35:07Z</time></trkpt><trkpt lat="44.43604869513021" lon="11.392497584043564"><ele>193.4</ele><time>2026-05-03T15:35:08Z</time></trkpt><trkpt lat="44.436008895386365" lon="11.392370905305226"><ele>193.0</ele><time>2026-05-03T15:35:09Z</time></trkpt><trkpt lat="44.4359745441173" lon="11.392251428094758"><ele>193.33333333333331</ele><time>2026-05-03T15:35:10Z</time></trkpt><trkpt lat="44.43593671305602" lon="11.392119608451306"><ele>193.66666666666666</ele><time>2026-05-03T15:35:11Z</time></trkpt><trkpt lat="44.43589635257968" lon="11.392022920577116"><ele>194.0</ele><time>2026-05-03T15:35:12Z</time></trkpt><trkpt lat="44.43585555003009" lon="11.391939929142433"><ele>194.33333333333331</ele><time>2026-05-03T15:35:13Z</time></trkpt><trkpt lat="44.43579964632571" lon="11.39184916371691"><ele>194.66666666666666</ele><time>2026-05-03T15:35:14Z</time></trkpt><trkpt lat="44.4357444609733" lon="11.39177150311241"><ele>195.0</ele><time>2026-05-03T15:35:15Z</time></trkpt><trkpt lat="44.43569268608077" lon="11.391699669639058"><ele>195.0</ele><time>2026-05-03T15:35:19Z</time></trkpt><trkpt lat="44.43566357328953" lon="11.391528904668398"><ele>195.0</ele><time>2026-05-03T15:35:33.999Z</time></trkpt><trkpt lat="44.43565292049542" lon="11.391370124933538"><ele>195.0</ele><time>2026-05-03T15:35:34.999Z</time></trkpt><trkpt lat="44.43565351168959" lon="11.391183174892987"><ele>195.0</ele><time>2026-05-03T15:35:35.999Z</time></trkpt><trkpt lat="44.43564954053826" lon="11.390995013377927"><ele>194.5</ele><time>2026-05-03T15:35:36.999Z</time></trkpt><trkpt lat="44.43564327525178" lon="11.390824693801935"><ele>194.0</ele><time>2026-05-03T15:35:37.999Z</time></trkpt><trkpt lat="44.43562506327296" lon="11.390643793913926"><ele>193.5</ele><time>2026-05-03T15:35:38.999Z</time></trkpt><trkpt lat="44.43560584974008" lon="11.390423563658146"><ele>193.0</ele><time>2026-05-03T15:35:39.999Z</time></trkpt><trkpt lat="44.435594153586" lon="11.390223666279224"><ele>194.2</ele><time>2026-05-03T15:35:40.999Z</time></trkpt><trkpt lat="44.43559380334511" lon="11.390039609691504"><ele>195.4</ele><time>2026-05-03T15:35:41.999Z</time></trkpt><trkpt lat="44.43559314550849" lon="11.389883569877478"><ele>196.6</ele><time>2026-05-03T15:35:42.999Z</time></trkpt><trkpt lat="44.43560127414615" lon="11.389750670671033"><ele>197.79999999999998</ele><time>2026-05-03T15:35:43.999Z</time></trkpt><trkpt lat="44.43560844901082" lon="11.389599985842194"><ele>199.0</ele><time>2026-05-03T15:35:44.999Z</time></trkpt><trkpt lat="44.43561262539113" lon="11.389497645615316"><ele>200.79999999999998</ele><time>2026-05-03T15:35:45.999Z</time></trkpt><trkpt lat="44.43561420118957" lon="11.389408178529672"><ele>202.6</ele><time>2026-05-03T15:35:46.999Z</time></trkpt><trkpt lat="44.435639861031" lon="11.389227705862568"><ele>204.4</ele><time>2026-05-03T15:35:48.999Z</time></trkpt><trkpt lat="44.43566514787032" lon="11.389115659672331"><ele>206.2</ele><time>2026-05-03T15:35:49.999Z</time></trkpt><trkpt lat="44.43569211186936" lon="11.388995755765865"><ele>208.0</ele><time>2026-05-03T15:35:50.999Z</time></trkpt><trkpt lat="44.43571150229477" lon="11.388876079490325"><ele>210.5</ele><time>2026-05-03T15:35:51.999Z</time></trkpt><trkpt lat="44.43573337654224" lon="11.38873598298066"><ele>213.0</ele><time>2026-05-03T15:35:52.999Z</time></trkpt><trkpt lat="44.43575983083311" lon="11.388591354137489"><ele>215.5</ele><time>2026-05-03T15:35:53.999Z</time></trkpt><trkpt lat="44.43580114066076" lon="11.388422275347128"><ele>218.0</ele><time>2026-05-03T15:35:54.999Z</time></trkpt><trkpt lat="44.435843740828275" lon="11.388242086759893"><ele>218.0</ele><time>2026-05-03T15:35:55.999Z</time></trkpt><trkpt lat="44.435886131505534" lon="11.388046623656882"><ele>218.0</ele><time>2026-05-03T15:35:56.999Z</time></trkpt><trkpt lat="44.43592750705222" lon="11.387837284219477"><ele>218.0</ele><time>2026-05-03T15:35:57.999Z</time></trkpt><trkpt lat="44.435972160586346" lon="11.387625217627601"><ele>221.25</ele><time>2026-05-03T15:35:58.999Z</time></trkpt><trkpt lat="44.43601025712527" lon="11.387447460521267"><ele>224.5</ele><time>2026-05-03T15:35:59.999Z</time></trkpt><trkpt lat="44.43604961908251" lon="11.38727179058949"><ele>227.75</ele><time>2026-05-03T15:36:00.999Z</time></trkpt><trkpt lat="44.436088355612235" lon="11.387102016867518"><ele>231.0</ele><time>2026-05-03T15:36:01.999Z</time></trkpt><trkpt lat="44.436120311202856" lon="11.386963854305291"><ele>233.0</ele><time>2026-05-03T15:36:02.999Z</time></trkpt><trkpt lat="44.4361478156499" lon="11.386838436460492"><ele>235.00000000000003</ele><time>2026-05-03T15:36:03.999Z</time></trkpt><trkpt lat="44.436163296602025" lon="11.386744758590305"><ele>237.00000000000003</ele><time>2026-05-03T15:36:04.999Z</time></trkpt><trkpt lat="44.436191071072145" lon="11.386582129314732"><ele>239.0</ele><time>2026-05-03T15:36:06.999Z</time></trkpt><trkpt lat="44.43623153667755" lon="11.386467088749058"><ele>241.0</ele><time>2026-05-03T15:36:07.999Z</time></trkpt><trkpt lat="44.436264138935584" lon="11.386343281838164"><ele>241.66666666666666</ele><time>2026-05-03T15:36:08.999Z</time></trkpt><trkpt lat="44.43628307726657" lon="11.386256647727476"><ele>242.33333333333331</ele><time>2026-05-03T15:36:09.999Z</time></trkpt><trkpt lat="44.43631363075279" lon="11.386132389641329"><ele>243.0</ele><time>2026-05-03T15:36:11.999Z</time></trkpt><trkpt lat="44.436339811754536" lon="11.386046537427962"><ele>243.66666666666669</ele><time>2026-05-03T15:36:13.999Z</time></trkpt><trkpt lat="44.43636096653364" lon="11.38594808396429"><ele>244.33333333333334</ele><time>2026-05-03T15:38:12.998Z</time></trkpt><trkpt lat="44.43632149801431" lon="11.385854862828928"><ele>245.0</ele><time>2026-05-03T15:38:14.998Z</time></trkpt><trkpt lat="44.43623896180109" lon="11.385787593077147"><ele>245.25</ele><time>2026-05-03T15:38:15.998Z</time></trkpt><trkpt lat="44.43615030497063" lon="11.385721341537993"><ele>245.5</ele><time>2026-05-03T15:38:16.998Z</time></trkpt><trkpt lat="44.43605443555608" lon="11.38563595651731"><ele>245.75</ele><time>2026-05-03T15:38:17.998Z</time></trkpt><trkpt lat="44.43594539873681" lon="11.385526865955361"><ele>246.0</ele><time>2026-05-03T15:38:18.998Z</time></trkpt><trkpt lat="44.43583615735692" lon="11.385403662253115"><ele>246.0</ele><time>2026-05-03T15:38:19.998Z</time></trkpt><trkpt lat="44.435720128355214" lon="11.385276587025379"><ele>246.0</ele><time>2026-05-03T15:38:20.998Z</time></trkpt><trkpt lat="44.435593847594234" lon="11.385130031325984"><ele>246.0</ele><time>2026-05-03T15:38:21.998Z</time></trkpt><trkpt lat="44.43547129622806" lon="11.384963083777771"><ele>248.0</ele><time>2026-05-03T15:38:22.998Z</time></trkpt><trkpt lat="44.43534604491307" lon="11.384795983625148"><ele>250.0</ele><time>2026-05-03T15:38:23.998Z</time></trkpt><trkpt lat="44.43522277616352" lon="11.384640242140192"><ele>252.0</ele><time>2026-05-03T15:38:24.998Z</time></trkpt><trkpt lat="44.435101899320294" lon="11.384508723351525"><ele>252.0</ele><time>2026-05-03T15:38:25.998Z</time></trkpt><trkpt lat="44.43497016066774" lon="11.384400205121846"><ele>252.0</ele><time>2026-05-03T15:38:26.998Z</time></trkpt><trkpt lat="44.43483705173942" lon="11.384302335393272"><ele>252.0</ele><time>2026-05-03T15:38:27.998Z</time></trkpt><trkpt lat="44.43470220399837" lon="11.38424382723364"><ele>252.0</ele><time>2026-05-03T15:38:28.999Z</time></trkpt><trkpt lat="44.43455381058326" lon="11.38421146023768"><ele>254.25</ele><time>2026-05-03T15:38:29.999Z</time></trkpt><trkpt lat="44.43439846470799" lon="11.384209961855014"><ele>256.5</ele><time>2026-05-03T15:38:30.999Z</time></trkpt><trkpt lat="44.43425528311914" lon="11.384178045025644"><ele>258.75</ele><time>2026-05-03T15:38:31.999Z</time></trkpt><trkpt lat="44.434107221993024" lon="11.384181349277474"><ele>261.0</ele><time>2026-05-03T15:38:32.999Z</time></trkpt><trkpt lat="44.43395458426693" lon="11.384147379260284"><ele>261.0</ele><time>2026-05-03T15:38:33.999Z</time></trkpt><trkpt lat="44.433813770908955" lon="11.384072832904174"><ele>261.0</ele><time>2026-05-03T15:38:34.999Z</time></trkpt><trkpt lat="44.43367692055594" lon="11.384000440197871"><ele>261.0</ele><time>2026-05-03T15:38:35.999Z</time></trkpt><trkpt lat="44.433554455544865" lon="11.383928765531826"><ele>261.0</ele><time>2026-05-03T15:38:36.999Z</time></trkpt><trkpt lat="44.433437715749015" lon="11.383876691545437"><ele>262.8</ele><time>2026-05-03T15:38:37.999Z</time></trkpt><trkpt lat="44.43334019825893" lon="11.383813986035415"><ele>264.6</ele><time>2026-05-03T15:38:38.999Z</time></trkpt><trkpt lat="44.433254448698676" lon="11.383725691909653"><ele>266.4</ele><time>2026-05-03T15:38:39.999Z</time></trkpt><trkpt lat="44.43315996729332" lon="11.383647631341375"><ele>268.2</ele><time>2026-05-03T15:38:40.999Z</time></trkpt><trkpt lat="44.43306602356377" lon="11.383554547733473"><ele>270.0</ele><time>2026-05-03T15:38:41.999Z</time></trkpt><trkpt lat="44.4329927934838" lon="11.383469081175747"><ele>271.1666666666667</ele><time>2026-05-03T15:38:42.999Z</time></trkpt><trkpt lat="44.432931935666524" lon="11.383389431860474"><ele>272.3333333333333</ele><time>2026-05-03T15:38:43.999Z</time></trkpt><trkpt lat="44.43287429609731" lon="11.383309764792433"><ele>273.5</ele><time>2026-05-03T15:38:44.999Z</time></trkpt><trkpt lat="44.43281695012612" lon="11.383228989000232"><ele>274.66666666666663</ele><time>2026-05-03T15:38:45.999Z</time></trkpt><trkpt lat="44.432746299616575" lon="11.383156890900732"><ele>275.8333333333333</ele><time>2026-05-03T15:38:46.999Z</time></trkpt><trkpt lat="44.43268430232573" lon="11.383068472360796"><ele>277.0</ele><time>2026-05-03T15:38:47.999Z</time></trkpt><trkpt lat="44.43263230904124" lon="11.382958867208956"><ele>278.2</ele><time>2026-05-03T15:38:48.999Z</time></trkpt><trkpt lat="44.43256985319671" lon="11.382863038019352"><ele>279.4</ele><time>2026-05-03T15:38:49.999Z</time></trkpt><trkpt lat="44.43250476224153" lon="11.382761234186107"><ele>280.6</ele><time>2026-05-03T15:38:50.999Z</time></trkpt><trkpt lat="44.432430462059756" lon="11.38264301098971"><ele>281.8</ele><time>2026-05-03T15:38:51.999Z</time></trkpt><trkpt lat="44.432358098679764" lon="11.382517903526068"><ele>283.0</ele><time>2026-05-03T15:38:52.999Z</time></trkpt><trkpt lat="44.43230301901478" lon="11.382365007353572"><ele>283.0</ele><time>2026-05-03T15:38:53.999Z</time></trkpt><trkpt lat="44.43225490931014" lon="11.382211678912142"><ele>283.0</ele><time>2026-05-03T15:38:54.999Z</time></trkpt><trkpt lat="44.432185936059824" lon="11.382059688375026"><ele>283.0</ele><time>2026-05-03T15:38:55.999Z</time></trkpt><trkpt lat="44.43211705088894" lon="11.381910503137616"><ele>283.0</ele><time>2026-05-03T15:38:56.999Z</time></trkpt><trkpt lat="44.43204210815528" lon="11.38176489217752"><ele>285.5</ele><time>2026-05-03T15:38:57.999Z</time></trkpt><trkpt lat="44.43196249241887" lon="11.381626867558936"><ele>288.0</ele><time>2026-05-03T15:38:58.999Z</time></trkpt><trkpt lat="44.43188532578477" lon="11.38151766092195"><ele>290.5</ele><time>2026-05-03T15:38:59.999Z</time></trkpt><trkpt lat="44.43180438213097" lon="11.38141473562009"><ele>293.0</ele><time>2026-05-03T15:39:00.999Z</time></trkpt><trkpt lat="44.43172376481553" lon="11.381303129689128"><ele>295.5</ele><time>2026-05-03T15:39:01.999Z</time></trkpt><trkpt lat="44.431556327141195" lon="11.38109980921062"><ele>298.0</ele><time>2026-05-03T15:39:03.999Z</time></trkpt><trkpt lat="44.43147157646941" lon="11.381009015719338"><ele>300.5</ele><time>2026-05-03T15:39:04.999Z</time></trkpt><trkpt lat="44.43138792934103" lon="11.380924628918036"><ele>303.0</ele><time>2026-05-03T15:39:05.999Z</time></trkpt><trkpt lat="44.431306112505716" lon="11.380835793980472"><ele>304.0</ele><time>2026-05-03T15:39:06.999Z</time></trkpt><trkpt lat="44.43121566050987" lon="11.380763623796343"><ele>305.0</ele><time>2026-05-03T15:39:07.999Z</time></trkpt><trkpt lat="44.43111948211809" lon="11.38070397580525"><ele>306.0</ele><time>2026-05-03T15:39:08.999Z</time></trkpt><trkpt lat="44.431035105963396" lon="11.380633468702024"><ele>307.0</ele><time>2026-05-03T15:39:09.999Z</time></trkpt><trkpt lat="44.43096421528835" lon="11.380608223180458"><ele>308.0</ele><time>2026-05-03T15:39:10.999Z</time></trkpt><trkpt lat="44.43084301490158" lon="11.380578581314436"><ele>308.0</ele><time>2026-05-03T15:39:12.999Z</time></trkpt><trkpt lat="44.4306712391307" lon="11.380531030660652"><ele>308.0</ele><time>2026-05-03T15:39:14.999Z</time></trkpt><trkpt lat="44.430608060959756" lon="11.380456863216514"><ele>308.0</ele><time>2026-05-03T15:39:16.999Z</time></trkpt><trkpt lat="44.43048485291525" lon="11.380466194501247"><ele>308.0</ele><time>2026-05-03T15:39:19.999Z</time></trkpt><trkpt lat="44.4303937581757" lon="11.38053851839336"><ele>311.0</ele><time>2026-05-03T15:39:20.999Z</time></trkpt><trkpt lat="44.43029633400187" lon="11.380570318468454"><ele>314.0</ele><time>2026-05-03T15:39:21.999Z</time></trkpt><trkpt lat="44.430185617019276" lon="11.38066663663663"><ele>317.0</ele><time>2026-05-03T15:39:22.999Z</time></trkpt><trkpt lat="44.43007305415366" lon="11.380750631096625"><ele>320.0</ele><time>2026-05-03T15:39:23.999Z</time></trkpt><trkpt lat="44.4299622967201" lon="11.380844923511557"><ele>320.0</ele><time>2026-05-03T15:39:24.999Z</time></trkpt><trkpt lat="44.4298483307464" lon="11.380958228588867"><ele>320.0</ele><time>2026-05-03T15:39:25.999Z</time></trkpt><trkpt lat="44.429735668883744" lon="11.381103005224723"><ele>320.0</ele><time>2026-05-03T15:39:26.999Z</time></trkpt><trkpt lat="44.4296351046001" lon="11.381266548331917"><ele>320.0</ele><time>2026-05-03T15:39:27.999Z</time></trkpt><trkpt lat="44.42954736720948" lon="11.381440736785082"><ele>321.75</ele><time>2026-05-03T15:39:28.999Z</time></trkpt><trkpt lat="44.42946285609638" lon="11.381615729596838"><ele>323.5</ele><time>2026-05-03T15:39:29.999Z</time></trkpt><trkpt lat="44.42936055903926" lon="11.381730423348198"><ele>325.25</ele><time>2026-05-03T15:39:30.999Z</time></trkpt><trkpt lat="44.429262385453846" lon="11.381811301829584"><ele>327.0</ele><time>2026-05-03T15:39:31.999Z</time></trkpt><trkpt lat="44.42915796143611" lon="11.381849997642398"><ele>327.0</ele><time>2026-05-03T15:39:32.999Z</time></trkpt><trkpt lat="44.4290326930754" lon="11.381894003900179"><ele>327.0</ele><time>2026-05-03T15:39:33.999Z</time></trkpt><trkpt lat="44.42890641567421" lon="11.381921599963189"><ele>327.0</ele><time>2026-05-03T15:39:34.999Z</time></trkpt><trkpt lat="44.4287981899821" lon="11.381964950758485"><ele>327.0</ele><time>2026-05-03T15:39:35.999Z</time></trkpt><trkpt lat="44.42870877081614" lon="11.38203021693482"><ele>327.40000000000003</ele><time>2026-05-03T15:39:36.999Z</time></trkpt><trkpt lat="44.42861840947253" lon="11.382114044156147"><ele>327.8</ele><time>2026-05-03T15:39:37.999Z</time></trkpt><trkpt lat="44.428523928511545" lon="11.382158113531144"><ele>328.2</ele><time>2026-05-03T15:39:38.999Z</time></trkpt><trkpt lat="44.42843245209999" lon="11.382181866973758"><ele>328.6</ele><time>2026-05-03T15:39:39.999Z</time></trkpt><trkpt lat="44.428346240710496" lon="11.382209713836602"><ele>329.0</ele><time>2026-05-03T15:39:40.999Z</time></trkpt><trkpt lat="44.42827030058809" lon="11.3822515777712"><ele>329.0</ele><time>2026-05-03T15:39:41.999Z</time></trkpt><trkpt lat="44.42820750366815" lon="11.38226371699027"><ele>329.0</ele><time>2026-05-03T15:39:42.999Z</time></trkpt><trkpt lat="44.42810802440745" lon="11.38227662554634"><ele>329.0</ele><time>2026-05-03T15:39:44.999Z</time></trkpt><trkpt lat="44.42806512147551" lon="11.382443467330688"><ele>329.0</ele><time>2026-05-03T15:39:46.999Z</time></trkpt><trkpt lat="44.42801638357822" lon="11.38251469303682"><ele>329.0</ele><time>2026-05-03T15:39:47.999Z</time></trkpt><trkpt lat="44.427978679948765" lon="11.382601289865667"><ele>329.0</ele><time>2026-05-03T15:39:48.999Z</time></trkpt><trkpt lat="44.4279307912316" lon="11.382759572815777"><ele>328.33333333333337</ele><time>2026-05-03T15:39:50.999Z</time></trkpt><trkpt lat="44.42787589191782" lon="11.38287440069058"><ele>327.6666666666667</ele><time>2026-05-03T15:39:52.999Z</time></trkpt><trkpt lat="44.42788465601891" lon="11.382981830524004"><ele>327.0</ele><time>2026-05-03T15:39:54.999Z</time></trkpt><trkpt lat="44.42786219526444" lon="11.383095026882229"><ele>326.3333333333333</ele><time>2026-05-03T15:39:56.999Z</time></trkpt><trkpt lat="44.42782966868922" lon="11.383189635729888"><ele>325.66666666666663</ele><time>2026-05-03T15:39:58.999Z</time></trkpt><trkpt lat="44.427788689473346" lon="11.383305295184048"><ele>325.0</ele><time>2026-05-03T15:40:00.999Z</time></trkpt><trkpt lat="44.427757745853455" lon="11.383388183611817"><ele>325.0</ele><time>2026-05-03T15:40:01.999Z</time></trkpt><trkpt lat="44.42772875992455" lon="11.383483745442959"><ele>325.0</ele><time>2026-05-03T15:40:02.999Z</time></trkpt><trkpt lat="44.42770254870822" lon="11.38358816969979"><ele>325.0</ele><time>2026-05-03T15:40:03.999Z</time></trkpt><trkpt lat="44.42768321323871" lon="11.38370510938479"><ele>325.0</ele><time>2026-05-03T15:40:04.999Z</time></trkpt><trkpt lat="44.427661615028995" lon="11.383840795386087"><ele>325.0</ele><time>2026-05-03T15:40:05.999Z</time></trkpt><trkpt lat="44.427651917803814" lon="11.38396694481515"><ele>325.0</ele><time>2026-05-03T15:40:06.999Z</time></trkpt><trkpt lat="44.42764251736652" lon="11.384077118829573"><ele>324.0</ele><time>2026-05-03T15:40:07.999Z</time></trkpt><trkpt lat="44.42763516021557" lon="11.384169996890765"><ele>323.0</ele><time>2026-05-03T15:40:08.999Z</time></trkpt><trkpt lat="44.42762402997734" lon="11.384320613011162"><ele>322.0</ele><time>2026-05-03T15:40:10.999Z</time></trkpt><trkpt lat="44.42763017879392" lon="11.384408396672189"><ele>321.0</ele><time>2026-05-03T15:40:11.999Z</time></trkpt><trkpt lat="44.42764353086863" lon="11.384495344775596"><ele>320.0</ele><time>2026-05-03T15:40:12.999Z</time></trkpt><trkpt lat="44.4276591614442" lon="11.384583571970659"><ele>319.0</ele><time>2026-05-03T15:40:13.999Z</time></trkpt><trkpt lat="44.42767940740929" lon="11.384678804828573"><ele>318.0</ele><time>2026-05-03T15:40:14.999Z</time></trkpt><trkpt lat="44.42769883693589" lon="11.384766286043599"><ele>316.4</ele><time>2026-05-03T15:40:15.999Z</time></trkpt><trkpt lat="44.42772583718859" lon="11.384883285710005"><ele>314.8</ele><time>2026-05-03T15:40:17.999Z</time></trkpt><trkpt lat="44.427758522583844" lon="11.385020511412273"><ele>313.2</ele><time>2026-05-03T15:40:19.999Z</time></trkpt><trkpt lat="44.427782833385635" lon="11.385112413075147"><ele>311.6</ele><time>2026-05-03T15:40:20.999Z</time></trkpt><trkpt lat="44.42782521319194" lon="11.385267500739701"><ele>310.0</ele><time>2026-05-03T15:40:22.999Z</time></trkpt><trkpt lat="44.42785082890017" lon="11.385360038727555"><ele>310.0</ele><time>2026-05-03T15:40:23.999Z</time></trkpt><trkpt lat="44.42788033151861" lon="11.385466336211872"><ele>310.0</ele><time>2026-05-03T15:40:24.999Z</time></trkpt><trkpt lat="44.42790944914597" lon="11.38557124660983"><ele>310.0</ele><time>2026-05-03T15:40:25.999Z</time></trkpt><trkpt lat="44.42793270888201" lon="11.38565505112742"><ele>310.0</ele><time>2026-05-03T15:40:26.998Z</time></trkpt><trkpt lat="44.42796484747338" lon="11.38578006967529"><ele>310.0</ele><time>2026-05-03T15:40:28.998Z</time></trkpt><trkpt lat="44.4279775060273" lon="11.38586765697624"><ele>310.0</ele><time>2026-05-03T15:40:31.998Z</time></trkpt><trkpt lat="44.42802478545717" lon="11.385965666395913"><ele>308.0</ele><time>2026-05-03T15:40:48.999Z</time></trkpt><trkpt lat="44.42802406060044" lon="11.386065907047"><ele>306.0</ele><time>2026-05-03T15:40:50.999Z</time></trkpt><trkpt lat="44.42800806612434" lon="11.386184865966541"><ele>304.0</ele><time>2026-05-03T15:40:52.999Z</time></trkpt><trkpt lat="44.42796529888625" lon="11.386276781812587"><ele>302.0</ele><time>2026-05-03T15:40:54.999Z</time></trkpt><trkpt lat="44.42790284911404" lon="11.386408110239893"><ele>300.0</ele><time>2026-05-03T15:40:57.999Z</time></trkpt><trkpt lat="44.427844429394554" lon="11.386537945184743"><ele>296.0</ele><time>2026-05-03T15:40:59.999Z</time></trkpt><trkpt lat="44.42781201873855" lon="11.386618587747211"><ele>292.0</ele><time>2026-05-03T15:41:01.999Z</time></trkpt><trkpt lat="44.42774293449616" lon="11.38681556536124"><ele>288.0</ele><time>2026-05-03T15:41:04.999Z</time></trkpt><trkpt lat="44.427706658280066" lon="11.386915760307547"><ele>284.0</ele><time>2026-05-03T15:41:06.999Z</time></trkpt><trkpt lat="44.42765862946171" lon="11.387056405465426"><ele>280.0</ele><time>2026-05-03T15:41:08.999Z</time></trkpt><trkpt lat="44.427615885776156" lon="11.387198005412396"><ele>277.0</ele><time>2026-05-03T15:41:10.999Z</time></trkpt><trkpt lat="44.42756894449227" lon="11.387340264266943"><ele>274.0</ele><time>2026-05-03T15:41:12.999Z</time></trkpt><trkpt lat="44.42750365255535" lon="11.387470023029802"><ele>271.0</ele><time>2026-05-03T15:41:14.999Z</time></trkpt><trkpt lat="44.42743949738554" lon="11.387548978827867"><ele>268.0</ele><time>2026-05-03T15:41:16.999Z</time></trkpt><trkpt lat="44.42740446866697" lon="11.387657449468964"><ele>265.0</ele><time>2026-05-03T15:41:18.999Z</time></trkpt><trkpt lat="44.427355930868345" lon="11.38775209705053"><ele>265.0</ele><time>2026-05-03T15:41:20.999Z</time></trkpt><trkpt lat="44.42730235003396" lon="11.38783138660046"><ele>265.0</ele><time>2026-05-03T15:41:22.999Z</time></trkpt><trkpt lat="44.42726543343254" lon="11.387914359709097"><ele>265.0</ele><time>2026-05-03T15:41:24.999Z</time></trkpt><trkpt lat="44.42724388033958" lon="11.388013304755779"><ele>265.0</ele><time>2026-05-03T15:41:34.999Z</time></trkpt><trkpt lat="44.427214160067216" lon="11.38809785708504"><ele>265.0</ele><time>2026-05-03T15:41:35.999Z</time></trkpt><trkpt lat="44.427170947080434" lon="11.388193924955194"><ele>265.0</ele><time>2026-05-03T15:41:37.999Z</time></trkpt><trkpt lat="44.427124043568035" lon="11.388325493239815"><ele>263.0</ele><time>2026-05-03T15:41:39.999Z</time></trkpt><trkpt lat="44.42708802158394" lon="11.388412564284131"><ele>261.0</ele><time>2026-05-03T15:41:40.999Z</time></trkpt><trkpt lat="44.42702825630602" lon="11.38852051496189"><ele>259.0</ele><time>2026-05-03T15:41:42.999Z</time></trkpt><trkpt lat="44.427021372272364" lon="11.388659755980372"><ele>257.0</ele><time>2026-05-03T15:41:45.999Z</time></trkpt><trkpt lat="44.426995542746326" lon="11.38874489085741"><ele>254.99999999999997</ele><time>2026-05-03T15:41:47.999Z</time></trkpt><trkpt lat="44.42693902420056" lon="11.388806326512068"><ele>253.0</ele><time>2026-05-03T15:41:48.999Z</time></trkpt><trkpt lat="44.426879571457775" lon="11.38887625204307"><ele>251.4</ele><time>2026-05-03T15:41:49.999Z</time></trkpt><trkpt lat="44.42681087801861" lon="11.389001139904634"><ele>249.8</ele><time>2026-05-03T15:41:51.999Z</time></trkpt><trkpt lat="44.42674376976248" lon="11.389147575266124"><ele>248.2</ele><time>2026-05-03T15:41:53.999Z</time></trkpt><trkpt lat="44.42671068612841" lon="11.389238318159395"><ele>246.6</ele><time>2026-05-03T15:41:54.999Z</time></trkpt><trkpt lat="44.42667356621648" lon="11.389351744146662"><ele>245.0</ele><time>2026-05-03T15:41:55.999Z</time></trkpt><trkpt lat="44.4266497769257" lon="11.389450059855497"><ele>245.0</ele><time>2026-05-03T15:41:56.999Z</time></trkpt><trkpt lat="44.42663642711721" lon="11.389543945039671"><ele>245.0</ele><time>2026-05-03T15:41:57.999Z</time></trkpt><trkpt lat="44.42661624091622" lon="11.389646712061937"><ele>245.0</ele><time>2026-05-03T15:41:58.999Z</time></trkpt><trkpt lat="44.42657843993757" lon="11.38979821001477"><ele>245.0</ele><time>2026-05-03T15:41:59.999Z</time></trkpt><trkpt lat="44.42654033153456" lon="11.389948657847595"><ele>245.0</ele><time>2026-05-03T15:42:00.999Z</time></trkpt><trkpt lat="44.42651116238154" lon="11.390070210646675"><ele>241.6</ele><time>2026-05-03T15:42:01.999Z</time></trkpt><trkpt lat="44.42648416712901" lon="11.390185969411242"><ele>238.2</ele><time>2026-05-03T15:42:02.999Z</time></trkpt><trkpt lat="44.42645943458728" lon="11.390289846816179"><ele>234.8</ele><time>2026-05-03T15:42:03.999Z</time></trkpt><trkpt lat="44.42643202174911" lon="11.390387864267966"><ele>231.4</ele><time>2026-05-03T15:42:04.999Z</time></trkpt><trkpt lat="44.42637697170078" lon="11.390531748557127"><ele>228.0</ele><time>2026-05-03T15:42:06.999Z</time></trkpt><trkpt lat="44.42632402542319" lon="11.390660619150344"><ele>226.16666666666666</ele><time>2026-05-03T15:42:08.999Z</time></trkpt><trkpt lat="44.426286941732805" lon="11.390738469914261"><ele>224.33333333333331</ele><time>2026-05-03T15:42:10.999Z</time></trkpt><trkpt lat="44.426271288028694" lon="11.390824130019302"><ele>222.5</ele><time>2026-05-03T15:42:14.999Z</time></trkpt><trkpt lat="44.42625754063085" lon="11.390935709344744"><ele>220.66666666666666</ele><time>2026-05-03T15:42:17.999Z</time></trkpt><trkpt lat="44.426258452196066" lon="11.391028420700101"><ele>218.83333333333331</ele><time>2026-05-03T15:42:20.999Z</time></trkpt><trkpt lat="44.42628550793587" lon="11.391146202158803"><ele>217.0</ele><time>2026-05-03T15:42:23.999Z</time></trkpt><trkpt lat="44.42624997946914" lon="11.391266016463929"><ele>215.57142857142858</ele><time>2026-05-03T15:42:26.999Z</time></trkpt><trkpt lat="44.426212039700054" lon="11.391341420885645"><ele>214.14285714285714</ele><time>2026-05-03T15:42:29.998Z</time></trkpt><trkpt lat="44.426203047670114" lon="11.391458955879568"><ele>212.71428571428572</ele><time>2026-05-03T15:42:33.998Z</time></trkpt><trkpt lat="44.42618418960833" lon="11.391545380051253"><ele>211.28571428571428</ele><time>2026-05-03T15:42:37.998Z</time></trkpt><trkpt lat="44.42618665403839" lon="11.391670834952977"><ele>209.85714285714286</ele><time>2026-05-03T15:42:41Z</time></trkpt><trkpt lat="44.426199322499166" lon="11.391774034045062"><ele>208.42857142857144</ele><time>2026-05-03T15:42:43Z</time></trkpt><trkpt lat="44.42621404646585" lon="11.391869543857728"><ele>207.0</ele><time>2026-05-03T15:42:46Z</time></trkpt><trkpt lat="44.42622064275625" lon="11.392050651989132"><ele>207.0</ele><time>2026-05-03T15:42:49Z</time></trkpt><trkpt lat="44.42623830654577" lon="11.392156094309096"><ele>207.0</ele><time>2026-05-03T15:42:53Z</time></trkpt><trkpt lat="44.426266292632505" lon="11.392250389058937"><ele>207.0</ele><time>2026-05-03T15:42:56Z</time></trkpt><trkpt lat="44.42629890372416" lon="11.392358342336266"><ele>207.0</ele><time>2026-05-03T15:42:59Z</time></trkpt><trkpt lat="44.42636421044662" lon="11.392433501155361"><ele>207.0</ele><time>2026-05-03T15:43:02Z</time></trkpt><trkpt lat="44.42639616257664" lon="11.392548514344368"><ele>207.0</ele><time>2026-05-03T15:43:05Z</time></trkpt><trkpt lat="44.42645338711752" lon="11.392644191335977"><ele>203.5</ele><time>2026-05-03T15:43:08Z</time></trkpt><trkpt lat="44.426484655141095" lon="11.392722742037213"><ele>200.0</ele><time>2026-05-03T15:43:11Z</time></trkpt><trkpt lat="44.42651774215426" lon="11.392832151899684"><ele>196.5</ele><time>2026-05-03T15:43:14Z</time></trkpt><trkpt lat="44.426515292138845" lon="11.392977848670155"><ele>193.0</ele><time>2026-05-03T15:43:16.999Z</time></trkpt><trkpt lat="44.42648601708293" lon="11.393085286412097"><ele>189.5</ele><time>2026-05-03T15:43:18.999Z</time></trkpt><trkpt lat="44.42644047072269" lon="11.393157722132269"><ele>186.0</ele><time>2026-05-03T15:43:20.999Z</time></trkpt><trkpt lat="44.4264009056273" lon="11.393296697003372"><ele>185.5</ele><time>2026-05-03T15:43:22.999Z</time></trkpt><trkpt lat="44.42635053446035" lon="11.39339279189136"><ele>185.0</ele><time>2026-05-03T15:43:23.999Z</time></trkpt><trkpt lat="44.42629086767474" lon="11.393470798445994"><ele>184.5</ele><time>2026-05-03T15:43:24.999Z</time></trkpt><trkpt lat="44.42619963069793" lon="11.393541699188294"><ele>184.0</ele><time>2026-05-03T15:43:26.999Z</time></trkpt><trkpt lat="44.426123047700955" lon="11.393550430661776"><ele>183.5</ele><time>2026-05-03T15:43:28.999Z</time></trkpt><trkpt lat="44.42603494185563" lon="11.393616502166925"><ele>183.0</ele><time>2026-05-03T15:43:30.999Z</time></trkpt><trkpt lat="44.42595044684248" lon="11.39370214833298"><ele>182.4</ele><time>2026-05-03T15:43:32.999Z</time></trkpt><trkpt lat="44.42585051410187" lon="11.39378223575714"><ele>181.8</ele><time>2026-05-03T15:43:34.999Z</time></trkpt><trkpt lat="44.42575024590991" lon="11.393876702670926"><ele>181.2</ele><time>2026-05-03T15:43:36.999Z</time></trkpt><trkpt lat="44.4256663319104" lon="11.393981174231957"><ele>180.6</ele><time>2026-05-03T15:43:38.999Z</time></trkpt><trkpt lat="44.425600865132225" lon="11.394062827396134"><ele>180.0</ele><time>2026-05-03T15:43:40.999Z</time></trkpt><trkpt lat="44.42552811214722" lon="11.394143091138362"><ele>175.2</ele><time>2026-05-03T15:43:42.999Z</time></trkpt><trkpt lat="44.42546204272484" lon="11.394220740294145"><ele>170.4</ele><time>2026-05-03T15:43:44.999Z</time></trkpt><trkpt lat="44.42540303716048" lon="11.394307985623106"><ele>165.6</ele><time>2026-05-03T15:43:46.999Z</time></trkpt><trkpt lat="44.425341635097645" lon="11.394401089992597"><ele>160.8</ele><time>2026-05-03T15:43:48.999Z</time></trkpt><trkpt lat="44.42528734846057" lon="11.39452676362246"><ele>156.0</ele><time>2026-05-03T15:43:50.999Z</time></trkpt><trkpt lat="44.42524238567643" lon="11.394623545095534"><ele>155.2</ele><time>2026-05-03T15:43:51.999Z</time></trkpt><trkpt lat="44.425199866901785" lon="11.394703747355056"><ele>154.39999999999998</ele><time>2026-05-03T15:43:52.999Z</time></trkpt><trkpt lat="44.42512311014776" lon="11.394839117133992"><ele>153.6</ele><time>2026-05-03T15:43:54.999Z</time></trkpt><trkpt lat="44.42506449930841" lon="11.394950795456468"><ele>152.79999999999998</ele><time>2026-05-03T15:43:56.999Z</time></trkpt><trkpt lat="44.42500642383533" lon="11.395038038274492"><ele>152.0</ele><time>2026-05-03T15:43:58.999Z</time></trkpt><trkpt lat="44.424977160796466" lon="11.395162539375024"><ele>152.0</ele><time>2026-05-03T15:44:00.999Z</time></trkpt><trkpt lat="44.42496155276624" lon="11.39529247226068"><ele>152.0</ele><time>2026-05-03T15:44:01.999Z</time></trkpt><trkpt lat="44.42493568218059" lon="11.395429624479725"><ele>152.0</ele><time>2026-05-03T15:44:02.999Z</time></trkpt><trkpt lat="44.42491081275992" lon="11.3955310561645"><ele>152.0</ele><time>2026-05-03T15:44:03.999Z</time></trkpt><trkpt lat="44.424890643342174" lon="11.39561880338846"><ele>152.0</ele><time>2026-05-03T15:44:04.999Z</time></trkpt><trkpt lat="44.42484970404678" lon="11.395769095655409"><ele>151.5</ele><time>2026-05-03T15:44:06.999Z</time></trkpt><trkpt lat="44.424821043742924" lon="11.395875483735589"><ele>151.0</ele><time>2026-05-03T15:44:08.999Z</time></trkpt><trkpt lat="44.424803768059576" lon="11.395982513097014"><ele>150.5</ele><time>2026-05-03T15:44:10.999Z</time></trkpt><trkpt lat="44.42481867858091" lon="11.396075245399407"><ele>150.0</ele><time>2026-05-03T15:44:12.999Z</time></trkpt><trkpt lat="44.42485201460728" lon="11.396156056802893"><ele>149.5</ele><time>2026-05-03T15:44:14.999Z</time></trkpt><trkpt lat="44.42489657721746" lon="11.396247264266027"><ele>149.0</ele><time>2026-05-03T15:44:17.999Z</time></trkpt><trkpt lat="44.424928691205224" lon="11.396361783005334"><ele>147.16666666666666</ele><time>2026-05-03T15:44:20.999Z</time></trkpt><trkpt lat="44.424941412797665" lon="11.39647283728072"><ele>145.33333333333331</ele><time>2026-05-03T15:44:22.999Z</time></trkpt><trkpt lat="44.42495952559572" lon="11.396607787277528"><ele>143.5</ele><time>2026-05-03T15:44:24.999Z</time></trkpt><trkpt lat="44.424968418836286" lon="11.39670427217222"><ele>141.66666666666666</ele><time>2026-05-03T15:44:25.999Z</time></trkpt><trkpt lat="44.425003609026675" lon="11.396806478104002"><ele>139.83333333333334</ele><time>2026-05-03T15:44:27.999Z</time></trkpt><trkpt lat="44.425073979899736" lon="11.396870445434395"><ele>138.0</ele><time>2026-05-03T15:44:29.999Z</time></trkpt><trkpt lat="44.42514341674765" lon="11.396905121622508"><ele>138.0</ele><time>2026-05-03T15:44:30.999Z</time></trkpt><trkpt lat="44.425213431468" lon="11.396943153059722"><ele>138.0</ele><time>2026-05-03T15:44:31.999Z</time></trkpt><trkpt lat="44.42531733217667" lon="11.39700542179782"><ele>138.0</ele><time>2026-05-03T15:44:33.999Z</time></trkpt><trkpt lat="44.4254238415007" lon="11.397052445763885"><ele>138.0</ele><time>2026-05-03T15:44:35.999Z</time></trkpt><trkpt lat="44.4254902499266" lon="11.397119508591409"><ele>138.0</ele><time>2026-05-03T15:44:36.999Z</time></trkpt><trkpt lat="44.42555955483238" lon="11.39718936270813"><ele>134.66666666666666</ele><time>2026-05-03T15:44:37.999Z</time></trkpt><trkpt lat="44.42562084377708" lon="11.397244633430104"><ele>131.33333333333334</ele><time>2026-05-03T15:44:38.999Z</time></trkpt><trkpt lat="44.425673403580795" lon="11.397294462210887"><ele>128.0</ele><time>2026-05-03T15:44:39.999Z</time></trkpt><trkpt lat="44.42574987205495" lon="11.397366634527726"><ele>124.66666666666667</ele><time>2026-05-03T15:44:41.998Z</time></trkpt><trkpt lat="44.425817328891256" lon="11.397427268970526"><ele>121.33333333333334</ele><time>2026-05-03T15:44:43.998Z</time></trkpt><trkpt lat="44.42588972957196" lon="11.397484799734032"><ele>118.0</ele><time>2026-05-03T15:44:45.998Z</time></trkpt><trkpt lat="44.425935236073016" lon="11.397579831400725"><ele>118.0</ele><time>2026-05-03T15:44:49Z</time></trkpt><trkpt lat="44.425970686268165" lon="11.397702479266458"><ele>118.00000000000001</ele><time>2026-05-03T15:44:52Z</time></trkpt><trkpt lat="44.426011549515785" lon="11.39783140396263"><ele>118.00000000000001</ele><time>2026-05-03T15:44:54Z</time></trkpt><trkpt lat="44.42605360748969" lon="11.397950465716733"><ele>118.0</ele><time>2026-05-03T15:44:56Z</time></trkpt><trkpt lat="44.42609220005728" lon="11.398069197130155"><ele>118.0</ele><time>2026-05-03T15:44:58Z</time></trkpt><trkpt lat="44.426110697420896" lon="11.398162363623928"><ele>115.0</ele><time>2026-05-03T15:45:00Z</time></trkpt><trkpt lat="44.42611707492921" lon="11.398254874301585"><ele>112.00000000000001</ele><time>2026-05-03T15:45:02Z</time></trkpt><trkpt lat="44.42604397987283" lon="11.398351965849377"><ele>109.0</ele><time>2026-05-03T15:45:05Z</time></trkpt><trkpt lat="44.4259340439914" lon="11.398449527549674"><ele>106.0</ele><time>2026-05-03T15:45:07Z</time></trkpt><trkpt lat="44.42586080536986" lon="11.398513672408505"><ele>103.0</ele><time>2026-05-03T15:45:09Z</time></trkpt><trkpt lat="44.425805181881216" lon="11.398565335610519"><ele>103.0</ele><time>2026-05-03T15:45:11Z</time></trkpt><trkpt lat="44.42575734980016" lon="11.398695000316588"><ele>103.0</ele><time>2026-05-03T15:45:13Z</time></trkpt><trkpt lat="44.425742202325274" lon="11.398845901371544"><ele>103.0</ele><time>2026-05-03T15:45:15Z</time></trkpt><trkpt lat="44.42572517863361" lon="11.398971375135734"><ele>103.0</ele><time>2026-05-03T15:45:17Z</time></trkpt><trkpt lat="44.42564639890134" lon="11.399094536716337"><ele>103.0</ele><time>2026-05-03T15:45:19Z</time></trkpt><trkpt lat="44.42560612886054" lon="11.399240196431483"><ele>101.2</ele><time>2026-05-03T15:45:21Z</time></trkpt><trkpt lat="44.425581442503514" lon="11.399378967942953"><ele>99.4</ele><time>2026-05-03T15:45:22Z</time></trkpt><trkpt lat="44.42555356989028" lon="11.399539881701072"><ele>97.60000000000001</ele><time>2026-05-03T15:45:23Z</time></trkpt><trkpt lat="44.42552844825077" lon="11.399698025286648"><ele>95.80000000000001</ele><time>2026-05-03T15:45:24Z</time></trkpt><trkpt lat="44.42551098126687" lon="11.399836148116398"><ele>94.0</ele><time>2026-05-03T15:45:25Z</time></trkpt><trkpt lat="44.425497849537926" lon="11.39993266902771"><ele>93.83333333333333</ele><time>2026-05-03T15:45:26Z</time></trkpt><trkpt lat="44.42548093868835" lon="11.40007345136785"><ele>93.66666666666666</ele><time>2026-05-03T15:45:27Z</time></trkpt><trkpt lat="44.42546004836274" lon="11.400202477999377"><ele>93.5</ele><time>2026-05-03T15:45:28Z</time></trkpt><trkpt lat="44.42543580846609" lon="11.400298617585229"><ele>93.33333333333333</ele><time>2026-05-03T15:45:29Z</time></trkpt><trkpt lat="44.425420330234694" lon="11.400390374148007"><ele>93.16666666666667</ele><time>2026-05-03T15:45:29.999Z</time></trkpt><trkpt lat="44.425404578152154" lon="11.400495324127862"><ele>93.0</ele><time>2026-05-03T15:45:31.999Z</time></trkpt><trkpt lat="44.425402132658384" lon="11.400608433288749"><ele>92.83333333333333</ele><time>2026-05-03T15:45:33.999Z</time></trkpt><trkpt lat="44.42539872661281" lon="11.400708274213802"><ele>92.66666666666667</ele><time>2026-05-03T15:45:36.999Z</time></trkpt><trkpt lat="44.42544005601569" lon="11.400791817355792"><ele>92.5</ele><time>2026-05-03T15:45:59.999Z</time></trkpt><trkpt lat="44.425516367274284" lon="11.400838936596628"><ele>92.33333333333334</ele><time>2026-05-03T15:46:00.999Z</time></trkpt><trkpt lat="44.42561316387333" lon="11.400865229887142"><ele>92.16666666666667</ele><time>2026-05-03T15:46:01.999Z</time></trkpt><trkpt lat="44.42571433122051" lon="11.400869195433138"><ele>92.0</ele><time>2026-05-03T15:46:02.999Z</time></trkpt><trkpt lat="44.42583575293096" lon="11.400866218723282"><ele>91.75</ele><time>2026-05-03T15:46:03.999Z</time></trkpt><trkpt lat="44.42596399762155" lon="11.40083687415951"><ele>91.5</ele><time>2026-05-03T15:46:04.999Z</time></trkpt><trkpt lat="44.426091112984004" lon="11.400798810689873"><ele>91.25</ele><time>2026-05-03T15:46:05.999Z</time></trkpt><trkpt lat="44.42621964934019" lon="11.400742272420809"><ele>91.0</ele><time>2026-05-03T15:46:06.999Z</time></trkpt><trkpt lat="44.42634541702928" lon="11.400671084767898"><ele>91.33333333333333</ele><time>2026-05-03T15:46:07.999Z</time></trkpt><trkpt lat="44.42647273894706" lon="11.400581974335289"><ele>91.66666666666667</ele><time>2026-05-03T15:46:08.999Z</time></trkpt><trkpt lat="44.4266057570017" lon="11.400462670055704"><ele>92.0</ele><time>2026-05-03T15:46:09.999Z</time></trkpt><trkpt lat="44.4267290029429" lon="11.400336059479002"><ele>92.0</ele><time>2026-05-03T15:46:10.999Z</time></trkpt><trkpt lat="44.426832282849034" lon="11.400179738458137"><ele>92.0</ele><time>2026-05-03T15:46:11.999Z</time></trkpt><trkpt lat="44.426931443432544" lon="11.40000332282139"><ele>92.0</ele><time>2026-05-03T15:46:12.999Z</time></trkpt><trkpt lat="44.427014610108415" lon="11.399818307021418"><ele>91.8</ele><time>2026-05-03T15:46:13.999Z</time></trkpt><trkpt lat="44.42707608985105" lon="11.39965946653985"><ele>91.6</ele><time>2026-05-03T15:46:14.999Z</time></trkpt><trkpt lat="44.42712849944328" lon="11.39951140197492"><ele>91.39999999999999</ele><time>2026-05-03T15:46:15.999Z</time></trkpt><trkpt lat="44.42719315997126" lon="11.399389506234229"><ele>91.19999999999999</ele><time>2026-05-03T15:46:16.999Z</time></trkpt><trkpt lat="44.4272663969796" lon="11.399328337455621"><ele>91.0</ele><time>2026-05-03T15:46:17.999Z</time></trkpt><trkpt lat="44.42733666893853" lon="11.399316597908763"><ele>91.0</ele><time>2026-05-03T15:46:18.999Z</time></trkpt><trkpt lat="44.427407477652224" lon="11.399359172286962"><ele>91.0</ele><time>2026-05-03T15:46:19.999Z</time></trkpt><trkpt lat="44.427488261475624" lon="11.399428842354407"><ele>91.0</ele><time>2026-05-03T15:46:20.999Z</time></trkpt><trkpt lat="44.42756293664123" lon="11.399491944333967"><ele>91.0</ele><time>2026-05-03T15:46:21.999Z</time></trkpt><trkpt lat="44.427638198979366" lon="11.39953466465642"><ele>91.0</ele><time>2026-05-03T15:46:22.999Z</time></trkpt><trkpt lat="44.42771778691375" lon="11.39957392345047"><ele>91.0</ele><time>2026-05-03T15:46:23.999Z</time></trkpt><trkpt lat="44.427805015725376" lon="11.399626547643562"><ele>91.0</ele><time>2026-05-03T15:46:24.999Z</time></trkpt><trkpt lat="44.42791440754676" lon="11.399686509656444"><ele>91.0</ele><time>2026-05-03T15:46:25.999Z</time></trkpt><trkpt lat="44.42804234174409" lon="11.399741850151404"><ele>91.0</ele><time>2026-05-03T15:46:26.999Z</time></trkpt><trkpt lat="44.42818654970412" lon="11.39980168627258"><ele>91.0</ele><time>2026-05-03T15:46:27.999Z</time></trkpt><trkpt lat="44.42833499264767" lon="11.399859539634589"><ele>91.33333333333333</ele><time>2026-05-03T15:46:28.999Z</time></trkpt><trkpt lat="44.42847586453264" lon="11.39994288748114"><ele>91.66666666666667</ele><time>2026-05-03T15:46:29.999Z</time></trkpt><trkpt lat="44.42861988411559" lon="11.400022735708072"><ele>92.0</ele><time>2026-05-03T15:46:30.999Z</time></trkpt><trkpt lat="44.42876003852881" lon="11.400120417361315"><ele>91.66666666666667</ele><time>2026-05-03T15:46:31.999Z</time></trkpt><trkpt lat="44.42890477425567" lon="11.400239830467903"><ele>91.33333333333333</ele><time>2026-05-03T15:46:32.999Z</time></trkpt><trkpt lat="44.42905976328484" lon="11.400355832945298"><ele>91.0</ele><time>2026-05-03T15:46:33.999Z</time></trkpt><trkpt lat="44.42920722167567" lon="11.400495559597397"><ele>90.66666666666666</ele><time>2026-05-03T15:46:34.999Z</time></trkpt><trkpt lat="44.42935961498435" lon="11.400625858911791"><ele>90.33333333333333</ele><time>2026-05-03T15:46:35.999Z</time></trkpt><trkpt lat="44.429513241505816" lon="11.400766522950347"><ele>90.0</ele><time>2026-05-03T15:46:36.999Z</time></trkpt><trkpt lat="44.4296710155447" lon="11.40091188310347"><ele>90.0</ele><time>2026-05-03T15:46:37.999Z</time></trkpt><trkpt lat="44.429825300017185" lon="11.401050841265201"><ele>90.0</ele><time>2026-05-03T15:46:38.999Z</time></trkpt><trkpt lat="44.42998556744649" lon="11.40118776522878"><ele>90.0</ele><time>2026-05-03T15:46:39.999Z</time></trkpt><trkpt lat="44.430137368302574" lon="11.40132540947748"><ele>90.33333333333333</ele><time>2026-05-03T15:46:40.999Z</time></trkpt><trkpt lat="44.43028912649328" lon="11.401453983281467"><ele>90.66666666666666</ele><time>2026-05-03T15:46:41.999Z</time></trkpt><trkpt lat="44.43044073874377" lon="11.401582725624444"><ele>91.0</ele><time>2026-05-03T15:46:42.999Z</time></trkpt><trkpt lat="44.43058946269008" lon="11.401704864085715"><ele>91.0</ele><time>2026-05-03T15:46:43.999Z</time></trkpt><trkpt lat="44.430736483899906" lon="11.40182218105126"><ele>91.0</ele><time>2026-05-03T15:46:44.999Z</time></trkpt><trkpt lat="44.43088363327455" lon="11.40192283616252"><ele>91.0</ele><time>2026-05-03T15:46:45.999Z</time></trkpt><trkpt lat="44.431043307718205" lon="11.402031329395586"><ele>91.0</ele><time>2026-05-03T15:46:46.999Z</time></trkpt><trkpt lat="44.43119663551225" lon="11.40213338154408"><ele>91.0</ele><time>2026-05-03T15:46:47.999Z</time></trkpt><trkpt lat="44.43133912635362" lon="11.402240452439388"><ele>91.0</ele><time>2026-05-03T15:46:48.999Z</time></trkpt><trkpt lat="44.43147604159013" lon="11.402355165324257"><ele>91.33333333333333</ele><time>2026-05-03T15:46:49.999Z</time></trkpt><trkpt lat="44.43160920002555" lon="11.402478471450426"><ele>91.66666666666667</ele><time>2026-05-03T15:46:50.999Z</time></trkpt><trkpt lat="44.431744549250155" lon="11.402600915480123"><ele>92.0</ele><time>2026-05-03T15:46:51.998Z</time></trkpt><trkpt lat="44.43187954641503" lon="11.402737832081874"><ele>92.0</ele><time>2026-05-03T15:46:53Z</time></trkpt><trkpt lat="44.43201549049855" lon="11.402886449153396"><ele>92.0</ele><time>2026-05-03T15:46:54Z</time></trkpt><trkpt lat="44.43214307113038" lon="11.403074552075216"><ele>92.0</ele><time>2026-05-03T15:46:55Z</time></trkpt><trkpt lat="44.43227391719093" lon="11.40326175990237"><ele>91.66666666666667</ele><time>2026-05-03T15:46:56Z</time></trkpt><trkpt lat="44.43241993423003" lon="11.40343015893656"><ele>91.33333333333333</ele><time>2026-05-03T15:46:57Z</time></trkpt><trkpt lat="44.4325729367933" lon="11.403564403808499"><ele>91.0</ele><time>2026-05-03T15:46:58Z</time></trkpt><trkpt lat="44.43273601191643" lon="11.403694280848194"><ele>93.33333333333333</ele><time>2026-05-03T15:46:59Z</time></trkpt><trkpt lat="44.432882733392425" lon="11.403840287027588"><ele>95.66666666666666</ele><time>2026-05-03T15:47:00Z</time></trkpt><trkpt lat="44.43302875929364" lon="11.403975245954866"><ele>98.0</ele><time>2026-05-03T15:47:01Z</time></trkpt><trkpt lat="44.433169169487584" lon="11.4041050147561"><ele>98.0</ele><time>2026-05-03T15:47:02Z</time></trkpt><trkpt lat="44.43331749849084" lon="11.404223382920621"><ele>98.0</ele><time>2026-05-03T15:47:03Z</time></trkpt><trkpt lat="44.43345007846207" lon="11.404348893858513"><ele>98.0</ele><time>2026-05-03T15:47:04Z</time></trkpt><trkpt lat="44.43359742542329" lon="11.404481805884297"><ele>98.0</ele><time>2026-05-03T15:47:05Z</time></trkpt><trkpt lat="44.43373864803247" lon="11.404607890247327"><ele>98.0</ele><time>2026-05-03T15:47:06Z</time></trkpt><trkpt lat="44.4338894326073" lon="11.404748123989263"><ele>98.0</ele><time>2026-05-03T15:47:06.999Z</time></trkpt><trkpt lat="44.43403933889233" lon="11.404888984106105"><ele>97.0</ele><time>2026-05-03T15:47:07.999Z</time></trkpt><trkpt lat="44.43418258658438" lon="11.405000770684524"><ele>96.0</ele><time>2026-05-03T15:47:08.999Z</time></trkpt><trkpt lat="44.434321833169314" lon="11.405103755097635"><ele>95.0</ele><time>2026-05-03T15:47:09.999Z</time></trkpt><trkpt lat="44.434458896243065" lon="11.405184246594043"><ele>95.0</ele><time>2026-05-03T15:47:10.999Z</time></trkpt><trkpt lat="44.43461267821573" lon="11.405258102107123"><ele>95.0</ele><time>2026-05-03T15:47:11.999Z</time></trkpt><trkpt lat="44.43475915122004" lon="11.40535653420136"><ele>95.0</ele><time>2026-05-03T15:47:12.999Z</time></trkpt><trkpt lat="44.434906298458216" lon="11.405409706043175"><ele>95.0</ele><time>2026-05-03T15:47:13.999Z</time></trkpt><trkpt lat="44.43503402499741" lon="11.405484052696405"><ele>95.0</ele><time>2026-05-03T15:47:14.999Z</time></trkpt><trkpt lat="44.43513706011512" lon="11.405570357266603"><ele>95.0</ele><time>2026-05-03T15:47:15.999Z</time></trkpt><trkpt lat="44.435243135621626" lon="11.40563337354533"><ele>95.0</ele><time>2026-05-03T15:47:16.999Z</time></trkpt><trkpt lat="44.43533946482886" lon="11.405732899370527"><ele>95.0</ele><time>2026-05-03T15:47:17.999Z</time></trkpt><trkpt lat="44.4354382437057" lon="11.405857351431527"><ele>95.0</ele><time>2026-05-03T15:47:18.999Z</time></trkpt><trkpt lat="44.43553426791224" lon="11.405994876980433"><ele>95.0</ele><time>2026-05-03T15:47:19.999Z</time></trkpt><trkpt lat="44.435624645774325" lon="11.406137279880468"><ele>95.0</ele><time>2026-05-03T15:47:20.999Z</time></trkpt><trkpt lat="44.43571946694496" lon="11.406284966285503"><ele>92.0</ele><time>2026-05-03T15:47:21.999Z</time></trkpt><trkpt lat="44.43582060217984" lon="11.406440218229017"><ele>89.0</ele><time>2026-05-03T15:47:22.999Z</time></trkpt><trkpt lat="44.43591754929172" lon="11.406584404881563"><ele>86.0</ele><time>2026-05-03T15:47:23.999Z</time></trkpt><trkpt lat="44.43600439451604" lon="11.406712692659708"><ele>83.0</ele><time>2026-05-03T15:47:24.999Z</time></trkpt><trkpt lat="44.43607777653665" lon="11.406828886109137"><ele>83.0</ele><time>2026-05-03T15:47:25.999Z</time></trkpt><trkpt lat="44.43613759363298" lon="11.406918071867993"><ele>83.0</ele><time>2026-05-03T15:47:26.999Z</time></trkpt><trkpt lat="44.43619189824937" lon="11.406995959660183"><ele>83.0</ele><time>2026-05-03T15:47:27.999Z</time></trkpt><trkpt lat="44.43626359080131" lon="11.407102946138668"><ele>83.0</ele><time>2026-05-03T15:47:29.999Z</time></trkpt><trkpt lat="44.43632113359759" lon="11.407170617957775"><ele>83.0</ele><time>2026-05-03T15:47:31.999Z</time></trkpt><trkpt lat="44.43638168072605" lon="11.407259610115501"><ele>83.0</ele><time>2026-05-03T15:47:41.998Z</time></trkpt><trkpt lat="44.436426581361076" lon="11.407346808573108"><ele>82.66666666666667</ele><time>2026-05-03T15:47:42.998Z</time></trkpt><trkpt lat="44.43647521121464" lon="11.407409243980412"><ele>82.33333333333334</ele><time>2026-05-03T15:47:43.998Z</time></trkpt><trkpt lat="44.436574560345" lon="11.407266690292174"><ele>82.0</ele><time>2026-05-03T15:47:46.998Z</time></trkpt><trkpt lat="44.43657945961831" lon="11.407178256455305"><ele>81.66666666666667</ele><time>2026-05-03T15:47:47.998Z</time></trkpt><trkpt lat="44.4366148225772" lon="11.407071765354008"><ele>81.33333333333333</ele><time>2026-05-03T15:47:48.998Z</time></trkpt><trkpt lat="44.436648715812076" lon="11.406959770946273"><ele>81.0</ele><time>2026-05-03T15:47:49.998Z</time></trkpt><trkpt lat="44.43667923358179" lon="11.406838761540607"><ele>81.0</ele><time>2026-05-03T15:47:50.998Z</time></trkpt><trkpt lat="44.436698693228465" lon="11.406684468196744"><ele>81.0</ele><time>2026-05-03T15:47:51.998Z</time></trkpt><trkpt lat="44.43672978541627" lon="11.40653764959896"><ele>81.0</ele><time>2026-05-03T15:47:52.998Z</time></trkpt><trkpt lat="44.43677362597294" lon="11.406391885246645"><ele>81.0</ele><time>2026-05-03T15:47:53.998Z</time></trkpt><trkpt lat="44.436781638957164" lon="11.406266127871067"><ele>81.0</ele><time>2026-05-03T15:47:54.998Z</time></trkpt><trkpt lat="44.436821031164804" lon="11.40615940626348"><ele>81.33333333333333</ele><time>2026-05-03T15:47:55.998Z</time></trkpt><trkpt lat="44.43684092247312" lon="11.406046394342521"><ele>81.66666666666667</ele><time>2026-05-03T15:47:56.998Z</time></trkpt><trkpt lat="44.43685111881632" lon="11.405954475947512"><ele>82.0</ele><time>2026-05-03T15:47:57.998Z</time></trkpt><trkpt lat="44.43686089937784" lon="11.405866306341464"><ele>82.33333333333334</ele><time>2026-05-03T15:47:58.998Z</time></trkpt><trkpt lat="44.43677103611308" lon="11.405766581244231"><ele>82.66666666666667</ele><time>2026-05-03T15:47:59.998Z</time></trkpt><trkpt lat="44.43670858734107" lon="11.405666750145585"><ele>83.0</ele><time>2026-05-03T15:48:00.998Z</time></trkpt><trkpt lat="44.43663759248489" lon="11.405557383517735"><ele>83.0</ele><time>2026-05-03T15:48:01.998Z</time></trkpt><trkpt lat="44.43656855726967" lon="11.405407612478987"><ele>83.0</ele><time>2026-05-03T15:48:02.998Z</time></trkpt><trkpt lat="44.43648934524141" lon="11.40527994938835"><ele>83.0</ele><time>2026-05-03T15:48:03.998Z</time></trkpt><trkpt lat="44.43639287777531" lon="11.40517157960635"><ele>83.0</ele><time>2026-05-03T15:48:04.998Z</time></trkpt><trkpt lat="44.436303833301785" lon="11.405058612548508"><ele>83.25</ele><time>2026-05-03T15:48:05.998Z</time></trkpt><trkpt lat="44.43620343967214" lon="11.404953574623484"><ele>83.5</ele><time>2026-05-03T15:48:06.998Z</time></trkpt><trkpt lat="44.43611229554672" lon="11.40483259490603"><ele>83.75</ele><time>2026-05-03T15:48:07.998Z</time></trkpt><trkpt lat="44.436024626108846" lon="11.404743144972315"><ele>84.0</ele><time>2026-05-03T15:48:08.998Z</time></trkpt><trkpt lat="44.435943892866945" lon="11.404660772195651"><ele>84.0</ele><time>2026-05-03T15:48:09.998Z</time></trkpt><trkpt lat="44.43586916382837" lon="11.404583527746885"><ele>84.0</ele><time>2026-05-03T15:48:10.998Z</time></trkpt><trkpt lat="44.43579600803157" lon="11.40450663055717"><ele>84.0</ele><time>2026-05-03T15:48:11.998Z</time></trkpt><trkpt lat="44.43571270921655" lon="11.404418877502259"><ele>84.0</ele><time>2026-05-03T15:48:12.998Z</time></trkpt><trkpt lat="44.435627582122876" lon="11.404326229146202"><ele>84.0</ele><time>2026-05-03T15:48:13.998Z</time></trkpt><trkpt lat="44.43553935447019" lon="11.404227640223953"><ele>84.2</ele><time>2026-05-03T15:48:14.998Z</time></trkpt><trkpt lat="44.435456934715745" lon="11.404150352603388"><ele>84.4</ele><time>2026-05-03T15:48:15.998Z</time></trkpt><trkpt lat="44.43539751801602" lon="11.40405456522071"><ele>84.6</ele><time>2026-05-03T15:48:16.998Z</time></trkpt><trkpt lat="44.43531993106677" lon="11.403979907473822"><ele>84.8</ele><time>2026-05-03T15:48:17.998Z</time></trkpt><trkpt lat="44.435257165858566" lon="11.403869599433527"><ele>85.0</ele><time>2026-05-03T15:48:18.998Z</time></trkpt><trkpt lat="44.43516763942234" lon="11.403755927784436"><ele>85.25</ele><time>2026-05-03T15:48:19.998Z</time></trkpt><trkpt lat="44.43506376516475" lon="11.403656899331391"><ele>85.5</ele><time>2026-05-03T15:48:20.998Z</time></trkpt><trkpt lat="44.43497259659037" lon="11.4035119249166"><ele>85.75</ele><time>2026-05-03T15:48:21.998Z</time></trkpt><trkpt lat="44.434863209382414" lon="11.403375079072845"><ele>86.0</ele><time>2026-05-03T15:48:22.998Z</time></trkpt><trkpt lat="44.43474499014332" lon="11.403244493220816"><ele>86.0</ele><time>2026-05-03T15:48:23.998Z</time></trkpt><trkpt lat="44.43465534304333" lon="11.403131133603912"><ele>86.0</ele><time>2026-05-03T15:48:24.998Z</time></trkpt><trkpt lat="44.434585374735214" lon="11.403011537604579"><ele>86.0</ele><time>2026-05-03T15:48:25.998Z</time></trkpt><trkpt lat="44.43453565764307" lon="11.402905824121518"><ele>86.0</ele><time>2026-05-03T15:48:26.998Z</time></trkpt><trkpt lat="44.43451481021078" lon="11.402789145672548"><ele>86.0</ele><time>2026-05-03T15:48:27.998Z</time></trkpt><trkpt lat="44.43450555755825" lon="11.402653926256065"><ele>87.16666666666667</ele><time>2026-05-03T15:48:28.998Z</time></trkpt><trkpt lat="44.4344864334061" lon="11.402511169311333"><ele>88.33333333333334</ele><time>2026-05-03T15:48:29.998Z</time></trkpt><trkpt lat="44.43447093532287" lon="11.402373640075355"><ele>89.5</ele><time>2026-05-03T15:48:30.998Z</time></trkpt><trkpt lat="44.4344439731239" lon="11.402277019793901"><ele>90.66666666666667</ele><time>2026-05-03T15:48:31.998Z</time></trkpt><trkpt lat="44.43439798183069" lon="11.402203926187822"><ele>91.83333333333333</ele><time>2026-05-03T15:48:32.998Z</time></trkpt><trkpt lat="44.43431844093759" lon="11.402149078039322"><ele>93.0</ele><time>2026-05-03T15:48:33.998Z</time></trkpt><trkpt lat="44.43424108331214" lon="11.40209345473101"><ele>94.60000000000001</ele><time>2026-05-03T15:48:34.998Z</time></trkpt><trkpt lat="44.43416242256921" lon="11.40203466294547"><ele>96.2</ele><time>2026-05-03T15:48:35.998Z</time></trkpt><trkpt lat="44.434106772009144" lon="11.401892805397328"><ele>97.8</ele><time>2026-05-03T15:48:37.998Z</time></trkpt><trkpt lat="44.43412489243549" lon="11.401769911953147"><ele>99.4</ele><time>2026-05-03T15:48:38.998Z</time></trkpt><trkpt lat="44.43419885322619" lon="11.401689706452158"><ele>101.0</ele><time>2026-05-03T15:48:39.998Z</time></trkpt><trkpt lat="44.43427447097744" lon="11.401543695553391"><ele>101.0</ele><time>2026-05-03T15:48:40.998Z</time></trkpt><trkpt lat="44.4343663469308" lon="11.401411933824237"><ele>101.0</ele><time>2026-05-03T15:48:41.998Z</time></trkpt><trkpt lat="44.43443886337995" lon="11.401295835199877"><ele>101.0</ele><time>2026-05-03T15:48:42.998Z</time></trkpt><trkpt lat="44.43448977057173" lon="11.40119473062662"><ele>101.0</ele><time>2026-05-03T15:48:43.998Z</time></trkpt><trkpt lat="44.434522453411375" lon="11.401111516574565"><ele>101.0</ele><time>2026-05-03T15:48:44.998Z</time></trkpt><trkpt lat="44.434536352066" lon="11.400951131667583"><ele>102.25</ele><time>2026-05-03T15:48:46.998Z</time></trkpt><trkpt lat="44.43451712373214" lon="11.400768810513469"><ele>103.5</ele><time>2026-05-03T15:48:48.998Z</time></trkpt><trkpt lat="44.434495050794446" lon="11.400624991189739"><ele>104.75</ele><time>2026-05-03T15:48:49.998Z</time></trkpt><trkpt lat="44.43446647700832" lon="11.400438814387094"><ele>106.0</ele><time>2026-05-03T15:48:50.998Z</time></trkpt><trkpt lat="44.43444348079807" lon="11.400280367716299"><ele>107.8</ele><time>2026-05-03T15:48:51.997Z</time></trkpt><trkpt lat="44.434432187032954" lon="11.400178849121795"><ele>109.6</ele><time>2026-05-03T15:48:52.997Z</time></trkpt><trkpt lat="44.43440934903947" lon="11.40008200300393"><ele>111.4</ele><time>2026-05-03T15:48:53.997Z</time></trkpt><trkpt lat="44.43447865900821" lon="11.399974878059881"><ele>113.2</ele><time>2026-05-03T15:48:55.997Z</time></trkpt><trkpt lat="44.434592529114056" lon="11.400000835853168"><ele>115.0</ele><time>2026-05-03T15:48:57.997Z</time></trkpt><trkpt lat="44.434685687254394" lon="11.400141564714293"><ele>115.6</ele><time>2026-05-03T15:48:59.999Z</time></trkpt><trkpt lat="44.43474373460895" lon="11.40023597887981"><ele>116.2</ele><time>2026-05-03T15:49:00.999Z</time></trkpt><trkpt lat="44.43484341297364" lon="11.400197700239724"><ele>116.80000000000001</ele><time>2026-05-03T15:49:02.999Z</time></trkpt><trkpt lat="44.4349444597274" lon="11.400079357227641"><ele>117.4</ele><time>2026-05-03T15:49:04.999Z</time></trkpt><trkpt lat="44.43501060087381" lon="11.39996166046091"><ele>118.0</ele><time>2026-05-03T15:49:05.999Z</time></trkpt><trkpt lat="44.43507794074784" lon="11.399820050975901"><ele>118.0</ele><time>2026-05-03T15:49:06.999Z</time></trkpt><trkpt lat="44.43513750496465" lon="11.399677360368116"><ele>118.00000000000001</ele><time>2026-05-03T15:49:07.999Z</time></trkpt><trkpt lat="44.43517730148287" lon="11.399578999952778"><ele>118.00000000000001</ele><time>2026-05-03T15:49:08.999Z</time></trkpt><trkpt lat="44.43522628289415" lon="11.399452386170548"><ele>118.0</ele><time>2026-05-03T15:49:09.999Z</time></trkpt><trkpt lat="44.435266988845235" lon="11.399336460831272"><ele>118.0</ele><time>2026-05-03T15:49:10.999Z</time></trkpt><trkpt lat="44.43530288627017" lon="11.399235180597827"><ele>120.66666666666667</ele><time>2026-05-03T15:49:11.999Z</time></trkpt><trkpt lat="44.435333635094736" lon="11.399120618405645"><ele>123.33333333333334</ele><time>2026-05-03T15:49:12.999Z</time></trkpt><trkpt lat="44.435392908261946" lon="11.39902373480862"><ele>126.0</ele><time>2026-05-03T15:49:14.999Z</time></trkpt><trkpt lat="44.435069628532894" lon="11.3988318849354"><ele>128.5</ele><time>2026-05-03T15:49:27.999Z</time></trkpt><trkpt lat="44.435107879448914" lon="11.398703129125785"><ele>131.0</ele><time>2026-05-03T15:49:29.999Z</time></trkpt><trkpt lat="44.43511008867242" lon="11.398593952488227"><ele>133.5</ele><time>2026-05-03T15:49:31.999Z</time></trkpt><trkpt lat="44.435047177887114" lon="11.39858144159351"><ele>136.0</ele><time>2026-05-03T15:49:33.999Z</time></trkpt><trkpt lat="44.43494621682236" lon="11.398659964797742"><ele>138.5</ele><time>2026-05-03T15:49:35.999Z</time></trkpt><trkpt lat="44.434868369915414" lon="11.398716808001765"><ele>141.0</ele><time>2026-05-03T15:49:36.999Z</time></trkpt><trkpt lat="44.434788163476895" lon="11.3986565566302"><ele>141.0</ele><time>2026-05-03T15:50:06.999Z</time></trkpt><trkpt lat="44.434715108441914" lon="11.398587412305865"><ele>141.0</ele><time>2026-05-03T15:50:07.999Z</time></trkpt><trkpt lat="44.43465264763514" lon="11.398525923535262"><ele>141.0</ele><time>2026-05-03T15:50:08.999Z</time></trkpt><trkpt lat="44.43468769500057" lon="11.39844386836071"><ele>141.0</ele><time>2026-05-03T15:50:11.999Z</time></trkpt><trkpt lat="44.43469728438105" lon="11.398343488163237"><ele>141.0</ele><time>2026-05-03T15:50:13.999Z</time></trkpt><trkpt lat="44.434737499626834" lon="11.398213466937257"><ele>141.0</ele><time>2026-05-03T15:50:18.999Z</time></trkpt><trkpt lat="44.43478815385106" lon="11.398101126405733"><ele>143.8</ele><time>2026-05-03T15:50:20.999Z</time></trkpt><trkpt lat="44.43483073304138" lon="11.397982558507893"><ele>146.6</ele><time>2026-05-03T15:50:22.999Z</time></trkpt><trkpt lat="44.43484972026367" lon="11.397849421437963"><ele>149.4</ele><time>2026-05-03T15:50:24.999Z</time></trkpt><trkpt lat="44.43487509289863" lon="11.397726711471625"><ele>152.2</ele><time>2026-05-03T15:50:26.999Z</time></trkpt><trkpt lat="44.43489535155666" lon="11.3976087746685"><ele>155.0</ele><time>2026-05-03T15:50:28.999Z</time></trkpt><trkpt lat="44.434942737047905" lon="11.39748352693722"><ele>155.0</ele><time>2026-05-03T15:50:30.999Z</time></trkpt><trkpt lat="44.43499422963656" lon="11.397380188539167"><ele>155.0</ele><time>2026-05-03T15:50:32.999Z</time></trkpt><trkpt lat="44.435047976330566" lon="11.397279462383684"><ele>155.0</ele><time>2026-05-03T15:50:36.999Z</time></trkpt><trkpt lat="44.43510770965871" lon="11.397141120985602"><ele>155.0</ele><time>2026-05-03T15:50:37.999Z</time></trkpt><trkpt lat="44.435149168559875" lon="11.39706413868523"><ele>155.0</ele><time>2026-05-03T15:50:38.999Z</time></trkpt><trkpt lat="44.435225000954375" lon="11.39695920717086"><ele>155.83333333333331</ele><time>2026-05-03T15:50:40.999Z</time></trkpt><trkpt lat="44.43519966829915" lon="11.396836863535322"><ele>156.66666666666666</ele><time>2026-05-03T15:50:43.999Z</time></trkpt><trkpt lat="44.43522866534575" lon="11.396703059686608"><ele>157.5</ele><time>2026-05-03T15:50:45.999Z</time></trkpt><trkpt lat="44.435248841773344" lon="11.396614998511986"><ele>158.33333333333334</ele><time>2026-05-03T15:50:46.999Z</time></trkpt><trkpt lat="44.43526535473787" lon="11.396516159003452"><ele>159.16666666666669</ele><time>2026-05-03T15:50:47.999Z</time></trkpt><trkpt lat="44.43528233754813" lon="11.39643060385607"><ele>160.0</ele><time>2026-05-03T15:50:48.999Z</time></trkpt><trkpt lat="44.43529170245561" lon="11.396294307376714"><ele>160.6</ele><time>2026-05-03T15:50:50.999Z</time></trkpt><trkpt lat="44.43531327198816" lon="11.39613703367497"><ele>161.2</ele><time>2026-05-03T15:50:52.999Z</time></trkpt><trkpt lat="44.4353287517231" lon="11.396049038397553"><ele>161.8</ele><time>2026-05-03T15:50:53.999Z</time></trkpt><trkpt lat="44.435368422187004" lon="11.395916262882976"><ele>162.4</ele><time>2026-05-03T15:50:55.999Z</time></trkpt><trkpt lat="44.435400934105466" lon="11.395820193142677"><ele>163.0</ele><time>2026-05-03T15:50:57.998Z</time></trkpt><trkpt lat="44.43545839676236" lon="11.39569601589346"><ele>167.8</ele><time>2026-05-03T15:50:59.998Z</time></trkpt><trkpt lat="44.435522411884605" lon="11.395620664457125"><ele>172.60000000000002</ele><time>2026-05-03T15:51:01.998Z</time></trkpt><trkpt lat="44.43556100916753" lon="11.395541201907523"><ele>177.39999999999998</ele><time>2026-05-03T15:51:03.998Z</time></trkpt><trkpt lat="44.43562137529016" lon="11.39543527827901"><ele>182.2</ele><time>2026-05-03T15:51:06Z</time></trkpt><trkpt lat="44.43565090990928" lon="11.395293495685205"><ele>187.0</ele><time>2026-05-03T15:51:08Z</time></trkpt><trkpt lat="44.43570403230199" lon="11.395171277252468"><ele>188.33333333333334</ele><time>2026-05-03T15:51:10Z</time></trkpt><trkpt lat="44.435769736170265" lon="11.395128321149752"><ele>189.66666666666669</ele><time>2026-05-03T15:51:11Z</time></trkpt><trkpt lat="44.43585237048351" lon="11.395085204136803"><ele>191.0</ele><time>2026-05-03T15:51:12Z</time></trkpt><trkpt lat="44.43592344576726" lon="11.395007136135646"><ele>192.33333333333334</ele><time>2026-05-03T15:51:14Z</time></trkpt><trkpt lat="44.43594999688469" lon="11.394906963133796"><ele>193.66666666666666</ele><time>2026-05-03T15:51:15Z</time></trkpt><trkpt lat="44.43599647344355" lon="11.394765323629892"><ele>195.0</ele><time>2026-05-03T15:51:16Z</time></trkpt><trkpt lat="44.436041908752806" lon="11.394623159026862"><ele>195.66666666666666</ele><time>2026-05-03T15:51:17Z</time></trkpt><trkpt lat="44.436077984071204" lon="11.394524711225506"><ele>196.33333333333331</ele><time>2026-05-03T15:51:18Z</time></trkpt><trkpt lat="44.4360911614229" lon="11.3944214759225"><ele>197.0</ele><time>2026-05-03T15:51:19Z</time></trkpt><trkpt lat="44.43609469410683" lon="11.394318414964756"><ele>197.66666666666666</ele><time>2026-05-03T15:51:20Z</time></trkpt><trkpt lat="44.436102932201116" lon="11.394215371778316"><ele>198.33333333333331</ele><time>2026-05-03T15:51:21Z</time></trkpt><trkpt lat="44.43608954262461" lon="11.3940438217269"><ele>199.0</ele><time>2026-05-03T15:51:23Z</time></trkpt><trkpt lat="44.43607085025791" lon="11.393928752358546"><ele>198.2</ele><time>2026-05-03T15:51:24Z</time></trkpt><trkpt lat="44.43605687619196" lon="11.3937936478962"><ele>197.39999999999998</ele><time>2026-05-03T15:51:27Z</time></trkpt><trkpt lat="44.436084717516295" lon="11.393687270425055"><ele>196.6</ele><time>2026-05-03T15:51:28Z</time></trkpt><trkpt lat="44.43612703685941" lon="11.393551138461795"><ele>195.8</ele><time>2026-05-03T15:51:29Z</time></trkpt><trkpt lat="44.43614065041409" lon="11.39344873334399"><ele>195.0</ele><time>2026-05-03T15:51:30Z</time></trkpt><trkpt lat="44.43618058233255" lon="11.393307745010103"><ele>195.0</ele><time>2026-05-03T15:51:32Z</time></trkpt></trkseg></trk></gpx>